<?xml version="1.0" encoding="UTF-8" standalone="no" ?>
<gpx xmlns="http://www.topografix.com/GPX/1/1" xmlns:xsi="http://www.w3.org/2001/XMLSchema-instance" xsi:schemaLocation="http://www.topografix.com/GPX/1/1 http://www.topografix.com/GPX/1/1/gpx.xsd" version="1.1" creator="VisuGPX - https://www.visugpx.com">
  <metadata>
    <name>2016.08.09</name>
    <desc><![CDATA[Ouistreham, Caen, Arromanches les bains]]></desc>
  </metadata>
  <trk>
    <name><![CDATA[2016.08.09 Ouistreham, Caen,]]></name>
    <trkseg>
      <trkpt lat="49.28592" lon="-0.27122">
        <ele>-3.23</ele>
        <time>2016-08-09T07:12:31Z</time>
      </trkpt>
      <trkpt lat="49.28593" lon="-0.2713">
        <ele>-1.79</ele>
        <time>2016-08-09T07:12:39Z</time>
      </trkpt>
      <trkpt lat="49.28593" lon="-0.27136">
        <ele>-1.79</ele>
        <time>2016-08-09T07:12:43Z</time>
      </trkpt>
      <trkpt lat="49.28592" lon="-0.2714">
        <ele>-0.34</ele>
        <time>2016-08-09T07:12:50Z</time>
      </trkpt>
      <trkpt lat="49.28571" lon="-0.27148">
        <ele>-0.82</ele>
        <time>2016-08-09T07:13:00Z</time>
      </trkpt>
      <trkpt lat="49.28564" lon="-0.27127">
        <ele>-2.27</ele>
        <time>2016-08-09T07:13:05Z</time>
      </trkpt>
      <trkpt lat="49.28542" lon="-0.27054">
        <ele>-1.3</ele>
        <time>2016-08-09T07:13:19Z</time>
      </trkpt>
      <trkpt lat="49.2854" lon="-0.27003">
        <ele>-0.34</ele>
        <time>2016-08-09T07:13:29Z</time>
      </trkpt>
      <trkpt lat="49.28533" lon="-0.26978">
        <ele>-0.82</ele>
        <time>2016-08-09T07:13:38Z</time>
      </trkpt>
      <trkpt lat="49.28533" lon="-0.26971">
        <ele>-0.34</ele>
        <time>2016-08-09T07:13:39Z</time>
      </trkpt>
      <trkpt lat="49.28533" lon="-0.26956">
        <ele>0.14</ele>
        <time>2016-08-09T07:13:41Z</time>
      </trkpt>
      <trkpt lat="49.28534" lon="-0.26948">
        <ele>0.14</ele>
        <time>2016-08-09T07:13:42Z</time>
      </trkpt>
      <trkpt lat="49.28536" lon="-0.26941">
        <ele>0.14</ele>
        <time>2016-08-09T07:13:43Z</time>
      </trkpt>
      <trkpt lat="49.28544" lon="-0.26912">
        <ele>0.62</ele>
        <time>2016-08-09T07:13:47Z</time>
      </trkpt>
      <trkpt lat="49.28548" lon="-0.26891">
        <ele>0.62</ele>
        <time>2016-08-09T07:13:50Z</time>
      </trkpt>
      <trkpt lat="49.28548" lon="-0.26883">
        <ele>0.62</ele>
        <time>2016-08-09T07:13:51Z</time>
      </trkpt>
      <trkpt lat="49.28547" lon="-0.26876">
        <ele>0.62</ele>
        <time>2016-08-09T07:13:52Z</time>
      </trkpt>
      <trkpt lat="49.28545" lon="-0.2687">
        <ele>0.14</ele>
        <time>2016-08-09T07:13:53Z</time>
      </trkpt>
      <trkpt lat="49.28543" lon="-0.26863">
        <ele>0.14</ele>
        <time>2016-08-09T07:13:54Z</time>
      </trkpt>
      <trkpt lat="49.28509" lon="-0.26771">
        <ele>3.5</ele>
        <time>2016-08-09T07:14:08Z</time>
      </trkpt>
      <trkpt lat="49.28504" lon="-0.26746">
        <ele>4.46</ele>
        <time>2016-08-09T07:14:13Z</time>
      </trkpt>
      <trkpt lat="49.28507" lon="-0.26741">
        <ele>4.46</ele>
        <time>2016-08-09T07:14:14Z</time>
      </trkpt>
      <trkpt lat="49.28513" lon="-0.26735">
        <ele>4.94</ele>
        <time>2016-08-09T07:14:16Z</time>
      </trkpt>
      <trkpt lat="49.28521" lon="-0.26729">
        <ele>4.46</ele>
        <time>2016-08-09T07:14:18Z</time>
      </trkpt>
      <trkpt lat="49.28562" lon="-0.26696">
        <ele>3.98</ele>
        <time>2016-08-09T07:14:28Z</time>
      </trkpt>
      <trkpt lat="49.28592" lon="-0.26671">
        <ele>4.94</ele>
        <time>2016-08-09T07:14:38Z</time>
      </trkpt>
      <trkpt lat="49.28602" lon="-0.26661">
        <ele>4.46</ele>
        <time>2016-08-09T07:14:51Z</time>
      </trkpt>
      <trkpt lat="49.28602" lon="-0.26661">
        <ele>5.91</ele>
        <time>2016-08-09T07:15:02Z</time>
      </trkpt>
      <trkpt lat="49.28603" lon="-0.2666">
        <ele>5.91</ele>
        <time>2016-08-09T07:15:03Z</time>
      </trkpt>
      <trkpt lat="49.28605" lon="-0.26659">
        <ele>5.91</ele>
        <time>2016-08-09T07:15:04Z</time>
      </trkpt>
      <trkpt lat="49.28607" lon="-0.26656">
        <ele>5.91</ele>
        <time>2016-08-09T07:15:05Z</time>
      </trkpt>
      <trkpt lat="49.28609" lon="-0.26651">
        <ele>5.91</ele>
        <time>2016-08-09T07:15:06Z</time>
      </trkpt>
      <trkpt lat="49.28609" lon="-0.26645">
        <ele>5.91</ele>
        <time>2016-08-09T07:15:07Z</time>
      </trkpt>
      <trkpt lat="49.28608" lon="-0.26637">
        <ele>5.91</ele>
        <time>2016-08-09T07:15:08Z</time>
      </trkpt>
      <trkpt lat="49.28606" lon="-0.2663">
        <ele>5.91</ele>
        <time>2016-08-09T07:15:09Z</time>
      </trkpt>
      <trkpt lat="49.28603" lon="-0.26623">
        <ele>5.91</ele>
        <time>2016-08-09T07:15:10Z</time>
      </trkpt>
      <trkpt lat="49.28575" lon="-0.26542">
        <ele>5.91</ele>
        <time>2016-08-09T07:15:23Z</time>
      </trkpt>
      <trkpt lat="49.28574" lon="-0.26535">
        <ele>5.91</ele>
        <time>2016-08-09T07:15:26Z</time>
      </trkpt>
      <trkpt lat="49.28572" lon="-0.26532">
        <ele>5.91</ele>
        <time>2016-08-09T07:15:28Z</time>
      </trkpt>
      <trkpt lat="49.28572" lon="-0.2653">
        <ele>5.91</ele>
        <time>2016-08-09T07:15:29Z</time>
      </trkpt>
      <trkpt lat="49.28571" lon="-0.26527">
        <ele>5.42</ele>
        <time>2016-08-09T07:15:30Z</time>
      </trkpt>
      <trkpt lat="49.2857" lon="-0.26524">
        <ele>5.42</ele>
        <time>2016-08-09T07:15:31Z</time>
      </trkpt>
      <trkpt lat="49.28569" lon="-0.2652">
        <ele>4.94</ele>
        <time>2016-08-09T07:15:32Z</time>
      </trkpt>
      <trkpt lat="49.28567" lon="-0.26515">
        <ele>4.94</ele>
        <time>2016-08-09T07:15:33Z</time>
      </trkpt>
      <trkpt lat="49.28536" lon="-0.26427">
        <ele>4.94</ele>
        <time>2016-08-09T07:15:45Z</time>
      </trkpt>
      <trkpt lat="49.28489" lon="-0.26295">
        <ele>6.39</ele>
        <time>2016-08-09T07:16:02Z</time>
      </trkpt>
      <trkpt lat="49.28442" lon="-0.26164">
        <ele>5.91</ele>
        <time>2016-08-09T07:16:19Z</time>
      </trkpt>
      <trkpt lat="49.28433" lon="-0.26133">
        <ele>6.39</ele>
        <time>2016-08-09T07:16:26Z</time>
      </trkpt>
      <trkpt lat="49.28414" lon="-0.26073">
        <ele>6.39</ele>
        <time>2016-08-09T07:16:40Z</time>
      </trkpt>
      <trkpt lat="49.28406" lon="-0.2605">
        <ele>5.91</ele>
        <time>2016-08-09T07:16:50Z</time>
      </trkpt>
      <trkpt lat="49.28403" lon="-0.26044">
        <ele>6.39</ele>
        <time>2016-08-09T07:16:51Z</time>
      </trkpt>
      <trkpt lat="49.2836" lon="-0.25925">
        <ele>7.83</ele>
        <time>2016-08-09T07:17:06Z</time>
      </trkpt>
      <trkpt lat="49.28313" lon="-0.25806">
        <ele>6.87</ele>
        <time>2016-08-09T07:17:21Z</time>
      </trkpt>
      <trkpt lat="49.28256" lon="-0.25683">
        <ele>7.35</ele>
        <time>2016-08-09T07:17:37Z</time>
      </trkpt>
      <trkpt lat="49.28244" lon="-0.25661">
        <ele>7.35</ele>
        <time>2016-08-09T07:17:44Z</time>
      </trkpt>
      <trkpt lat="49.28242" lon="-0.25658">
        <ele>9.27</ele>
        <time>2016-08-09T07:18:00Z</time>
      </trkpt>
      <trkpt lat="49.28241" lon="-0.25656">
        <ele>9.27</ele>
        <time>2016-08-09T07:18:01Z</time>
      </trkpt>
      <trkpt lat="49.28235" lon="-0.25644">
        <ele>9.27</ele>
        <time>2016-08-09T07:18:04Z</time>
      </trkpt>
      <trkpt lat="49.28233" lon="-0.25638">
        <ele>8.79</ele>
        <time>2016-08-09T07:18:05Z</time>
      </trkpt>
      <trkpt lat="49.2823" lon="-0.25631">
        <ele>8.79</ele>
        <time>2016-08-09T07:18:06Z</time>
      </trkpt>
      <trkpt lat="49.28217" lon="-0.25604">
        <ele>8.79</ele>
        <time>2016-08-09T07:18:10Z</time>
      </trkpt>
      <trkpt lat="49.28165" lon="-0.25494">
        <ele>7.83</ele>
        <time>2016-08-09T07:18:25Z</time>
      </trkpt>
      <trkpt lat="49.28118" lon="-0.25392">
        <ele>7.35</ele>
        <time>2016-08-09T07:18:38Z</time>
      </trkpt>
      <trkpt lat="49.28085" lon="-0.25322">
        <ele>7.35</ele>
        <time>2016-08-09T07:18:47Z</time>
      </trkpt>
      <trkpt lat="49.28082" lon="-0.25314">
        <ele>7.35</ele>
        <time>2016-08-09T07:18:48Z</time>
      </trkpt>
      <trkpt lat="49.28078" lon="-0.25307">
        <ele>6.87</ele>
        <time>2016-08-09T07:18:49Z</time>
      </trkpt>
      <trkpt lat="49.28038" lon="-0.25219">
        <ele>6.87</ele>
        <time>2016-08-09T07:19:00Z</time>
      </trkpt>
      <trkpt lat="49.27999" lon="-0.2514">
        <ele>6.87</ele>
        <time>2016-08-09T07:19:13Z</time>
      </trkpt>
      <trkpt lat="49.27993" lon="-0.25128">
        <ele>7.35</ele>
        <time>2016-08-09T07:19:30Z</time>
      </trkpt>
      <trkpt lat="49.27982" lon="-0.25102">
        <ele>6.39</ele>
        <time>2016-08-09T07:19:40Z</time>
      </trkpt>
      <trkpt lat="49.27979" lon="-0.25097">
        <ele>5.91</ele>
        <time>2016-08-09T07:19:43Z</time>
      </trkpt>
      <trkpt lat="49.27979" lon="-0.25096">
        <ele>6.39</ele>
        <time>2016-08-09T07:19:44Z</time>
      </trkpt>
      <trkpt lat="49.27978" lon="-0.25094">
        <ele>6.39</ele>
        <time>2016-08-09T07:19:45Z</time>
      </trkpt>
      <trkpt lat="49.27977" lon="-0.25092">
        <ele>6.39</ele>
        <time>2016-08-09T07:19:46Z</time>
      </trkpt>
      <trkpt lat="49.27975" lon="-0.2509">
        <ele>6.39</ele>
        <time>2016-08-09T07:19:47Z</time>
      </trkpt>
      <trkpt lat="49.27973" lon="-0.25087">
        <ele>6.39</ele>
        <time>2016-08-09T07:19:48Z</time>
      </trkpt>
      <trkpt lat="49.27972" lon="-0.25083">
        <ele>6.39</ele>
        <time>2016-08-09T07:19:49Z</time>
      </trkpt>
      <trkpt lat="49.27969" lon="-0.25081">
        <ele>5.91</ele>
        <time>2016-08-09T07:19:50Z</time>
      </trkpt>
      <trkpt lat="49.27967" lon="-0.25078">
        <ele>5.91</ele>
        <time>2016-08-09T07:19:51Z</time>
      </trkpt>
      <trkpt lat="49.27958" lon="-0.25069">
        <ele>5.42</ele>
        <time>2016-08-09T07:19:54Z</time>
      </trkpt>
      <trkpt lat="49.27953" lon="-0.25067">
        <ele>5.42</ele>
        <time>2016-08-09T07:19:55Z</time>
      </trkpt>
      <trkpt lat="49.27949" lon="-0.25066">
        <ele>5.42</ele>
        <time>2016-08-09T07:19:56Z</time>
      </trkpt>
      <trkpt lat="49.27944" lon="-0.25066">
        <ele>5.42</ele>
        <time>2016-08-09T07:19:57Z</time>
      </trkpt>
      <trkpt lat="49.27939" lon="-0.25067">
        <ele>5.42</ele>
        <time>2016-08-09T07:19:58Z</time>
      </trkpt>
      <trkpt lat="49.27934" lon="-0.25069">
        <ele>5.42</ele>
        <time>2016-08-09T07:19:59Z</time>
      </trkpt>
      <trkpt lat="49.27929" lon="-0.25072">
        <ele>5.91</ele>
        <time>2016-08-09T07:20:00Z</time>
      </trkpt>
      <trkpt lat="49.27924" lon="-0.25075">
        <ele>5.42</ele>
        <time>2016-08-09T07:20:01Z</time>
      </trkpt>
      <trkpt lat="49.27919" lon="-0.25078">
        <ele>5.42</ele>
        <time>2016-08-09T07:20:02Z</time>
      </trkpt>
      <trkpt lat="49.27915" lon="-0.25082">
        <ele>5.42</ele>
        <time>2016-08-09T07:20:03Z</time>
      </trkpt>
      <trkpt lat="49.2791" lon="-0.25086">
        <ele>4.94</ele>
        <time>2016-08-09T07:20:04Z</time>
      </trkpt>
      <trkpt lat="49.27905" lon="-0.25086">
        <ele>4.94</ele>
        <time>2016-08-09T07:20:05Z</time>
      </trkpt>
      <trkpt lat="49.279" lon="-0.25083">
        <ele>4.94</ele>
        <time>2016-08-09T07:20:06Z</time>
      </trkpt>
      <trkpt lat="49.27897" lon="-0.25078">
        <ele>4.46</ele>
        <time>2016-08-09T07:20:07Z</time>
      </trkpt>
      <trkpt lat="49.27894" lon="-0.25071">
        <ele>4.94</ele>
        <time>2016-08-09T07:20:08Z</time>
      </trkpt>
      <trkpt lat="49.27893" lon="-0.25062">
        <ele>4.94</ele>
        <time>2016-08-09T07:20:09Z</time>
      </trkpt>
      <trkpt lat="49.27892" lon="-0.25054">
        <ele>4.94</ele>
        <time>2016-08-09T07:20:10Z</time>
      </trkpt>
      <trkpt lat="49.27892" lon="-0.25046">
        <ele>5.42</ele>
        <time>2016-08-09T07:20:11Z</time>
      </trkpt>
      <trkpt lat="49.27893" lon="-0.25039">
        <ele>5.42</ele>
        <time>2016-08-09T07:20:12Z</time>
      </trkpt>
      <trkpt lat="49.27895" lon="-0.25031">
        <ele>5.91</ele>
        <time>2016-08-09T07:20:13Z</time>
      </trkpt>
      <trkpt lat="49.27898" lon="-0.25025">
        <ele>5.91</ele>
        <time>2016-08-09T07:20:14Z</time>
      </trkpt>
      <trkpt lat="49.27902" lon="-0.2502">
        <ele>6.39</ele>
        <time>2016-08-09T07:20:15Z</time>
      </trkpt>
      <trkpt lat="49.27906" lon="-0.25015">
        <ele>6.39</ele>
        <time>2016-08-09T07:20:16Z</time>
      </trkpt>
      <trkpt lat="49.27911" lon="-0.25012">
        <ele>6.39</ele>
        <time>2016-08-09T07:20:17Z</time>
      </trkpt>
      <trkpt lat="49.27917" lon="-0.25011">
        <ele>6.87</ele>
        <time>2016-08-09T07:20:18Z</time>
      </trkpt>
      <trkpt lat="49.27922" lon="-0.2501">
        <ele>6.87</ele>
        <time>2016-08-09T07:20:19Z</time>
      </trkpt>
      <trkpt lat="49.27969" lon="-0.25007">
        <ele>6.87</ele>
        <time>2016-08-09T07:20:30Z</time>
      </trkpt>
      <trkpt lat="49.27981" lon="-0.25046">
        <ele>6.39</ele>
        <time>2016-08-09T07:20:39Z</time>
      </trkpt>
      <trkpt lat="49.27982" lon="-0.25063">
        <ele>5.91</ele>
        <time>2016-08-09T07:20:49Z</time>
      </trkpt>
      <trkpt lat="49.27981" lon="-0.25064">
        <ele>5.91</ele>
        <time>2016-08-09T07:21:04Z</time>
      </trkpt>
      <trkpt lat="49.2798" lon="-0.25071">
        <ele>5.91</ele>
        <time>2016-08-09T07:21:08Z</time>
      </trkpt>
      <trkpt lat="49.27978" lon="-0.25073">
        <ele>5.91</ele>
        <time>2016-08-09T07:21:09Z</time>
      </trkpt>
      <trkpt lat="49.27974" lon="-0.25073">
        <ele>5.91</ele>
        <time>2016-08-09T07:21:10Z</time>
      </trkpt>
      <trkpt lat="49.2797" lon="-0.25071">
        <ele>5.91</ele>
        <time>2016-08-09T07:21:11Z</time>
      </trkpt>
      <trkpt lat="49.27965" lon="-0.25069">
        <ele>6.39</ele>
        <time>2016-08-09T07:21:12Z</time>
      </trkpt>
      <trkpt lat="49.2796" lon="-0.25066">
        <ele>6.39</ele>
        <time>2016-08-09T07:21:13Z</time>
      </trkpt>
      <trkpt lat="49.27949" lon="-0.25062">
        <ele>6.87</ele>
        <time>2016-08-09T07:21:15Z</time>
      </trkpt>
      <trkpt lat="49.27943" lon="-0.25062">
        <ele>6.87</ele>
        <time>2016-08-09T07:21:16Z</time>
      </trkpt>
      <trkpt lat="49.27937" lon="-0.25064">
        <ele>6.87</ele>
        <time>2016-08-09T07:21:17Z</time>
      </trkpt>
      <trkpt lat="49.27932" lon="-0.25067">
        <ele>6.39</ele>
        <time>2016-08-09T07:21:18Z</time>
      </trkpt>
      <trkpt lat="49.27927" lon="-0.25071">
        <ele>6.39</ele>
        <time>2016-08-09T07:21:19Z</time>
      </trkpt>
      <trkpt lat="49.27922" lon="-0.25076">
        <ele>6.87</ele>
        <time>2016-08-09T07:21:20Z</time>
      </trkpt>
      <trkpt lat="49.27918" lon="-0.2508">
        <ele>6.39</ele>
        <time>2016-08-09T07:21:21Z</time>
      </trkpt>
      <trkpt lat="49.27913" lon="-0.25086">
        <ele>6.39</ele>
        <time>2016-08-09T07:21:22Z</time>
      </trkpt>
      <trkpt lat="49.27901" lon="-0.251">
        <ele>5.91</ele>
        <time>2016-08-09T07:21:28Z</time>
      </trkpt>
      <trkpt lat="49.27899" lon="-0.25099">
        <ele>6.39</ele>
        <time>2016-08-09T07:21:29Z</time>
      </trkpt>
      <trkpt lat="49.27898" lon="-0.25097">
        <ele>6.39</ele>
        <time>2016-08-09T07:21:30Z</time>
      </trkpt>
      <trkpt lat="49.27896" lon="-0.25094">
        <ele>6.39</ele>
        <time>2016-08-09T07:21:31Z</time>
      </trkpt>
      <trkpt lat="49.27893" lon="-0.2509">
        <ele>5.91</ele>
        <time>2016-08-09T07:21:32Z</time>
      </trkpt>
      <trkpt lat="49.27891" lon="-0.25085">
        <ele>5.91</ele>
        <time>2016-08-09T07:21:33Z</time>
      </trkpt>
      <trkpt lat="49.27889" lon="-0.25079">
        <ele>5.91</ele>
        <time>2016-08-09T07:21:34Z</time>
      </trkpt>
      <trkpt lat="49.27887" lon="-0.25073">
        <ele>5.91</ele>
        <time>2016-08-09T07:21:35Z</time>
      </trkpt>
      <trkpt lat="49.27886" lon="-0.25066">
        <ele>5.42</ele>
        <time>2016-08-09T07:21:36Z</time>
      </trkpt>
      <trkpt lat="49.27885" lon="-0.25059">
        <ele>5.42</ele>
        <time>2016-08-09T07:21:37Z</time>
      </trkpt>
      <trkpt lat="49.27883" lon="-0.25038">
        <ele>5.42</ele>
        <time>2016-08-09T07:21:40Z</time>
      </trkpt>
      <trkpt lat="49.27881" lon="-0.25032">
        <ele>5.42</ele>
        <time>2016-08-09T07:21:41Z</time>
      </trkpt>
      <trkpt lat="49.27877" lon="-0.25027">
        <ele>5.42</ele>
        <time>2016-08-09T07:21:42Z</time>
      </trkpt>
      <trkpt lat="49.27873" lon="-0.25026">
        <ele>5.42</ele>
        <time>2016-08-09T07:21:43Z</time>
      </trkpt>
      <trkpt lat="49.27868" lon="-0.25027">
        <ele>5.42</ele>
        <time>2016-08-09T07:21:44Z</time>
      </trkpt>
      <trkpt lat="49.27863" lon="-0.25029">
        <ele>5.42</ele>
        <time>2016-08-09T07:21:45Z</time>
      </trkpt>
      <trkpt lat="49.27761" lon="-0.25057">
        <ele>4.94</ele>
        <time>2016-08-09T07:22:02Z</time>
      </trkpt>
      <trkpt lat="49.2766" lon="-0.25084">
        <ele>4.94</ele>
        <time>2016-08-09T07:22:17Z</time>
      </trkpt>
      <trkpt lat="49.27653" lon="-0.25086">
        <ele>4.94</ele>
        <time>2016-08-09T07:22:18Z</time>
      </trkpt>
      <trkpt lat="49.27596" lon="-0.25101">
        <ele>4.46</ele>
        <time>2016-08-09T07:22:26Z</time>
      </trkpt>
      <trkpt lat="49.275" lon="-0.25127">
        <ele>4.94</ele>
        <time>2016-08-09T07:22:39Z</time>
      </trkpt>
      <trkpt lat="49.27377" lon="-0.25164">
        <ele>3.98</ele>
        <time>2016-08-09T07:22:55Z</time>
      </trkpt>
      <trkpt lat="49.27272" lon="-0.25191">
        <ele>4.46</ele>
        <time>2016-08-09T07:23:09Z</time>
      </trkpt>
      <trkpt lat="49.27266" lon="-0.25194">
        <ele>4.46</ele>
        <time>2016-08-09T07:23:10Z</time>
      </trkpt>
      <trkpt lat="49.2726" lon="-0.25199">
        <ele>4.46</ele>
        <time>2016-08-09T07:23:11Z</time>
      </trkpt>
      <trkpt lat="49.27249" lon="-0.25209">
        <ele>4.46</ele>
        <time>2016-08-09T07:23:13Z</time>
      </trkpt>
      <trkpt lat="49.27243" lon="-0.25211">
        <ele>4.94</ele>
        <time>2016-08-09T07:23:14Z</time>
      </trkpt>
      <trkpt lat="49.27236" lon="-0.25211">
        <ele>4.46</ele>
        <time>2016-08-09T07:23:15Z</time>
      </trkpt>
      <trkpt lat="49.2723" lon="-0.25211">
        <ele>4.94</ele>
        <time>2016-08-09T07:23:16Z</time>
      </trkpt>
      <trkpt lat="49.27224" lon="-0.2521">
        <ele>4.46</ele>
        <time>2016-08-09T07:23:17Z</time>
      </trkpt>
      <trkpt lat="49.27218" lon="-0.25211">
        <ele>4.46</ele>
        <time>2016-08-09T07:23:18Z</time>
      </trkpt>
      <trkpt lat="49.27212" lon="-0.25213">
        <ele>4.46</ele>
        <time>2016-08-09T07:23:19Z</time>
      </trkpt>
      <trkpt lat="49.27205" lon="-0.25215">
        <ele>4.46</ele>
        <time>2016-08-09T07:23:20Z</time>
      </trkpt>
      <trkpt lat="49.27178" lon="-0.2522">
        <ele>4.46</ele>
        <time>2016-08-09T07:23:24Z</time>
      </trkpt>
      <trkpt lat="49.27171" lon="-0.2522">
        <ele>4.46</ele>
        <time>2016-08-09T07:23:25Z</time>
      </trkpt>
      <trkpt lat="49.27158" lon="-0.25218">
        <ele>4.46</ele>
        <time>2016-08-09T07:23:27Z</time>
      </trkpt>
      <trkpt lat="49.27151" lon="-0.25219">
        <ele>3.98</ele>
        <time>2016-08-09T07:23:28Z</time>
      </trkpt>
      <trkpt lat="49.27144" lon="-0.25221">
        <ele>3.98</ele>
        <time>2016-08-09T07:23:29Z</time>
      </trkpt>
      <trkpt lat="49.27103" lon="-0.25234">
        <ele>3.5</ele>
        <time>2016-08-09T07:23:35Z</time>
      </trkpt>
      <trkpt lat="49.27096" lon="-0.25233">
        <ele>3.5</ele>
        <time>2016-08-09T07:23:36Z</time>
      </trkpt>
      <trkpt lat="49.27089" lon="-0.2523">
        <ele>3.5</ele>
        <time>2016-08-09T07:23:37Z</time>
      </trkpt>
      <trkpt lat="49.27082" lon="-0.25226">
        <ele>3.5</ele>
        <time>2016-08-09T07:23:38Z</time>
      </trkpt>
      <trkpt lat="49.27075" lon="-0.25222">
        <ele>3.5</ele>
        <time>2016-08-09T07:23:39Z</time>
      </trkpt>
      <trkpt lat="49.27069" lon="-0.25219">
        <ele>3.02</ele>
        <time>2016-08-09T07:23:40Z</time>
      </trkpt>
      <trkpt lat="49.27064" lon="-0.25217">
        <ele>3.02</ele>
        <time>2016-08-09T07:23:41Z</time>
      </trkpt>
      <trkpt lat="49.27059" lon="-0.25218">
        <ele>3.02</ele>
        <time>2016-08-09T07:23:42Z</time>
      </trkpt>
      <trkpt lat="49.27056" lon="-0.25219">
        <ele>3.02</ele>
        <time>2016-08-09T07:23:43Z</time>
      </trkpt>
      <trkpt lat="49.27054" lon="-0.25221">
        <ele>2.54</ele>
        <time>2016-08-09T07:23:44Z</time>
      </trkpt>
      <trkpt lat="49.27051" lon="-0.25223">
        <ele>2.54</ele>
        <time>2016-08-09T07:23:45Z</time>
      </trkpt>
      <trkpt lat="49.27048" lon="-0.25223">
        <ele>2.06</ele>
        <time>2016-08-09T07:23:46Z</time>
      </trkpt>
      <trkpt lat="49.27017" lon="-0.2523">
        <ele>1.1</ele>
        <time>2016-08-09T07:23:51Z</time>
      </trkpt>
      <trkpt lat="49.26912" lon="-0.2526">
        <ele>-1.3</ele>
        <time>2016-08-09T07:24:06Z</time>
      </trkpt>
      <trkpt lat="49.26789" lon="-0.25294">
        <ele>0.62</ele>
        <time>2016-08-09T07:24:24Z</time>
      </trkpt>
      <trkpt lat="49.26699" lon="-0.25319">
        <ele>1.58</ele>
        <time>2016-08-09T07:24:37Z</time>
      </trkpt>
      <trkpt lat="49.26582" lon="-0.25351">
        <ele>2.06</ele>
        <time>2016-08-09T07:24:54Z</time>
      </trkpt>
      <trkpt lat="49.26465" lon="-0.25384">
        <ele>3.5</ele>
        <time>2016-08-09T07:25:11Z</time>
      </trkpt>
      <trkpt lat="49.26344" lon="-0.25435">
        <ele>3.5</ele>
        <time>2016-08-09T07:25:29Z</time>
      </trkpt>
      <trkpt lat="49.2622" lon="-0.25505">
        <ele>3.5</ele>
        <time>2016-08-09T07:25:47Z</time>
      </trkpt>
      <trkpt lat="49.26102" lon="-0.25593">
        <ele>3.02</ele>
        <time>2016-08-09T07:26:04Z</time>
      </trkpt>
      <trkpt lat="49.25986" lon="-0.25692">
        <ele>3.98</ele>
        <time>2016-08-09T07:26:22Z</time>
      </trkpt>
      <trkpt lat="49.25877" lon="-0.25802">
        <ele>4.46</ele>
        <time>2016-08-09T07:26:40Z</time>
      </trkpt>
      <trkpt lat="49.25804" lon="-0.25911">
        <ele>4.46</ele>
        <time>2016-08-09T07:26:54Z</time>
      </trkpt>
      <trkpt lat="49.25742" lon="-0.26056">
        <ele>4.46</ele>
        <time>2016-08-09T07:27:10Z</time>
      </trkpt>
      <trkpt lat="49.25686" lon="-0.2622">
        <ele>3.98</ele>
        <time>2016-08-09T07:27:27Z</time>
      </trkpt>
      <trkpt lat="49.25629" lon="-0.26357">
        <ele>3.5</ele>
        <time>2016-08-09T07:27:42Z</time>
      </trkpt>
      <trkpt lat="49.25566" lon="-0.26468">
        <ele>3.02</ele>
        <time>2016-08-09T07:27:56Z</time>
      </trkpt>
      <trkpt lat="49.25477" lon="-0.26584">
        <ele>3.5</ele>
        <time>2016-08-09T07:28:13Z</time>
      </trkpt>
      <trkpt lat="49.25372" lon="-0.26685">
        <ele>4.94</ele>
        <time>2016-08-09T07:28:31Z</time>
      </trkpt>
      <trkpt lat="49.25271" lon="-0.26763">
        <ele>4.46</ele>
        <time>2016-08-09T07:28:47Z</time>
      </trkpt>
      <trkpt lat="49.25151" lon="-0.26855">
        <ele>3.5</ele>
        <time>2016-08-09T07:29:06Z</time>
      </trkpt>
      <trkpt lat="49.25034" lon="-0.26943">
        <ele>2.06</ele>
        <time>2016-08-09T07:29:24Z</time>
      </trkpt>
      <trkpt lat="49.24902" lon="-0.27043">
        <ele>2.54</ele>
        <time>2016-08-09T07:29:44Z</time>
      </trkpt>
      <trkpt lat="49.24758" lon="-0.27154">
        <ele>2.06</ele>
        <time>2016-08-09T07:30:06Z</time>
      </trkpt>
      <trkpt lat="49.24646" lon="-0.27224">
        <ele>2.06</ele>
        <time>2016-08-09T07:30:23Z</time>
      </trkpt>
      <trkpt lat="49.24564" lon="-0.27288">
        <ele>3.5</ele>
        <time>2016-08-09T07:30:36Z</time>
      </trkpt>
      <trkpt lat="49.24451" lon="-0.2737">
        <ele>3.98</ele>
        <time>2016-08-09T07:30:54Z</time>
      </trkpt>
      <trkpt lat="49.2435" lon="-0.27439">
        <ele>4.46</ele>
        <time>2016-08-09T07:31:11Z</time>
      </trkpt>
      <trkpt lat="49.2434" lon="-0.27446">
        <ele>3.98</ele>
        <time>2016-08-09T07:31:18Z</time>
      </trkpt>
      <trkpt lat="49.24329" lon="-0.27448">
        <ele>4.46</ele>
        <time>2016-08-09T07:31:43Z</time>
      </trkpt>
      <trkpt lat="49.24326" lon="-0.27448">
        <ele>4.46</ele>
        <time>2016-08-09T07:31:44Z</time>
      </trkpt>
      <trkpt lat="49.24306" lon="-0.27452">
        <ele>4.46</ele>
        <time>2016-08-09T07:31:48Z</time>
      </trkpt>
      <trkpt lat="49.24287" lon="-0.2746">
        <ele>4.94</ele>
        <time>2016-08-09T07:31:52Z</time>
      </trkpt>
      <trkpt lat="49.24284" lon="-0.27463">
        <ele>4.94</ele>
        <time>2016-08-09T07:31:53Z</time>
      </trkpt>
      <trkpt lat="49.24281" lon="-0.27465">
        <ele>4.94</ele>
        <time>2016-08-09T07:31:54Z</time>
      </trkpt>
      <trkpt lat="49.24279" lon="-0.27466">
        <ele>5.42</ele>
        <time>2016-08-09T07:31:55Z</time>
      </trkpt>
      <trkpt lat="49.24276" lon="-0.27465">
        <ele>5.42</ele>
        <time>2016-08-09T07:31:56Z</time>
      </trkpt>
      <trkpt lat="49.24275" lon="-0.27466">
        <ele>5.91</ele>
        <time>2016-08-09T07:31:57Z</time>
      </trkpt>
      <trkpt lat="49.24273" lon="-0.27469">
        <ele>5.91</ele>
        <time>2016-08-09T07:31:58Z</time>
      </trkpt>
      <trkpt lat="49.24263" lon="-0.27483">
        <ele>5.91</ele>
        <time>2016-08-09T07:32:09Z</time>
      </trkpt>
      <trkpt lat="49.24262" lon="-0.27484">
        <ele>5.42</ele>
        <time>2016-08-09T07:32:15Z</time>
      </trkpt>
      <trkpt lat="49.24262" lon="-0.27486">
        <ele>5.42</ele>
        <time>2016-08-09T07:32:16Z</time>
      </trkpt>
      <trkpt lat="49.2426" lon="-0.27488">
        <ele>5.42</ele>
        <time>2016-08-09T07:32:19Z</time>
      </trkpt>
      <trkpt lat="49.24258" lon="-0.27489">
        <ele>5.91</ele>
        <time>2016-08-09T07:32:20Z</time>
      </trkpt>
      <trkpt lat="49.24256" lon="-0.27489">
        <ele>5.91</ele>
        <time>2016-08-09T07:32:21Z</time>
      </trkpt>
      <trkpt lat="49.24246" lon="-0.27484">
        <ele>5.42</ele>
        <time>2016-08-09T07:32:29Z</time>
      </trkpt>
      <trkpt lat="49.24243" lon="-0.27486">
        <ele>4.94</ele>
        <time>2016-08-09T07:32:30Z</time>
      </trkpt>
      <trkpt lat="49.2424" lon="-0.2749">
        <ele>4.94</ele>
        <time>2016-08-09T07:32:31Z</time>
      </trkpt>
      <trkpt lat="49.24237" lon="-0.27492">
        <ele>4.94</ele>
        <time>2016-08-09T07:32:32Z</time>
      </trkpt>
      <trkpt lat="49.24232" lon="-0.27496">
        <ele>4.46</ele>
        <time>2016-08-09T07:32:33Z</time>
      </trkpt>
      <trkpt lat="49.24228" lon="-0.275">
        <ele>4.46</ele>
        <time>2016-08-09T07:32:34Z</time>
      </trkpt>
      <trkpt lat="49.24212" lon="-0.27514">
        <ele>3.98</ele>
        <time>2016-08-09T07:32:37Z</time>
      </trkpt>
      <trkpt lat="49.24206" lon="-0.2752">
        <ele>3.98</ele>
        <time>2016-08-09T07:32:38Z</time>
      </trkpt>
      <trkpt lat="49.242" lon="-0.27527">
        <ele>3.98</ele>
        <time>2016-08-09T07:32:39Z</time>
      </trkpt>
      <trkpt lat="49.2412" lon="-0.27613">
        <ele>3.02</ele>
        <time>2016-08-09T07:32:53Z</time>
      </trkpt>
      <trkpt lat="49.24008" lon="-0.27696">
        <ele>3.02</ele>
        <time>2016-08-09T07:33:10Z</time>
      </trkpt>
      <trkpt lat="49.2391" lon="-0.27769">
        <ele>3.02</ele>
        <time>2016-08-09T07:33:25Z</time>
      </trkpt>
      <trkpt lat="49.23817" lon="-0.27841">
        <ele>2.54</ele>
        <time>2016-08-09T07:33:40Z</time>
      </trkpt>
      <trkpt lat="49.23802" lon="-0.27852">
        <ele>2.54</ele>
        <time>2016-08-09T07:33:47Z</time>
      </trkpt>
      <trkpt lat="49.23799" lon="-0.27852">
        <ele>3.98</ele>
        <time>2016-08-09T07:34:00Z</time>
      </trkpt>
      <trkpt lat="49.23797" lon="-0.27854">
        <ele>3.98</ele>
        <time>2016-08-09T07:34:01Z</time>
      </trkpt>
      <trkpt lat="49.23788" lon="-0.27861">
        <ele>4.46</ele>
        <time>2016-08-09T07:34:04Z</time>
      </trkpt>
      <trkpt lat="49.23732" lon="-0.27906">
        <ele>3.98</ele>
        <time>2016-08-09T07:34:15Z</time>
      </trkpt>
      <trkpt lat="49.23648" lon="-0.2798">
        <ele>3.02</ele>
        <time>2016-08-09T07:34:31Z</time>
      </trkpt>
      <trkpt lat="49.23549" lon="-0.28088">
        <ele>3.98</ele>
        <time>2016-08-09T07:34:49Z</time>
      </trkpt>
      <trkpt lat="49.23465" lon="-0.28178">
        <ele>4.46</ele>
        <time>2016-08-09T07:35:04Z</time>
      </trkpt>
      <trkpt lat="49.2339" lon="-0.28289">
        <ele>4.94</ele>
        <time>2016-08-09T07:35:19Z</time>
      </trkpt>
      <trkpt lat="49.23316" lon="-0.28413">
        <ele>4.94</ele>
        <time>2016-08-09T07:35:35Z</time>
      </trkpt>
      <trkpt lat="49.23244" lon="-0.28537">
        <ele>4.46</ele>
        <time>2016-08-09T07:35:50Z</time>
      </trkpt>
      <trkpt lat="49.23159" lon="-0.28699">
        <ele>5.42</ele>
        <time>2016-08-09T07:36:09Z</time>
      </trkpt>
      <trkpt lat="49.23103" lon="-0.28811">
        <ele>5.42</ele>
        <time>2016-08-09T07:36:22Z</time>
      </trkpt>
      <trkpt lat="49.2303" lon="-0.28956">
        <ele>4.94</ele>
        <time>2016-08-09T07:36:39Z</time>
      </trkpt>
      <trkpt lat="49.2296" lon="-0.29094">
        <ele>4.46</ele>
        <time>2016-08-09T07:36:55Z</time>
      </trkpt>
      <trkpt lat="49.2289" lon="-0.29229">
        <ele>6.39</ele>
        <time>2016-08-09T07:37:11Z</time>
      </trkpt>
      <trkpt lat="49.22812" lon="-0.29384">
        <ele>5.91</ele>
        <time>2016-08-09T07:37:29Z</time>
      </trkpt>
      <trkpt lat="49.2275" lon="-0.29502">
        <ele>6.39</ele>
        <time>2016-08-09T07:37:43Z</time>
      </trkpt>
      <trkpt lat="49.22681" lon="-0.29639">
        <ele>6.39</ele>
        <time>2016-08-09T07:37:59Z</time>
      </trkpt>
      <trkpt lat="49.22611" lon="-0.29779">
        <ele>5.42</ele>
        <time>2016-08-09T07:38:15Z</time>
      </trkpt>
      <trkpt lat="49.22532" lon="-0.29933">
        <ele>4.94</ele>
        <time>2016-08-09T07:38:33Z</time>
      </trkpt>
      <trkpt lat="49.22458" lon="-0.30082">
        <ele>4.46</ele>
        <time>2016-08-09T07:38:50Z</time>
      </trkpt>
      <trkpt lat="49.22445" lon="-0.30111">
        <ele>4.46</ele>
        <time>2016-08-09T07:38:57Z</time>
      </trkpt>
      <trkpt lat="49.22443" lon="-0.30115">
        <ele>4.94</ele>
        <time>2016-08-09T07:38:58Z</time>
      </trkpt>
      <trkpt lat="49.2244" lon="-0.30118">
        <ele>4.94</ele>
        <time>2016-08-09T07:38:59Z</time>
      </trkpt>
      <trkpt lat="49.22433" lon="-0.30128">
        <ele>4.94</ele>
        <time>2016-08-09T07:39:01Z</time>
      </trkpt>
      <trkpt lat="49.22387" lon="-0.30218">
        <ele>4.94</ele>
        <time>2016-08-09T07:39:12Z</time>
      </trkpt>
      <trkpt lat="49.22313" lon="-0.30361">
        <ele>5.91</ele>
        <time>2016-08-09T07:39:28Z</time>
      </trkpt>
      <trkpt lat="49.22239" lon="-0.30487">
        <ele>5.42</ele>
        <time>2016-08-09T07:39:42Z</time>
      </trkpt>
      <trkpt lat="49.22136" lon="-0.30612">
        <ele>4.94</ele>
        <time>2016-08-09T07:39:59Z</time>
      </trkpt>
      <trkpt lat="49.22026" lon="-0.30701">
        <ele>3.5</ele>
        <time>2016-08-09T07:40:15Z</time>
      </trkpt>
      <trkpt lat="49.21889" lon="-0.30783">
        <ele>3.5</ele>
        <time>2016-08-09T07:40:34Z</time>
      </trkpt>
      <trkpt lat="49.21768" lon="-0.30856">
        <ele>2.06</ele>
        <time>2016-08-09T07:40:52Z</time>
      </trkpt>
      <trkpt lat="49.21748" lon="-0.30868">
        <ele>2.06</ele>
        <time>2016-08-09T07:40:55Z</time>
      </trkpt>
      <trkpt lat="49.21647" lon="-0.3093">
        <ele>1.58</ele>
        <time>2016-08-09T07:41:11Z</time>
      </trkpt>
      <trkpt lat="49.21547" lon="-0.30992">
        <ele>3.98</ele>
        <time>2016-08-09T07:41:29Z</time>
      </trkpt>
      <trkpt lat="49.21459" lon="-0.31045">
        <ele>3.98</ele>
        <time>2016-08-09T07:41:45Z</time>
      </trkpt>
      <trkpt lat="49.21374" lon="-0.31097">
        <ele>3.02</ele>
        <time>2016-08-09T07:41:59Z</time>
      </trkpt>
      <trkpt lat="49.21332" lon="-0.31122">
        <ele>3.98</ele>
        <time>2016-08-09T07:42:06Z</time>
      </trkpt>
      <trkpt lat="49.21326" lon="-0.31127">
        <ele>3.5</ele>
        <time>2016-08-09T07:42:07Z</time>
      </trkpt>
      <trkpt lat="49.21321" lon="-0.31134">
        <ele>3.5</ele>
        <time>2016-08-09T07:42:08Z</time>
      </trkpt>
      <trkpt lat="49.21316" lon="-0.3114">
        <ele>3.02</ele>
        <time>2016-08-09T07:42:09Z</time>
      </trkpt>
      <trkpt lat="49.2131" lon="-0.31145">
        <ele>3.5</ele>
        <time>2016-08-09T07:42:10Z</time>
      </trkpt>
      <trkpt lat="49.21304" lon="-0.31149">
        <ele>3.5</ele>
        <time>2016-08-09T07:42:11Z</time>
      </trkpt>
      <trkpt lat="49.21297" lon="-0.31151">
        <ele>3.02</ele>
        <time>2016-08-09T07:42:12Z</time>
      </trkpt>
      <trkpt lat="49.21291" lon="-0.31153">
        <ele>3.02</ele>
        <time>2016-08-09T07:42:13Z</time>
      </trkpt>
      <trkpt lat="49.21284" lon="-0.31155">
        <ele>3.02</ele>
        <time>2016-08-09T07:42:14Z</time>
      </trkpt>
      <trkpt lat="49.21195" lon="-0.31204">
        <ele>3.02</ele>
        <time>2016-08-09T07:42:28Z</time>
      </trkpt>
      <trkpt lat="49.21106" lon="-0.31258">
        <ele>2.54</ele>
        <time>2016-08-09T07:42:42Z</time>
      </trkpt>
      <trkpt lat="49.20983" lon="-0.31331">
        <ele>3.98</ele>
        <time>2016-08-09T07:43:00Z</time>
      </trkpt>
      <trkpt lat="49.20856" lon="-0.31407">
        <ele>3.98</ele>
        <time>2016-08-09T07:43:19Z</time>
      </trkpt>
      <trkpt lat="49.20739" lon="-0.31479">
        <ele>3.98</ele>
        <time>2016-08-09T07:43:37Z</time>
      </trkpt>
      <trkpt lat="49.20691" lon="-0.31509">
        <ele>4.46</ele>
        <time>2016-08-09T07:43:46Z</time>
      </trkpt>
      <trkpt lat="49.20687" lon="-0.31514">
        <ele>4.46</ele>
        <time>2016-08-09T07:43:47Z</time>
      </trkpt>
      <trkpt lat="49.20685" lon="-0.31521">
        <ele>4.46</ele>
        <time>2016-08-09T07:43:48Z</time>
      </trkpt>
      <trkpt lat="49.20685" lon="-0.31529">
        <ele>3.98</ele>
        <time>2016-08-09T07:43:49Z</time>
      </trkpt>
      <trkpt lat="49.20686" lon="-0.31536">
        <ele>3.98</ele>
        <time>2016-08-09T07:43:50Z</time>
      </trkpt>
      <trkpt lat="49.20688" lon="-0.31541">
        <ele>3.98</ele>
        <time>2016-08-09T07:43:51Z</time>
      </trkpt>
      <trkpt lat="49.2069" lon="-0.31545">
        <ele>3.98</ele>
        <time>2016-08-09T07:43:52Z</time>
      </trkpt>
      <trkpt lat="49.20694" lon="-0.31562">
        <ele>4.46</ele>
        <time>2016-08-09T07:43:59Z</time>
      </trkpt>
      <trkpt lat="49.20693" lon="-0.31564">
        <ele>4.46</ele>
        <time>2016-08-09T07:44:00Z</time>
      </trkpt>
      <trkpt lat="49.20692" lon="-0.31566">
        <ele>4.46</ele>
        <time>2016-08-09T07:44:01Z</time>
      </trkpt>
      <trkpt lat="49.20691" lon="-0.31566">
        <ele>4.46</ele>
        <time>2016-08-09T07:44:02Z</time>
      </trkpt>
      <trkpt lat="49.20689" lon="-0.31565">
        <ele>4.46</ele>
        <time>2016-08-09T07:44:03Z</time>
      </trkpt>
      <trkpt lat="49.20686" lon="-0.31565">
        <ele>4.46</ele>
        <time>2016-08-09T07:44:04Z</time>
      </trkpt>
      <trkpt lat="49.20684" lon="-0.31565">
        <ele>4.46</ele>
        <time>2016-08-09T07:44:05Z</time>
      </trkpt>
      <trkpt lat="49.20681" lon="-0.31566">
        <ele>4.46</ele>
        <time>2016-08-09T07:44:06Z</time>
      </trkpt>
      <trkpt lat="49.20679" lon="-0.31567">
        <ele>4.46</ele>
        <time>2016-08-09T07:44:07Z</time>
      </trkpt>
      <trkpt lat="49.20644" lon="-0.3159">
        <ele>4.94</ele>
        <time>2016-08-09T07:44:16Z</time>
      </trkpt>
      <trkpt lat="49.2064" lon="-0.31593">
        <ele>4.46</ele>
        <time>2016-08-09T07:44:17Z</time>
      </trkpt>
      <trkpt lat="49.20636" lon="-0.31592">
        <ele>4.46</ele>
        <time>2016-08-09T07:44:18Z</time>
      </trkpt>
      <trkpt lat="49.20634" lon="-0.31588">
        <ele>4.46</ele>
        <time>2016-08-09T07:44:19Z</time>
      </trkpt>
      <trkpt lat="49.20632" lon="-0.31583">
        <ele>3.98</ele>
        <time>2016-08-09T07:44:20Z</time>
      </trkpt>
      <trkpt lat="49.20631" lon="-0.31577">
        <ele>3.5</ele>
        <time>2016-08-09T07:44:21Z</time>
      </trkpt>
      <trkpt lat="49.20628" lon="-0.31566">
        <ele>3.02</ele>
        <time>2016-08-09T07:44:23Z</time>
      </trkpt>
      <trkpt lat="49.20625" lon="-0.31564">
        <ele>2.54</ele>
        <time>2016-08-09T07:44:24Z</time>
      </trkpt>
      <trkpt lat="49.20622" lon="-0.31564">
        <ele>2.06</ele>
        <time>2016-08-09T07:44:25Z</time>
      </trkpt>
      <trkpt lat="49.20619" lon="-0.31564">
        <ele>2.06</ele>
        <time>2016-08-09T07:44:26Z</time>
      </trkpt>
      <trkpt lat="49.20616" lon="-0.31563">
        <ele>2.06</ele>
        <time>2016-08-09T07:44:27Z</time>
      </trkpt>
      <trkpt lat="49.20612" lon="-0.3156">
        <ele>2.06</ele>
        <time>2016-08-09T07:44:28Z</time>
      </trkpt>
      <trkpt lat="49.20608" lon="-0.31559">
        <ele>2.06</ele>
        <time>2016-08-09T07:44:29Z</time>
      </trkpt>
      <trkpt lat="49.20603" lon="-0.3156">
        <ele>1.58</ele>
        <time>2016-08-09T07:44:30Z</time>
      </trkpt>
      <trkpt lat="49.20599" lon="-0.31563">
        <ele>1.58</ele>
        <time>2016-08-09T07:44:31Z</time>
      </trkpt>
      <trkpt lat="49.20595" lon="-0.31566">
        <ele>1.1</ele>
        <time>2016-08-09T07:44:32Z</time>
      </trkpt>
      <trkpt lat="49.2059" lon="-0.3157">
        <ele>1.1</ele>
        <time>2016-08-09T07:44:33Z</time>
      </trkpt>
      <trkpt lat="49.20586" lon="-0.31573">
        <ele>0.62</ele>
        <time>2016-08-09T07:44:34Z</time>
      </trkpt>
      <trkpt lat="49.20571" lon="-0.31582">
        <ele>0.14</ele>
        <time>2016-08-09T07:44:37Z</time>
      </trkpt>
      <trkpt lat="49.20496" lon="-0.31627">
        <ele>-1.3</ele>
        <time>2016-08-09T07:44:51Z</time>
      </trkpt>
      <trkpt lat="49.2045" lon="-0.31655">
        <ele>-2.27</ele>
        <time>2016-08-09T07:44:59Z</time>
      </trkpt>
      <trkpt lat="49.20362" lon="-0.31707">
        <ele>-1.3</ele>
        <time>2016-08-09T07:45:14Z</time>
      </trkpt>
      <trkpt lat="49.20292" lon="-0.31757">
        <ele>-2.27</ele>
        <time>2016-08-09T07:45:26Z</time>
      </trkpt>
      <trkpt lat="49.20285" lon="-0.31759">
        <ele>-2.27</ele>
        <time>2016-08-09T07:45:27Z</time>
      </trkpt>
      <trkpt lat="49.2026" lon="-0.31771">
        <ele>-3.23</ele>
        <time>2016-08-09T07:45:31Z</time>
      </trkpt>
      <trkpt lat="49.20184" lon="-0.3182">
        <ele>-4.19</ele>
        <time>2016-08-09T07:45:44Z</time>
      </trkpt>
      <trkpt lat="49.20087" lon="-0.31874">
        <ele>0.62</ele>
        <time>2016-08-09T07:46:00Z</time>
      </trkpt>
      <trkpt lat="49.19991" lon="-0.31933">
        <ele>1.58</ele>
        <time>2016-08-09T07:46:16Z</time>
      </trkpt>
      <trkpt lat="49.19901" lon="-0.31986">
        <ele>3.02</ele>
        <time>2016-08-09T07:46:32Z</time>
      </trkpt>
      <trkpt lat="49.19798" lon="-0.32048">
        <ele>2.06</ele>
        <time>2016-08-09T07:46:49Z</time>
      </trkpt>
      <trkpt lat="49.19772" lon="-0.32065">
        <ele>2.06</ele>
        <time>2016-08-09T07:46:53Z</time>
      </trkpt>
      <trkpt lat="49.19766" lon="-0.3207">
        <ele>2.06</ele>
        <time>2016-08-09T07:46:54Z</time>
      </trkpt>
      <trkpt lat="49.19754" lon="-0.32082">
        <ele>2.54</ele>
        <time>2016-08-09T07:46:56Z</time>
      </trkpt>
      <trkpt lat="49.19747" lon="-0.32087">
        <ele>2.54</ele>
        <time>2016-08-09T07:46:57Z</time>
      </trkpt>
      <trkpt lat="49.1974" lon="-0.32089">
        <ele>2.54</ele>
        <time>2016-08-09T07:46:58Z</time>
      </trkpt>
      <trkpt lat="49.19644" lon="-0.32142">
        <ele>1.58</ele>
        <time>2016-08-09T07:47:12Z</time>
      </trkpt>
      <trkpt lat="49.19541" lon="-0.32204">
        <ele>1.58</ele>
        <time>2016-08-09T07:47:27Z</time>
      </trkpt>
      <trkpt lat="49.19458" lon="-0.32254">
        <ele>1.58</ele>
        <time>2016-08-09T07:47:39Z</time>
      </trkpt>
      <trkpt lat="49.1939" lon="-0.32302">
        <ele>2.06</ele>
        <time>2016-08-09T07:47:49Z</time>
      </trkpt>
      <trkpt lat="49.19383" lon="-0.32305">
        <ele>2.06</ele>
        <time>2016-08-09T07:47:50Z</time>
      </trkpt>
      <trkpt lat="49.19376" lon="-0.32308">
        <ele>2.06</ele>
        <time>2016-08-09T07:47:51Z</time>
      </trkpt>
      <trkpt lat="49.19354" lon="-0.32316">
        <ele>2.54</ele>
        <time>2016-08-09T07:47:54Z</time>
      </trkpt>
      <trkpt lat="49.19347" lon="-0.32321">
        <ele>2.54</ele>
        <time>2016-08-09T07:47:55Z</time>
      </trkpt>
      <trkpt lat="49.19246" lon="-0.32382">
        <ele>4.94</ele>
        <time>2016-08-09T07:48:10Z</time>
      </trkpt>
      <trkpt lat="49.19147" lon="-0.32444">
        <ele>3.98</ele>
        <time>2016-08-09T07:48:26Z</time>
      </trkpt>
      <trkpt lat="49.1912" lon="-0.32461">
        <ele>3.02</ele>
        <time>2016-08-09T07:48:31Z</time>
      </trkpt>
      <trkpt lat="49.19115" lon="-0.32464">
        <ele>3.02</ele>
        <time>2016-08-09T07:48:32Z</time>
      </trkpt>
      <trkpt lat="49.19111" lon="-0.32468">
        <ele>3.02</ele>
        <time>2016-08-09T07:48:33Z</time>
      </trkpt>
      <trkpt lat="49.19106" lon="-0.32471">
        <ele>3.02</ele>
        <time>2016-08-09T07:48:34Z</time>
      </trkpt>
      <trkpt lat="49.19101" lon="-0.32475">
        <ele>3.5</ele>
        <time>2016-08-09T07:48:35Z</time>
      </trkpt>
      <trkpt lat="49.19096" lon="-0.32479">
        <ele>3.5</ele>
        <time>2016-08-09T07:48:36Z</time>
      </trkpt>
      <trkpt lat="49.19035" lon="-0.32528">
        <ele>2.54</ele>
        <time>2016-08-09T07:48:49Z</time>
      </trkpt>
      <trkpt lat="49.18983" lon="-0.32574">
        <ele>3.98</ele>
        <time>2016-08-09T07:49:00Z</time>
      </trkpt>
      <trkpt lat="49.18964" lon="-0.32591">
        <ele>3.98</ele>
        <time>2016-08-09T07:49:04Z</time>
      </trkpt>
      <trkpt lat="49.1896" lon="-0.32597">
        <ele>3.98</ele>
        <time>2016-08-09T07:49:05Z</time>
      </trkpt>
      <trkpt lat="49.18956" lon="-0.32602">
        <ele>3.98</ele>
        <time>2016-08-09T07:49:06Z</time>
      </trkpt>
      <trkpt lat="49.18952" lon="-0.32607">
        <ele>3.98</ele>
        <time>2016-08-09T07:49:07Z</time>
      </trkpt>
      <trkpt lat="49.18947" lon="-0.32611">
        <ele>3.98</ele>
        <time>2016-08-09T07:49:08Z</time>
      </trkpt>
      <trkpt lat="49.18902" lon="-0.32659">
        <ele>3.98</ele>
        <time>2016-08-09T07:49:19Z</time>
      </trkpt>
      <trkpt lat="49.1886" lon="-0.32711">
        <ele>3.98</ele>
        <time>2016-08-09T07:49:31Z</time>
      </trkpt>
      <trkpt lat="49.18807" lon="-0.32783">
        <ele>4.46</ele>
        <time>2016-08-09T07:49:45Z</time>
      </trkpt>
      <trkpt lat="49.18771" lon="-0.32838">
        <ele>4.46</ele>
        <time>2016-08-09T07:49:54Z</time>
      </trkpt>
      <trkpt lat="49.18752" lon="-0.32867">
        <ele>4.94</ele>
        <time>2016-08-09T07:50:00Z</time>
      </trkpt>
      <trkpt lat="49.18748" lon="-0.3287">
        <ele>4.94</ele>
        <time>2016-08-09T07:50:02Z</time>
      </trkpt>
      <trkpt lat="49.18748" lon="-0.32871">
        <ele>4.94</ele>
        <time>2016-08-09T07:50:03Z</time>
      </trkpt>
      <trkpt lat="49.18749" lon="-0.32871">
        <ele>4.94</ele>
        <time>2016-08-09T07:50:04Z</time>
      </trkpt>
      <trkpt lat="49.1875" lon="-0.3287">
        <ele>4.94</ele>
        <time>2016-08-09T07:50:05Z</time>
      </trkpt>
      <trkpt lat="49.18766" lon="-0.32842">
        <ele>5.42</ele>
        <time>2016-08-09T07:50:15Z</time>
      </trkpt>
      <trkpt lat="49.18775" lon="-0.32831">
        <ele>5.42</ele>
        <time>2016-08-09T07:50:19Z</time>
      </trkpt>
      <trkpt lat="49.18777" lon="-0.3283">
        <ele>5.42</ele>
        <time>2016-08-09T07:50:22Z</time>
      </trkpt>
      <trkpt lat="49.18779" lon="-0.32831">
        <ele>5.91</ele>
        <time>2016-08-09T07:50:36Z</time>
      </trkpt>
      <trkpt lat="49.18776" lon="-0.32833">
        <ele>6.39</ele>
        <time>2016-08-09T07:50:54Z</time>
      </trkpt>
      <trkpt lat="49.18775" lon="-0.32834">
        <ele>6.39</ele>
        <time>2016-08-09T07:50:55Z</time>
      </trkpt>
      <trkpt lat="49.18774" lon="-0.32835">
        <ele>6.39</ele>
        <time>2016-08-09T07:50:56Z</time>
      </trkpt>
      <trkpt lat="49.18772" lon="-0.32837">
        <ele>6.39</ele>
        <time>2016-08-09T07:50:57Z</time>
      </trkpt>
      <trkpt lat="49.18771" lon="-0.3284">
        <ele>6.39</ele>
        <time>2016-08-09T07:50:58Z</time>
      </trkpt>
      <trkpt lat="49.18754" lon="-0.32864">
        <ele>6.39</ele>
        <time>2016-08-09T07:51:03Z</time>
      </trkpt>
      <trkpt lat="49.18751" lon="-0.3287">
        <ele>6.39</ele>
        <time>2016-08-09T07:51:04Z</time>
      </trkpt>
      <trkpt lat="49.18684" lon="-0.33002">
        <ele>5.91</ele>
        <time>2016-08-09T07:51:22Z</time>
      </trkpt>
      <trkpt lat="49.18671" lon="-0.33027">
        <ele>5.42</ele>
        <time>2016-08-09T07:51:26Z</time>
      </trkpt>
      <trkpt lat="49.18667" lon="-0.33031">
        <ele>5.42</ele>
        <time>2016-08-09T07:51:27Z</time>
      </trkpt>
      <trkpt lat="49.18664" lon="-0.33034">
        <ele>4.94</ele>
        <time>2016-08-09T07:51:28Z</time>
      </trkpt>
      <trkpt lat="49.18661" lon="-0.3304">
        <ele>4.94</ele>
        <time>2016-08-09T07:51:29Z</time>
      </trkpt>
      <trkpt lat="49.18658" lon="-0.33046">
        <ele>4.94</ele>
        <time>2016-08-09T07:51:30Z</time>
      </trkpt>
      <trkpt lat="49.18632" lon="-0.33102">
        <ele>3.5</ele>
        <time>2016-08-09T07:51:38Z</time>
      </trkpt>
      <trkpt lat="49.18629" lon="-0.33111">
        <ele>3.02</ele>
        <time>2016-08-09T07:51:39Z</time>
      </trkpt>
      <trkpt lat="49.18625" lon="-0.3312">
        <ele>3.02</ele>
        <time>2016-08-09T07:51:40Z</time>
      </trkpt>
      <trkpt lat="49.18577" lon="-0.33239">
        <ele>2.54</ele>
        <time>2016-08-09T07:51:54Z</time>
      </trkpt>
      <trkpt lat="49.18563" lon="-0.33283">
        <ele>3.5</ele>
        <time>2016-08-09T07:51:59Z</time>
      </trkpt>
      <trkpt lat="49.1856" lon="-0.33301">
        <ele>3.5</ele>
        <time>2016-08-09T07:52:01Z</time>
      </trkpt>
      <trkpt lat="49.18555" lon="-0.33318">
        <ele>3.5</ele>
        <time>2016-08-09T07:52:03Z</time>
      </trkpt>
      <trkpt lat="49.18553" lon="-0.33326">
        <ele>3.02</ele>
        <time>2016-08-09T07:52:04Z</time>
      </trkpt>
      <trkpt lat="49.18551" lon="-0.33335">
        <ele>3.02</ele>
        <time>2016-08-09T07:52:05Z</time>
      </trkpt>
      <trkpt lat="49.18547" lon="-0.33351">
        <ele>3.02</ele>
        <time>2016-08-09T07:52:07Z</time>
      </trkpt>
      <trkpt lat="49.18544" lon="-0.33357">
        <ele>3.02</ele>
        <time>2016-08-09T07:52:08Z</time>
      </trkpt>
      <trkpt lat="49.18541" lon="-0.33364">
        <ele>3.02</ele>
        <time>2016-08-09T07:52:09Z</time>
      </trkpt>
      <trkpt lat="49.18539" lon="-0.33372">
        <ele>3.02</ele>
        <time>2016-08-09T07:52:10Z</time>
      </trkpt>
      <trkpt lat="49.18538" lon="-0.33381">
        <ele>3.02</ele>
        <time>2016-08-09T07:52:11Z</time>
      </trkpt>
      <trkpt lat="49.18536" lon="-0.3339">
        <ele>3.02</ele>
        <time>2016-08-09T07:52:12Z</time>
      </trkpt>
      <trkpt lat="49.18533" lon="-0.33398">
        <ele>3.02</ele>
        <time>2016-08-09T07:52:13Z</time>
      </trkpt>
      <trkpt lat="49.18528" lon="-0.33414">
        <ele>3.5</ele>
        <time>2016-08-09T07:52:15Z</time>
      </trkpt>
      <trkpt lat="49.18525" lon="-0.33422">
        <ele>3.5</ele>
        <time>2016-08-09T07:52:16Z</time>
      </trkpt>
      <trkpt lat="49.18523" lon="-0.33429">
        <ele>3.5</ele>
        <time>2016-08-09T07:52:17Z</time>
      </trkpt>
      <trkpt lat="49.18521" lon="-0.33435">
        <ele>3.5</ele>
        <time>2016-08-09T07:52:18Z</time>
      </trkpt>
      <trkpt lat="49.1852" lon="-0.33443">
        <ele>3.98</ele>
        <time>2016-08-09T07:52:19Z</time>
      </trkpt>
      <trkpt lat="49.18516" lon="-0.33457">
        <ele>3.98</ele>
        <time>2016-08-09T07:52:21Z</time>
      </trkpt>
      <trkpt lat="49.18513" lon="-0.33463">
        <ele>3.98</ele>
        <time>2016-08-09T07:52:22Z</time>
      </trkpt>
      <trkpt lat="49.18509" lon="-0.33469">
        <ele>3.5</ele>
        <time>2016-08-09T07:52:23Z</time>
      </trkpt>
      <trkpt lat="49.18507" lon="-0.33476">
        <ele>3.5</ele>
        <time>2016-08-09T07:52:24Z</time>
      </trkpt>
      <trkpt lat="49.18504" lon="-0.33484">
        <ele>3.5</ele>
        <time>2016-08-09T07:52:25Z</time>
      </trkpt>
      <trkpt lat="49.18502" lon="-0.33493">
        <ele>3.5</ele>
        <time>2016-08-09T07:52:26Z</time>
      </trkpt>
      <trkpt lat="49.18476" lon="-0.33644">
        <ele>4.46</ele>
        <time>2016-08-09T07:52:41Z</time>
      </trkpt>
      <trkpt lat="49.18458" lon="-0.33801">
        <ele>6.39</ele>
        <time>2016-08-09T07:52:56Z</time>
      </trkpt>
      <trkpt lat="49.18457" lon="-0.3382">
        <ele>6.39</ele>
        <time>2016-08-09T07:52:58Z</time>
      </trkpt>
      <trkpt lat="49.18457" lon="-0.3383">
        <ele>6.39</ele>
        <time>2016-08-09T07:52:59Z</time>
      </trkpt>
      <trkpt lat="49.18455" lon="-0.3384">
        <ele>6.87</ele>
        <time>2016-08-09T07:53:00Z</time>
      </trkpt>
      <trkpt lat="49.18453" lon="-0.33849">
        <ele>6.87</ele>
        <time>2016-08-09T07:53:01Z</time>
      </trkpt>
      <trkpt lat="49.18452" lon="-0.33859">
        <ele>6.87</ele>
        <time>2016-08-09T07:53:02Z</time>
      </trkpt>
      <trkpt lat="49.18452" lon="-0.33869">
        <ele>7.35</ele>
        <time>2016-08-09T07:53:03Z</time>
      </trkpt>
      <trkpt lat="49.18452" lon="-0.3388">
        <ele>6.87</ele>
        <time>2016-08-09T07:53:04Z</time>
      </trkpt>
      <trkpt lat="49.18451" lon="-0.33891">
        <ele>7.35</ele>
        <time>2016-08-09T07:53:05Z</time>
      </trkpt>
      <trkpt lat="49.18445" lon="-0.34018">
        <ele>6.87</ele>
        <time>2016-08-09T07:53:17Z</time>
      </trkpt>
      <trkpt lat="49.18446" lon="-0.34163">
        <ele>5.42</ele>
        <time>2016-08-09T07:53:31Z</time>
      </trkpt>
      <trkpt lat="49.18446" lon="-0.34204">
        <ele>5.42</ele>
        <time>2016-08-09T07:53:35Z</time>
      </trkpt>
      <trkpt lat="49.18447" lon="-0.34299">
        <ele>5.42</ele>
        <time>2016-08-09T07:53:44Z</time>
      </trkpt>
      <trkpt lat="49.18447" lon="-0.34309">
        <ele>5.42</ele>
        <time>2016-08-09T07:53:45Z</time>
      </trkpt>
      <trkpt lat="49.18452" lon="-0.34481">
        <ele>3.5</ele>
        <time>2016-08-09T07:54:01Z</time>
      </trkpt>
      <trkpt lat="49.18452" lon="-0.34639">
        <ele>3.5</ele>
        <time>2016-08-09T07:54:16Z</time>
      </trkpt>
      <trkpt lat="49.18451" lon="-0.34805">
        <ele>5.42</ele>
        <time>2016-08-09T07:54:32Z</time>
      </trkpt>
      <trkpt lat="49.18446" lon="-0.34973">
        <ele>5.42</ele>
        <time>2016-08-09T07:54:48Z</time>
      </trkpt>
      <trkpt lat="49.18415" lon="-0.35108">
        <ele>6.39</ele>
        <time>2016-08-09T07:55:02Z</time>
      </trkpt>
      <trkpt lat="49.18355" lon="-0.35214">
        <ele>6.87</ele>
        <time>2016-08-09T07:55:16Z</time>
      </trkpt>
      <trkpt lat="49.18331" lon="-0.3524">
        <ele>6.87</ele>
        <time>2016-08-09T07:55:22Z</time>
      </trkpt>
      <trkpt lat="49.18306" lon="-0.35279">
        <ele>6.39</ele>
        <time>2016-08-09T07:55:34Z</time>
      </trkpt>
      <trkpt lat="49.18306" lon="-0.35284">
        <ele>6.39</ele>
        <time>2016-08-09T07:55:35Z</time>
      </trkpt>
      <trkpt lat="49.18306" lon="-0.3529">
        <ele>6.39</ele>
        <time>2016-08-09T07:55:36Z</time>
      </trkpt>
      <trkpt lat="49.18306" lon="-0.35296">
        <ele>6.39</ele>
        <time>2016-08-09T07:55:37Z</time>
      </trkpt>
      <trkpt lat="49.18305" lon="-0.3531">
        <ele>6.39</ele>
        <time>2016-08-09T07:55:39Z</time>
      </trkpt>
      <trkpt lat="49.18305" lon="-0.35318">
        <ele>6.39</ele>
        <time>2016-08-09T07:55:40Z</time>
      </trkpt>
      <trkpt lat="49.18307" lon="-0.35327">
        <ele>6.87</ele>
        <time>2016-08-09T07:55:41Z</time>
      </trkpt>
      <trkpt lat="49.18309" lon="-0.35336">
        <ele>6.39</ele>
        <time>2016-08-09T07:55:42Z</time>
      </trkpt>
      <trkpt lat="49.18312" lon="-0.35345">
        <ele>6.39</ele>
        <time>2016-08-09T07:55:43Z</time>
      </trkpt>
      <trkpt lat="49.18315" lon="-0.35353">
        <ele>6.39</ele>
        <time>2016-08-09T07:55:44Z</time>
      </trkpt>
      <trkpt lat="49.18319" lon="-0.3536">
        <ele>5.91</ele>
        <time>2016-08-09T07:55:45Z</time>
      </trkpt>
      <trkpt lat="49.18323" lon="-0.35368">
        <ele>5.91</ele>
        <time>2016-08-09T07:55:46Z</time>
      </trkpt>
      <trkpt lat="49.18327" lon="-0.35375">
        <ele>5.91</ele>
        <time>2016-08-09T07:55:47Z</time>
      </trkpt>
      <trkpt lat="49.18379" lon="-0.35478">
        <ele>6.87</ele>
        <time>2016-08-09T07:56:01Z</time>
      </trkpt>
      <trkpt lat="49.18387" lon="-0.35492">
        <ele>7.35</ele>
        <time>2016-08-09T07:56:03Z</time>
      </trkpt>
      <trkpt lat="49.18408" lon="-0.35538">
        <ele>8.31</ele>
        <time>2016-08-09T07:56:09Z</time>
      </trkpt>
      <trkpt lat="49.18422" lon="-0.35565">
        <ele>9.75</ele>
        <time>2016-08-09T07:56:13Z</time>
      </trkpt>
      <trkpt lat="49.18424" lon="-0.35572">
        <ele>9.75</ele>
        <time>2016-08-09T07:56:14Z</time>
      </trkpt>
      <trkpt lat="49.18427" lon="-0.3558">
        <ele>9.27</ele>
        <time>2016-08-09T07:56:15Z</time>
      </trkpt>
      <trkpt lat="49.18429" lon="-0.35587">
        <ele>9.27</ele>
        <time>2016-08-09T07:56:16Z</time>
      </trkpt>
      <trkpt lat="49.18431" lon="-0.35595">
        <ele>9.27</ele>
        <time>2016-08-09T07:56:17Z</time>
      </trkpt>
      <trkpt lat="49.18432" lon="-0.35603">
        <ele>9.27</ele>
        <time>2016-08-09T07:56:18Z</time>
      </trkpt>
      <trkpt lat="49.18433" lon="-0.3561">
        <ele>9.27</ele>
        <time>2016-08-09T07:56:19Z</time>
      </trkpt>
      <trkpt lat="49.18435" lon="-0.35637">
        <ele>9.75</ele>
        <time>2016-08-09T07:56:23Z</time>
      </trkpt>
      <trkpt lat="49.18435" lon="-0.35645">
        <ele>9.75</ele>
        <time>2016-08-09T07:56:24Z</time>
      </trkpt>
      <trkpt lat="49.18437" lon="-0.35672">
        <ele>9.75</ele>
        <time>2016-08-09T07:56:27Z</time>
      </trkpt>
      <trkpt lat="49.18438" lon="-0.3568">
        <ele>9.75</ele>
        <time>2016-08-09T07:56:28Z</time>
      </trkpt>
      <trkpt lat="49.18445" lon="-0.3575">
        <ele>7.35</ele>
        <time>2016-08-09T07:56:36Z</time>
      </trkpt>
      <trkpt lat="49.18446" lon="-0.35868">
        <ele>3.5</ele>
        <time>2016-08-09T07:56:50Z</time>
      </trkpt>
      <trkpt lat="49.18446" lon="-0.35875">
        <ele>3.5</ele>
        <time>2016-08-09T07:56:51Z</time>
      </trkpt>
      <trkpt lat="49.18446" lon="-0.35882">
        <ele>3.5</ele>
        <time>2016-08-09T07:56:52Z</time>
      </trkpt>
      <trkpt lat="49.18446" lon="-0.3589">
        <ele>3.02</ele>
        <time>2016-08-09T07:56:53Z</time>
      </trkpt>
      <trkpt lat="49.18445" lon="-0.35898">
        <ele>3.02</ele>
        <time>2016-08-09T07:56:54Z</time>
      </trkpt>
      <trkpt lat="49.18443" lon="-0.35906">
        <ele>3.02</ele>
        <time>2016-08-09T07:56:55Z</time>
      </trkpt>
      <trkpt lat="49.1844" lon="-0.35913">
        <ele>3.02</ele>
        <time>2016-08-09T07:56:56Z</time>
      </trkpt>
      <trkpt lat="49.18427" lon="-0.35943">
        <ele>3.02</ele>
        <time>2016-08-09T07:57:04Z</time>
      </trkpt>
      <trkpt lat="49.18426" lon="-0.35947">
        <ele>2.54</ele>
        <time>2016-08-09T07:57:05Z</time>
      </trkpt>
      <trkpt lat="49.1842" lon="-0.35954">
        <ele>3.5</ele>
        <time>2016-08-09T07:57:08Z</time>
      </trkpt>
      <trkpt lat="49.18417" lon="-0.35955">
        <ele>3.98</ele>
        <time>2016-08-09T07:57:09Z</time>
      </trkpt>
      <trkpt lat="49.18414" lon="-0.35956">
        <ele>3.98</ele>
        <time>2016-08-09T07:57:10Z</time>
      </trkpt>
      <trkpt lat="49.18411" lon="-0.35958">
        <ele>3.98</ele>
        <time>2016-08-09T07:57:11Z</time>
      </trkpt>
      <trkpt lat="49.18409" lon="-0.35961">
        <ele>3.98</ele>
        <time>2016-08-09T07:57:12Z</time>
      </trkpt>
      <trkpt lat="49.18406" lon="-0.35963">
        <ele>3.98</ele>
        <time>2016-08-09T07:57:13Z</time>
      </trkpt>
      <trkpt lat="49.18403" lon="-0.35964">
        <ele>3.98</ele>
        <time>2016-08-09T07:57:14Z</time>
      </trkpt>
      <trkpt lat="49.18401" lon="-0.35963">
        <ele>3.98</ele>
        <time>2016-08-09T07:57:15Z</time>
      </trkpt>
      <trkpt lat="49.18398" lon="-0.35962">
        <ele>3.98</ele>
        <time>2016-08-09T07:57:16Z</time>
      </trkpt>
      <trkpt lat="49.18397" lon="-0.3596">
        <ele>3.5</ele>
        <time>2016-08-09T07:57:17Z</time>
      </trkpt>
      <trkpt lat="49.18395" lon="-0.3596">
        <ele>3.98</ele>
        <time>2016-08-09T07:57:18Z</time>
      </trkpt>
      <trkpt lat="49.18393" lon="-0.35959">
        <ele>3.98</ele>
        <time>2016-08-09T07:57:19Z</time>
      </trkpt>
      <trkpt lat="49.18391" lon="-0.35958">
        <ele>3.98</ele>
        <time>2016-08-09T07:57:20Z</time>
      </trkpt>
      <trkpt lat="49.1839" lon="-0.35958">
        <ele>3.98</ele>
        <time>2016-08-09T07:57:21Z</time>
      </trkpt>
      <trkpt lat="49.18388" lon="-0.35959">
        <ele>3.5</ele>
        <time>2016-08-09T07:57:22Z</time>
      </trkpt>
      <trkpt lat="49.18387" lon="-0.3596">
        <ele>3.5</ele>
        <time>2016-08-09T07:57:23Z</time>
      </trkpt>
      <trkpt lat="49.18385" lon="-0.35962">
        <ele>3.5</ele>
        <time>2016-08-09T07:57:24Z</time>
      </trkpt>
      <trkpt lat="49.18384" lon="-0.35964">
        <ele>3.5</ele>
        <time>2016-08-09T07:57:25Z</time>
      </trkpt>
      <trkpt lat="49.18369" lon="-0.35984">
        <ele>1.58</ele>
        <time>2016-08-09T07:57:40Z</time>
      </trkpt>
      <trkpt lat="49.18368" lon="-0.35985">
        <ele>1.58</ele>
        <time>2016-08-09T07:57:41Z</time>
      </trkpt>
      <trkpt lat="49.18367" lon="-0.35986">
        <ele>1.1</ele>
        <time>2016-08-09T07:57:42Z</time>
      </trkpt>
      <trkpt lat="49.18366" lon="-0.35988">
        <ele>1.1</ele>
        <time>2016-08-09T07:57:43Z</time>
      </trkpt>
      <trkpt lat="49.18366" lon="-0.3599">
        <ele>1.1</ele>
        <time>2016-08-09T07:57:44Z</time>
      </trkpt>
      <trkpt lat="49.18365" lon="-0.35991">
        <ele>1.1</ele>
        <time>2016-08-09T07:57:45Z</time>
      </trkpt>
      <trkpt lat="49.18358" lon="-0.36003">
        <ele>1.1</ele>
        <time>2016-08-09T07:57:53Z</time>
      </trkpt>
      <trkpt lat="49.18359" lon="-0.36005">
        <ele>0.62</ele>
        <time>2016-08-09T07:57:54Z</time>
      </trkpt>
      <trkpt lat="49.18363" lon="-0.36031">
        <ele>1.1</ele>
        <time>2016-08-09T07:58:01Z</time>
      </trkpt>
      <trkpt lat="49.18359" lon="-0.36062">
        <ele>2.54</ele>
        <time>2016-08-09T07:58:07Z</time>
      </trkpt>
      <trkpt lat="49.1836" lon="-0.36065">
        <ele>2.54</ele>
        <time>2016-08-09T07:58:08Z</time>
      </trkpt>
      <trkpt lat="49.18361" lon="-0.36068">
        <ele>2.54</ele>
        <time>2016-08-09T07:58:09Z</time>
      </trkpt>
      <trkpt lat="49.18363" lon="-0.36072">
        <ele>2.54</ele>
        <time>2016-08-09T07:58:10Z</time>
      </trkpt>
      <trkpt lat="49.18365" lon="-0.36074">
        <ele>3.02</ele>
        <time>2016-08-09T07:58:11Z</time>
      </trkpt>
      <trkpt lat="49.18391" lon="-0.361">
        <ele>2.06</ele>
        <time>2016-08-09T07:58:23Z</time>
      </trkpt>
      <trkpt lat="49.18417" lon="-0.36125">
        <ele>2.54</ele>
        <time>2016-08-09T07:58:34Z</time>
      </trkpt>
      <trkpt lat="49.18419" lon="-0.36124">
        <ele>3.02</ele>
        <time>2016-08-09T07:58:35Z</time>
      </trkpt>
      <trkpt lat="49.1842" lon="-0.36121">
        <ele>3.02</ele>
        <time>2016-08-09T07:58:36Z</time>
      </trkpt>
      <trkpt lat="49.18424" lon="-0.36107">
        <ele>3.5</ele>
        <time>2016-08-09T07:58:42Z</time>
      </trkpt>
      <trkpt lat="49.18426" lon="-0.36105">
        <ele>3.5</ele>
        <time>2016-08-09T07:58:43Z</time>
      </trkpt>
      <trkpt lat="49.18427" lon="-0.36103">
        <ele>3.5</ele>
        <time>2016-08-09T07:58:44Z</time>
      </trkpt>
      <trkpt lat="49.18429" lon="-0.36101">
        <ele>3.98</ele>
        <time>2016-08-09T07:58:45Z</time>
      </trkpt>
      <trkpt lat="49.1843" lon="-0.36099">
        <ele>4.46</ele>
        <time>2016-08-09T07:58:46Z</time>
      </trkpt>
      <trkpt lat="49.18431" lon="-0.36093">
        <ele>4.46</ele>
        <time>2016-08-09T07:58:48Z</time>
      </trkpt>
      <trkpt lat="49.18431" lon="-0.36091">
        <ele>4.94</ele>
        <time>2016-08-09T07:58:49Z</time>
      </trkpt>
      <trkpt lat="49.18433" lon="-0.36089">
        <ele>4.94</ele>
        <time>2016-08-09T07:58:50Z</time>
      </trkpt>
      <trkpt lat="49.18434" lon="-0.36086">
        <ele>4.94</ele>
        <time>2016-08-09T07:58:51Z</time>
      </trkpt>
      <trkpt lat="49.18435" lon="-0.36083">
        <ele>4.94</ele>
        <time>2016-08-09T07:58:52Z</time>
      </trkpt>
      <trkpt lat="49.18437" lon="-0.3608">
        <ele>4.94</ele>
        <time>2016-08-09T07:58:53Z</time>
      </trkpt>
      <trkpt lat="49.18439" lon="-0.36077">
        <ele>5.42</ele>
        <time>2016-08-09T07:58:54Z</time>
      </trkpt>
      <trkpt lat="49.1844" lon="-0.36075">
        <ele>5.42</ele>
        <time>2016-08-09T07:58:55Z</time>
      </trkpt>
      <trkpt lat="49.18442" lon="-0.36073">
        <ele>5.91</ele>
        <time>2016-08-09T07:58:56Z</time>
      </trkpt>
      <trkpt lat="49.18444" lon="-0.36071">
        <ele>5.91</ele>
        <time>2016-08-09T07:58:57Z</time>
      </trkpt>
      <trkpt lat="49.18446" lon="-0.36069">
        <ele>6.39</ele>
        <time>2016-08-09T07:58:58Z</time>
      </trkpt>
      <trkpt lat="49.18449" lon="-0.36066">
        <ele>6.87</ele>
        <time>2016-08-09T07:58:59Z</time>
      </trkpt>
      <trkpt lat="49.18451" lon="-0.36064">
        <ele>7.35</ele>
        <time>2016-08-09T07:59:00Z</time>
      </trkpt>
      <trkpt lat="49.18452" lon="-0.36062">
        <ele>8.31</ele>
        <time>2016-08-09T07:59:01Z</time>
      </trkpt>
      <trkpt lat="49.18454" lon="-0.3606">
        <ele>8.31</ele>
        <time>2016-08-09T07:59:02Z</time>
      </trkpt>
      <trkpt lat="49.18455" lon="-0.36057">
        <ele>8.31</ele>
        <time>2016-08-09T07:59:03Z</time>
      </trkpt>
      <trkpt lat="49.18456" lon="-0.36055">
        <ele>8.31</ele>
        <time>2016-08-09T07:59:04Z</time>
      </trkpt>
      <trkpt lat="49.18457" lon="-0.3605">
        <ele>9.75</ele>
        <time>2016-08-09T07:59:19Z</time>
      </trkpt>
      <trkpt lat="49.18471" lon="-0.36025">
        <ele>9.27</ele>
        <time>2016-08-09T07:59:28Z</time>
      </trkpt>
      <trkpt lat="49.18476" lon="-0.36025">
        <ele>8.79</ele>
        <time>2016-08-09T07:59:29Z</time>
      </trkpt>
      <trkpt lat="49.18481" lon="-0.36027">
        <ele>8.79</ele>
        <time>2016-08-09T07:59:30Z</time>
      </trkpt>
      <trkpt lat="49.18486" lon="-0.3603">
        <ele>8.79</ele>
        <time>2016-08-09T07:59:31Z</time>
      </trkpt>
      <trkpt lat="49.18491" lon="-0.36034">
        <ele>9.27</ele>
        <time>2016-08-09T07:59:32Z</time>
      </trkpt>
      <trkpt lat="49.18496" lon="-0.36038">
        <ele>9.27</ele>
        <time>2016-08-09T07:59:33Z</time>
      </trkpt>
      <trkpt lat="49.18506" lon="-0.36045">
        <ele>10.23</ele>
        <time>2016-08-09T07:59:35Z</time>
      </trkpt>
      <trkpt lat="49.18511" lon="-0.36047">
        <ele>10.71</ele>
        <time>2016-08-09T07:59:36Z</time>
      </trkpt>
      <trkpt lat="49.18516" lon="-0.36049">
        <ele>10.71</ele>
        <time>2016-08-09T07:59:37Z</time>
      </trkpt>
      <trkpt lat="49.18546" lon="-0.36045">
        <ele>14.56</ele>
        <time>2016-08-09T07:59:47Z</time>
      </trkpt>
      <trkpt lat="49.18546" lon="-0.36049">
        <ele>14.56</ele>
        <time>2016-08-09T07:59:48Z</time>
      </trkpt>
      <trkpt lat="49.18546" lon="-0.36053">
        <ele>14.56</ele>
        <time>2016-08-09T07:59:49Z</time>
      </trkpt>
      <trkpt lat="49.18545" lon="-0.36057">
        <ele>14.56</ele>
        <time>2016-08-09T07:59:50Z</time>
      </trkpt>
      <trkpt lat="49.18544" lon="-0.3606">
        <ele>14.08</ele>
        <time>2016-08-09T07:59:51Z</time>
      </trkpt>
      <trkpt lat="49.18543" lon="-0.3607">
        <ele>14.08</ele>
        <time>2016-08-09T07:59:55Z</time>
      </trkpt>
      <trkpt lat="49.18542" lon="-0.36071">
        <ele>14.08</ele>
        <time>2016-08-09T07:59:56Z</time>
      </trkpt>
      <trkpt lat="49.1854" lon="-0.36071">
        <ele>14.08</ele>
        <time>2016-08-09T07:59:58Z</time>
      </trkpt>
      <trkpt lat="49.18539" lon="-0.36071">
        <ele>13.6</ele>
        <time>2016-08-09T07:59:59Z</time>
      </trkpt>
      <trkpt lat="49.18534" lon="-0.36068">
        <ele>13.6</ele>
        <time>2016-08-09T08:00:02Z</time>
      </trkpt>
      <trkpt lat="49.18531" lon="-0.3607">
        <ele>13.6</ele>
        <time>2016-08-09T08:00:03Z</time>
      </trkpt>
      <trkpt lat="49.18529" lon="-0.36073">
        <ele>13.12</ele>
        <time>2016-08-09T08:00:04Z</time>
      </trkpt>
      <trkpt lat="49.18513" lon="-0.36121">
        <ele>14.56</ele>
        <time>2016-08-09T08:00:16Z</time>
      </trkpt>
      <trkpt lat="49.18513" lon="-0.36123">
        <ele>15.04</ele>
        <time>2016-08-09T08:00:17Z</time>
      </trkpt>
      <trkpt lat="49.18513" lon="-0.36125">
        <ele>15.04</ele>
        <time>2016-08-09T08:00:18Z</time>
      </trkpt>
      <trkpt lat="49.18512" lon="-0.36128">
        <ele>15.52</ele>
        <time>2016-08-09T08:00:19Z</time>
      </trkpt>
      <trkpt lat="49.18512" lon="-0.3613">
        <ele>15.04</ele>
        <time>2016-08-09T08:00:20Z</time>
      </trkpt>
      <trkpt lat="49.18512" lon="-0.36132">
        <ele>15.52</ele>
        <time>2016-08-09T08:00:21Z</time>
      </trkpt>
      <trkpt lat="49.18503" lon="-0.36156">
        <ele>20.81</ele>
        <time>2016-08-09T08:00:31Z</time>
      </trkpt>
      <trkpt lat="49.18502" lon="-0.36159">
        <ele>20.81</ele>
        <time>2016-08-09T08:00:32Z</time>
      </trkpt>
      <trkpt lat="49.18503" lon="-0.36161">
        <ele>20.81</ele>
        <time>2016-08-09T08:00:33Z</time>
      </trkpt>
      <trkpt lat="49.18504" lon="-0.36163">
        <ele>20.81</ele>
        <time>2016-08-09T08:00:34Z</time>
      </trkpt>
      <trkpt lat="49.18506" lon="-0.36165">
        <ele>20.81</ele>
        <time>2016-08-09T08:00:35Z</time>
      </trkpt>
      <trkpt lat="49.18508" lon="-0.36168">
        <ele>20.81</ele>
        <time>2016-08-09T08:00:36Z</time>
      </trkpt>
      <trkpt lat="49.18511" lon="-0.36169">
        <ele>21.29</ele>
        <time>2016-08-09T08:00:37Z</time>
      </trkpt>
      <trkpt lat="49.18513" lon="-0.36171">
        <ele>21.77</ele>
        <time>2016-08-09T08:00:38Z</time>
      </trkpt>
      <trkpt lat="49.18538" lon="-0.36189">
        <ele>24.65</ele>
        <time>2016-08-09T08:00:49Z</time>
      </trkpt>
      <trkpt lat="49.1855" lon="-0.36194">
        <ele>25.13</ele>
        <time>2016-08-09T08:00:53Z</time>
      </trkpt>
      <trkpt lat="49.18555" lon="-0.36197">
        <ele>25.13</ele>
        <time>2016-08-09T08:00:54Z</time>
      </trkpt>
      <trkpt lat="49.18567" lon="-0.36203">
        <ele>25.13</ele>
        <time>2016-08-09T08:00:57Z</time>
      </trkpt>
      <trkpt lat="49.18572" lon="-0.36204">
        <ele>25.61</ele>
        <time>2016-08-09T08:00:58Z</time>
      </trkpt>
      <trkpt lat="49.18575" lon="-0.36205">
        <ele>25.61</ele>
        <time>2016-08-09T08:00:59Z</time>
      </trkpt>
      <trkpt lat="49.18579" lon="-0.36208">
        <ele>25.61</ele>
        <time>2016-08-09T08:01:00Z</time>
      </trkpt>
      <trkpt lat="49.18582" lon="-0.3621">
        <ele>26.09</ele>
        <time>2016-08-09T08:01:01Z</time>
      </trkpt>
      <trkpt lat="49.18614" lon="-0.36226">
        <ele>27.05</ele>
        <time>2016-08-09T08:01:12Z</time>
      </trkpt>
      <trkpt lat="49.18646" lon="-0.36239">
        <ele>29.46</ele>
        <time>2016-08-09T08:01:23Z</time>
      </trkpt>
      <trkpt lat="49.1867" lon="-0.36238">
        <ele>30.42</ele>
        <time>2016-08-09T08:01:34Z</time>
      </trkpt>
      <trkpt lat="49.18673" lon="-0.36236">
        <ele>30.9</ele>
        <time>2016-08-09T08:01:36Z</time>
      </trkpt>
      <trkpt lat="49.18673" lon="-0.36235">
        <ele>30.9</ele>
        <time>2016-08-09T08:01:37Z</time>
      </trkpt>
      <trkpt lat="49.18675" lon="-0.36232">
        <ele>30.42</ele>
        <time>2016-08-09T08:01:43Z</time>
      </trkpt>
      <trkpt lat="49.18689" lon="-0.36247">
        <ele>29.94</ele>
        <time>2016-08-09T08:02:00Z</time>
      </trkpt>
      <trkpt lat="49.18691" lon="-0.3625">
        <ele>29.94</ele>
        <time>2016-08-09T08:02:14Z</time>
      </trkpt>
      <trkpt lat="49.18691" lon="-0.36248">
        <ele>28.5</ele>
        <time>2016-08-09T08:02:40Z</time>
      </trkpt>
      <trkpt lat="49.18696" lon="-0.36243">
        <ele>29.94</ele>
        <time>2016-08-09T08:02:53Z</time>
      </trkpt>
      <trkpt lat="49.18699" lon="-0.36243">
        <ele>30.9</ele>
        <time>2016-08-09T08:03:02Z</time>
      </trkpt>
      <trkpt lat="49.18701" lon="-0.36242">
        <ele>30.9</ele>
        <time>2016-08-09T08:03:03Z</time>
      </trkpt>
      <trkpt lat="49.18703" lon="-0.36242">
        <ele>30.9</ele>
        <time>2016-08-09T08:03:04Z</time>
      </trkpt>
      <trkpt lat="49.18706" lon="-0.36242">
        <ele>30.9</ele>
        <time>2016-08-09T08:03:05Z</time>
      </trkpt>
      <trkpt lat="49.18708" lon="-0.36242">
        <ele>30.9</ele>
        <time>2016-08-09T08:03:06Z</time>
      </trkpt>
      <trkpt lat="49.1871" lon="-0.36242">
        <ele>30.9</ele>
        <time>2016-08-09T08:03:07Z</time>
      </trkpt>
      <trkpt lat="49.18712" lon="-0.36243">
        <ele>30.42</ele>
        <time>2016-08-09T08:03:08Z</time>
      </trkpt>
      <trkpt lat="49.18743" lon="-0.3625">
        <ele>30.42</ele>
        <time>2016-08-09T08:03:21Z</time>
      </trkpt>
      <trkpt lat="49.18765" lon="-0.3625">
        <ele>30.42</ele>
        <time>2016-08-09T08:03:28Z</time>
      </trkpt>
      <trkpt lat="49.18779" lon="-0.36254">
        <ele>28.98</ele>
        <time>2016-08-09T08:03:33Z</time>
      </trkpt>
      <trkpt lat="49.18776" lon="-0.36307">
        <ele>28.5</ele>
        <time>2016-08-09T08:03:43Z</time>
      </trkpt>
      <trkpt lat="49.18772" lon="-0.36367">
        <ele>28.5</ele>
        <time>2016-08-09T08:03:54Z</time>
      </trkpt>
      <trkpt lat="49.18799" lon="-0.36385">
        <ele>28.02</ele>
        <time>2016-08-09T08:04:03Z</time>
      </trkpt>
      <trkpt lat="49.1882" lon="-0.36395">
        <ele>28.02</ele>
        <time>2016-08-09T08:04:11Z</time>
      </trkpt>
      <trkpt lat="49.18821" lon="-0.36398">
        <ele>28.02</ele>
        <time>2016-08-09T08:04:12Z</time>
      </trkpt>
      <trkpt lat="49.18822" lon="-0.36415">
        <ele>27.05</ele>
        <time>2016-08-09T08:04:21Z</time>
      </trkpt>
      <trkpt lat="49.18821" lon="-0.36418">
        <ele>27.05</ele>
        <time>2016-08-09T08:04:22Z</time>
      </trkpt>
      <trkpt lat="49.18819" lon="-0.3642">
        <ele>27.53</ele>
        <time>2016-08-09T08:04:23Z</time>
      </trkpt>
      <trkpt lat="49.18817" lon="-0.36423">
        <ele>27.53</ele>
        <time>2016-08-09T08:04:24Z</time>
      </trkpt>
      <trkpt lat="49.18814" lon="-0.36428">
        <ele>27.53</ele>
        <time>2016-08-09T08:04:25Z</time>
      </trkpt>
      <trkpt lat="49.18812" lon="-0.36433">
        <ele>27.53</ele>
        <time>2016-08-09T08:04:26Z</time>
      </trkpt>
      <trkpt lat="49.18791" lon="-0.36477">
        <ele>27.53</ele>
        <time>2016-08-09T08:04:35Z</time>
      </trkpt>
      <trkpt lat="49.18788" lon="-0.36481">
        <ele>27.53</ele>
        <time>2016-08-09T08:04:36Z</time>
      </trkpt>
      <trkpt lat="49.18784" lon="-0.36484">
        <ele>27.53</ele>
        <time>2016-08-09T08:04:37Z</time>
      </trkpt>
      <trkpt lat="49.18772" lon="-0.36491">
        <ele>27.05</ele>
        <time>2016-08-09T08:04:40Z</time>
      </trkpt>
      <trkpt lat="49.18767" lon="-0.36492">
        <ele>27.53</ele>
        <time>2016-08-09T08:04:41Z</time>
      </trkpt>
      <trkpt lat="49.18736" lon="-0.36498">
        <ele>28.02</ele>
        <time>2016-08-09T08:04:49Z</time>
      </trkpt>
      <trkpt lat="49.18734" lon="-0.365">
        <ele>28.02</ele>
        <time>2016-08-09T08:04:50Z</time>
      </trkpt>
      <trkpt lat="49.18732" lon="-0.365">
        <ele>28.02</ele>
        <time>2016-08-09T08:04:51Z</time>
      </trkpt>
      <trkpt lat="49.18732" lon="-0.36497">
        <ele>28.02</ele>
        <time>2016-08-09T08:04:52Z</time>
      </trkpt>
      <trkpt lat="49.18733" lon="-0.36494">
        <ele>28.02</ele>
        <time>2016-08-09T08:04:53Z</time>
      </trkpt>
      <trkpt lat="49.18735" lon="-0.36492">
        <ele>28.02</ele>
        <time>2016-08-09T08:04:54Z</time>
      </trkpt>
      <trkpt lat="49.18738" lon="-0.36492">
        <ele>28.5</ele>
        <time>2016-08-09T08:04:55Z</time>
      </trkpt>
      <trkpt lat="49.18741" lon="-0.36491">
        <ele>28.5</ele>
        <time>2016-08-09T08:04:56Z</time>
      </trkpt>
      <trkpt lat="49.18762" lon="-0.36491">
        <ele>28.98</ele>
        <time>2016-08-09T08:05:01Z</time>
      </trkpt>
      <trkpt lat="49.18766" lon="-0.3649">
        <ele>28.98</ele>
        <time>2016-08-09T08:05:02Z</time>
      </trkpt>
      <trkpt lat="49.18771" lon="-0.36488">
        <ele>29.46</ele>
        <time>2016-08-09T08:05:03Z</time>
      </trkpt>
      <trkpt lat="49.18785" lon="-0.3648">
        <ele>29.46</ele>
        <time>2016-08-09T08:05:06Z</time>
      </trkpt>
      <trkpt lat="49.1879" lon="-0.36476">
        <ele>29.46</ele>
        <time>2016-08-09T08:05:07Z</time>
      </trkpt>
      <trkpt lat="49.18793" lon="-0.36471">
        <ele>29.46</ele>
        <time>2016-08-09T08:05:08Z</time>
      </trkpt>
      <trkpt lat="49.18797" lon="-0.36465">
        <ele>29.46</ele>
        <time>2016-08-09T08:05:09Z</time>
      </trkpt>
      <trkpt lat="49.188" lon="-0.36458">
        <ele>28.98</ele>
        <time>2016-08-09T08:05:10Z</time>
      </trkpt>
      <trkpt lat="49.18803" lon="-0.36452">
        <ele>28.98</ele>
        <time>2016-08-09T08:05:11Z</time>
      </trkpt>
      <trkpt lat="49.18806" lon="-0.36446">
        <ele>28.98</ele>
        <time>2016-08-09T08:05:12Z</time>
      </trkpt>
      <trkpt lat="49.18815" lon="-0.3642">
        <ele>28.5</ele>
        <time>2016-08-09T08:05:16Z</time>
      </trkpt>
      <trkpt lat="49.18819" lon="-0.36415">
        <ele>28.5</ele>
        <time>2016-08-09T08:05:17Z</time>
      </trkpt>
      <trkpt lat="49.18823" lon="-0.36412">
        <ele>28.5</ele>
        <time>2016-08-09T08:05:18Z</time>
      </trkpt>
      <trkpt lat="49.18827" lon="-0.36412">
        <ele>28.5</ele>
        <time>2016-08-09T08:05:19Z</time>
      </trkpt>
      <trkpt lat="49.18832" lon="-0.36414">
        <ele>28.02</ele>
        <time>2016-08-09T08:05:20Z</time>
      </trkpt>
      <trkpt lat="49.18858" lon="-0.36429">
        <ele>26.09</ele>
        <time>2016-08-09T08:05:28Z</time>
      </trkpt>
      <trkpt lat="49.18859" lon="-0.36427">
        <ele>26.09</ele>
        <time>2016-08-09T08:05:29Z</time>
      </trkpt>
      <trkpt lat="49.1886" lon="-0.36425">
        <ele>26.09</ele>
        <time>2016-08-09T08:05:30Z</time>
      </trkpt>
      <trkpt lat="49.18861" lon="-0.36422">
        <ele>26.09</ele>
        <time>2016-08-09T08:05:32Z</time>
      </trkpt>
      <trkpt lat="49.18864" lon="-0.36419">
        <ele>26.09</ele>
        <time>2016-08-09T08:05:37Z</time>
      </trkpt>
      <trkpt lat="49.18865" lon="-0.36415">
        <ele>26.09</ele>
        <time>2016-08-09T08:05:38Z</time>
      </trkpt>
      <trkpt lat="49.18866" lon="-0.36411">
        <ele>26.09</ele>
        <time>2016-08-09T08:05:39Z</time>
      </trkpt>
      <trkpt lat="49.18868" lon="-0.36384">
        <ele>25.61</ele>
        <time>2016-08-09T08:05:43Z</time>
      </trkpt>
      <trkpt lat="49.18869" lon="-0.36377">
        <ele>25.61</ele>
        <time>2016-08-09T08:05:44Z</time>
      </trkpt>
      <trkpt lat="49.1887" lon="-0.36369">
        <ele>25.61</ele>
        <time>2016-08-09T08:05:45Z</time>
      </trkpt>
      <trkpt lat="49.18872" lon="-0.36362">
        <ele>25.61</ele>
        <time>2016-08-09T08:05:46Z</time>
      </trkpt>
      <trkpt lat="49.18873" lon="-0.36355">
        <ele>25.61</ele>
        <time>2016-08-09T08:05:47Z</time>
      </trkpt>
      <trkpt lat="49.18877" lon="-0.36334">
        <ele>26.57</ele>
        <time>2016-08-09T08:05:50Z</time>
      </trkpt>
      <trkpt lat="49.18877" lon="-0.36328">
        <ele>27.05</ele>
        <time>2016-08-09T08:05:51Z</time>
      </trkpt>
      <trkpt lat="49.18876" lon="-0.36323">
        <ele>27.53</ele>
        <time>2016-08-09T08:05:52Z</time>
      </trkpt>
      <trkpt lat="49.18873" lon="-0.3632">
        <ele>27.53</ele>
        <time>2016-08-09T08:05:53Z</time>
      </trkpt>
      <trkpt lat="49.18868" lon="-0.36318">
        <ele>27.53</ele>
        <time>2016-08-09T08:05:54Z</time>
      </trkpt>
      <trkpt lat="49.18864" lon="-0.36317">
        <ele>27.53</ele>
        <time>2016-08-09T08:05:55Z</time>
      </trkpt>
      <trkpt lat="49.18859" lon="-0.36316">
        <ele>27.05</ele>
        <time>2016-08-09T08:05:56Z</time>
      </trkpt>
      <trkpt lat="49.18855" lon="-0.36314">
        <ele>27.05</ele>
        <time>2016-08-09T08:05:57Z</time>
      </trkpt>
      <trkpt lat="49.18846" lon="-0.36311">
        <ele>27.05</ele>
        <time>2016-08-09T08:05:59Z</time>
      </trkpt>
      <trkpt lat="49.18829" lon="-0.36304">
        <ele>28.02</ele>
        <time>2016-08-09T08:06:03Z</time>
      </trkpt>
      <trkpt lat="49.18825" lon="-0.36302">
        <ele>28.02</ele>
        <time>2016-08-09T08:06:04Z</time>
      </trkpt>
      <trkpt lat="49.18821" lon="-0.36299">
        <ele>28.02</ele>
        <time>2016-08-09T08:06:05Z</time>
      </trkpt>
      <trkpt lat="49.18817" lon="-0.36294">
        <ele>27.53</ele>
        <time>2016-08-09T08:06:06Z</time>
      </trkpt>
      <trkpt lat="49.18815" lon="-0.36287">
        <ele>27.53</ele>
        <time>2016-08-09T08:06:07Z</time>
      </trkpt>
      <trkpt lat="49.18814" lon="-0.3628">
        <ele>27.53</ele>
        <time>2016-08-09T08:06:08Z</time>
      </trkpt>
      <trkpt lat="49.18813" lon="-0.36273">
        <ele>27.53</ele>
        <time>2016-08-09T08:06:09Z</time>
      </trkpt>
      <trkpt lat="49.18813" lon="-0.36265">
        <ele>27.53</ele>
        <time>2016-08-09T08:06:10Z</time>
      </trkpt>
      <trkpt lat="49.18811" lon="-0.36233">
        <ele>27.53</ele>
        <time>2016-08-09T08:06:14Z</time>
      </trkpt>
      <trkpt lat="49.18809" lon="-0.36225">
        <ele>27.53</ele>
        <time>2016-08-09T08:06:15Z</time>
      </trkpt>
      <trkpt lat="49.18807" lon="-0.36217">
        <ele>27.53</ele>
        <time>2016-08-09T08:06:16Z</time>
      </trkpt>
      <trkpt lat="49.18803" lon="-0.3621">
        <ele>27.53</ele>
        <time>2016-08-09T08:06:17Z</time>
      </trkpt>
      <trkpt lat="49.188" lon="-0.36203">
        <ele>27.53</ele>
        <time>2016-08-09T08:06:18Z</time>
      </trkpt>
      <trkpt lat="49.18791" lon="-0.3618">
        <ele>26.57</ele>
        <time>2016-08-09T08:06:21Z</time>
      </trkpt>
      <trkpt lat="49.18789" lon="-0.36172">
        <ele>26.09</ele>
        <time>2016-08-09T08:06:22Z</time>
      </trkpt>
      <trkpt lat="49.18785" lon="-0.36164">
        <ele>26.09</ele>
        <time>2016-08-09T08:06:23Z</time>
      </trkpt>
      <trkpt lat="49.18781" lon="-0.3615">
        <ele>25.61</ele>
        <time>2016-08-09T08:06:25Z</time>
      </trkpt>
      <trkpt lat="49.18779" lon="-0.36145">
        <ele>26.09</ele>
        <time>2016-08-09T08:06:26Z</time>
      </trkpt>
      <trkpt lat="49.18777" lon="-0.36143">
        <ele>25.61</ele>
        <time>2016-08-09T08:06:27Z</time>
      </trkpt>
      <trkpt lat="49.18776" lon="-0.36141">
        <ele>25.61</ele>
        <time>2016-08-09T08:06:28Z</time>
      </trkpt>
      <trkpt lat="49.18775" lon="-0.36139">
        <ele>25.61</ele>
        <time>2016-08-09T08:06:29Z</time>
      </trkpt>
      <trkpt lat="49.18775" lon="-0.36135">
        <ele>26.09</ele>
        <time>2016-08-09T08:06:30Z</time>
      </trkpt>
      <trkpt lat="49.18775" lon="-0.3613">
        <ele>26.09</ele>
        <time>2016-08-09T08:06:31Z</time>
      </trkpt>
      <trkpt lat="49.18777" lon="-0.36125">
        <ele>26.09</ele>
        <time>2016-08-09T08:06:32Z</time>
      </trkpt>
      <trkpt lat="49.18778" lon="-0.36118">
        <ele>26.09</ele>
        <time>2016-08-09T08:06:33Z</time>
      </trkpt>
      <trkpt lat="49.1878" lon="-0.36112">
        <ele>26.09</ele>
        <time>2016-08-09T08:06:34Z</time>
      </trkpt>
      <trkpt lat="49.18782" lon="-0.36105">
        <ele>26.09</ele>
        <time>2016-08-09T08:06:35Z</time>
      </trkpt>
      <trkpt lat="49.18785" lon="-0.36099">
        <ele>26.09</ele>
        <time>2016-08-09T08:06:36Z</time>
      </trkpt>
      <trkpt lat="49.18788" lon="-0.36093">
        <ele>26.09</ele>
        <time>2016-08-09T08:06:37Z</time>
      </trkpt>
      <trkpt lat="49.18792" lon="-0.36087">
        <ele>25.61</ele>
        <time>2016-08-09T08:06:38Z</time>
      </trkpt>
      <trkpt lat="49.18806" lon="-0.36056">
        <ele>24.17</ele>
        <time>2016-08-09T08:06:42Z</time>
      </trkpt>
      <trkpt lat="49.18808" lon="-0.36046">
        <ele>23.69</ele>
        <time>2016-08-09T08:06:43Z</time>
      </trkpt>
      <trkpt lat="49.1881" lon="-0.36036">
        <ele>23.69</ele>
        <time>2016-08-09T08:06:44Z</time>
      </trkpt>
      <trkpt lat="49.18811" lon="-0.36027">
        <ele>23.21</ele>
        <time>2016-08-09T08:06:45Z</time>
      </trkpt>
      <trkpt lat="49.18811" lon="-0.36019">
        <ele>23.21</ele>
        <time>2016-08-09T08:06:46Z</time>
      </trkpt>
      <trkpt lat="49.1881" lon="-0.36012">
        <ele>22.73</ele>
        <time>2016-08-09T08:06:47Z</time>
      </trkpt>
      <trkpt lat="49.18809" lon="-0.36006">
        <ele>22.73</ele>
        <time>2016-08-09T08:06:48Z</time>
      </trkpt>
      <trkpt lat="49.18805" lon="-0.35997">
        <ele>21.77</ele>
        <time>2016-08-09T08:06:50Z</time>
      </trkpt>
      <trkpt lat="49.18801" lon="-0.35996">
        <ele>21.29</ele>
        <time>2016-08-09T08:06:51Z</time>
      </trkpt>
      <trkpt lat="49.18796" lon="-0.35997">
        <ele>20.81</ele>
        <time>2016-08-09T08:06:52Z</time>
      </trkpt>
      <trkpt lat="49.18718" lon="-0.36027">
        <ele>15.52</ele>
        <time>2016-08-09T08:07:03Z</time>
      </trkpt>
      <trkpt lat="49.18653" lon="-0.36022">
        <ele>13.6</ele>
        <time>2016-08-09T08:07:10Z</time>
      </trkpt>
      <trkpt lat="49.18622" lon="-0.36013">
        <ele>12.15</ele>
        <time>2016-08-09T08:07:14Z</time>
      </trkpt>
      <trkpt lat="49.18615" lon="-0.36014">
        <ele>12.15</ele>
        <time>2016-08-09T08:07:15Z</time>
      </trkpt>
      <trkpt lat="49.18608" lon="-0.36018">
        <ele>12.15</ele>
        <time>2016-08-09T08:07:16Z</time>
      </trkpt>
      <trkpt lat="49.18595" lon="-0.36027">
        <ele>11.67</ele>
        <time>2016-08-09T08:07:18Z</time>
      </trkpt>
      <trkpt lat="49.18526" lon="-0.36064">
        <ele>10.23</ele>
        <time>2016-08-09T08:07:28Z</time>
      </trkpt>
      <trkpt lat="49.18518" lon="-0.36063">
        <ele>10.23</ele>
        <time>2016-08-09T08:07:29Z</time>
      </trkpt>
      <trkpt lat="49.18512" lon="-0.36062">
        <ele>9.75</ele>
        <time>2016-08-09T08:07:30Z</time>
      </trkpt>
      <trkpt lat="49.18506" lon="-0.3606">
        <ele>9.75</ele>
        <time>2016-08-09T08:07:31Z</time>
      </trkpt>
      <trkpt lat="49.18503" lon="-0.36057">
        <ele>9.75</ele>
        <time>2016-08-09T08:07:32Z</time>
      </trkpt>
      <trkpt lat="49.185" lon="-0.36056">
        <ele>9.27</ele>
        <time>2016-08-09T08:07:33Z</time>
      </trkpt>
      <trkpt lat="49.18497" lon="-0.36053">
        <ele>8.31</ele>
        <time>2016-08-09T08:07:36Z</time>
      </trkpt>
      <trkpt lat="49.18496" lon="-0.36052">
        <ele>8.31</ele>
        <time>2016-08-09T08:07:47Z</time>
      </trkpt>
      <trkpt lat="49.18496" lon="-0.36052">
        <ele>7.83</ele>
        <time>2016-08-09T08:07:49Z</time>
      </trkpt>
      <trkpt lat="49.18494" lon="-0.3605">
        <ele>8.31</ele>
        <time>2016-08-09T08:07:50Z</time>
      </trkpt>
      <trkpt lat="49.18492" lon="-0.36047">
        <ele>8.31</ele>
        <time>2016-08-09T08:07:51Z</time>
      </trkpt>
      <trkpt lat="49.1849" lon="-0.36045">
        <ele>7.83</ele>
        <time>2016-08-09T08:07:52Z</time>
      </trkpt>
      <trkpt lat="49.18488" lon="-0.36043">
        <ele>7.83</ele>
        <time>2016-08-09T08:07:53Z</time>
      </trkpt>
      <trkpt lat="49.18476" lon="-0.36038">
        <ele>7.35</ele>
        <time>2016-08-09T08:07:59Z</time>
      </trkpt>
      <trkpt lat="49.18472" lon="-0.36043">
        <ele>6.87</ele>
        <time>2016-08-09T08:08:00Z</time>
      </trkpt>
      <trkpt lat="49.18469" lon="-0.36049">
        <ele>6.87</ele>
        <time>2016-08-09T08:08:01Z</time>
      </trkpt>
      <trkpt lat="49.18463" lon="-0.36064">
        <ele>6.39</ele>
        <time>2016-08-09T08:08:03Z</time>
      </trkpt>
      <trkpt lat="49.1846" lon="-0.36071">
        <ele>5.91</ele>
        <time>2016-08-09T08:08:04Z</time>
      </trkpt>
      <trkpt lat="49.18434" lon="-0.3613">
        <ele>3.02</ele>
        <time>2016-08-09T08:08:11Z</time>
      </trkpt>
      <trkpt lat="49.18431" lon="-0.3614">
        <ele>3.02</ele>
        <time>2016-08-09T08:08:12Z</time>
      </trkpt>
      <trkpt lat="49.18431" lon="-0.36151">
        <ele>2.54</ele>
        <time>2016-08-09T08:08:13Z</time>
      </trkpt>
      <trkpt lat="49.18432" lon="-0.36161">
        <ele>2.54</ele>
        <time>2016-08-09T08:08:14Z</time>
      </trkpt>
      <trkpt lat="49.18435" lon="-0.3617">
        <ele>2.54</ele>
        <time>2016-08-09T08:08:15Z</time>
      </trkpt>
      <trkpt lat="49.18439" lon="-0.36178">
        <ele>2.54</ele>
        <time>2016-08-09T08:08:16Z</time>
      </trkpt>
      <trkpt lat="49.18445" lon="-0.36185">
        <ele>2.54</ele>
        <time>2016-08-09T08:08:17Z</time>
      </trkpt>
      <trkpt lat="49.1845" lon="-0.36191">
        <ele>2.54</ele>
        <time>2016-08-09T08:08:18Z</time>
      </trkpt>
      <trkpt lat="49.18461" lon="-0.36203">
        <ele>2.06</ele>
        <time>2016-08-09T08:08:20Z</time>
      </trkpt>
      <trkpt lat="49.18466" lon="-0.3621">
        <ele>2.06</ele>
        <time>2016-08-09T08:08:21Z</time>
      </trkpt>
      <trkpt lat="49.18482" lon="-0.36238">
        <ele>2.06</ele>
        <time>2016-08-09T08:08:25Z</time>
      </trkpt>
      <trkpt lat="49.18498" lon="-0.36286">
        <ele>2.06</ele>
        <time>2016-08-09T08:08:31Z</time>
      </trkpt>
      <trkpt lat="49.18524" lon="-0.36413">
        <ele>3.02</ele>
        <time>2016-08-09T08:08:45Z</time>
      </trkpt>
      <trkpt lat="49.18539" lon="-0.3646">
        <ele>3.98</ele>
        <time>2016-08-09T08:08:51Z</time>
      </trkpt>
      <trkpt lat="49.18605" lon="-0.36563">
        <ele>7.35</ele>
        <time>2016-08-09T08:09:08Z</time>
      </trkpt>
      <trkpt lat="49.18623" lon="-0.3658">
        <ele>6.39</ele>
        <time>2016-08-09T08:09:12Z</time>
      </trkpt>
      <trkpt lat="49.18627" lon="-0.36585">
        <ele>6.39</ele>
        <time>2016-08-09T08:09:13Z</time>
      </trkpt>
      <trkpt lat="49.18649" lon="-0.36608">
        <ele>4.94</ele>
        <time>2016-08-09T08:09:18Z</time>
      </trkpt>
      <trkpt lat="49.18654" lon="-0.3661">
        <ele>4.94</ele>
        <time>2016-08-09T08:09:19Z</time>
      </trkpt>
      <trkpt lat="49.1866" lon="-0.36612">
        <ele>5.42</ele>
        <time>2016-08-09T08:09:20Z</time>
      </trkpt>
      <trkpt lat="49.18703" lon="-0.3662">
        <ele>6.87</ele>
        <time>2016-08-09T08:09:28Z</time>
      </trkpt>
      <trkpt lat="49.18728" lon="-0.36621">
        <ele>6.87</ele>
        <time>2016-08-09T08:09:33Z</time>
      </trkpt>
      <trkpt lat="49.18734" lon="-0.36622">
        <ele>7.35</ele>
        <time>2016-08-09T08:09:34Z</time>
      </trkpt>
      <trkpt lat="49.18759" lon="-0.36629">
        <ele>8.79</ele>
        <time>2016-08-09T08:09:39Z</time>
      </trkpt>
      <trkpt lat="49.18765" lon="-0.36631">
        <ele>9.75</ele>
        <time>2016-08-09T08:09:40Z</time>
      </trkpt>
      <trkpt lat="49.18769" lon="-0.36635">
        <ele>9.75</ele>
        <time>2016-08-09T08:09:41Z</time>
      </trkpt>
      <trkpt lat="49.18773" lon="-0.36641">
        <ele>10.23</ele>
        <time>2016-08-09T08:09:42Z</time>
      </trkpt>
      <trkpt lat="49.18776" lon="-0.36649">
        <ele>10.23</ele>
        <time>2016-08-09T08:09:43Z</time>
      </trkpt>
      <trkpt lat="49.18778" lon="-0.36657">
        <ele>10.23</ele>
        <time>2016-08-09T08:09:44Z</time>
      </trkpt>
      <trkpt lat="49.1878" lon="-0.36665">
        <ele>10.23</ele>
        <time>2016-08-09T08:09:45Z</time>
      </trkpt>
      <trkpt lat="49.18791" lon="-0.36716">
        <ele>8.79</ele>
        <time>2016-08-09T08:09:51Z</time>
      </trkpt>
      <trkpt lat="49.18793" lon="-0.36724">
        <ele>8.31</ele>
        <time>2016-08-09T08:09:52Z</time>
      </trkpt>
      <trkpt lat="49.18797" lon="-0.36732">
        <ele>8.31</ele>
        <time>2016-08-09T08:09:53Z</time>
      </trkpt>
      <trkpt lat="49.18835" lon="-0.36834">
        <ele>7.83</ele>
        <time>2016-08-09T08:10:07Z</time>
      </trkpt>
      <trkpt lat="49.18879" lon="-0.36938">
        <ele>13.12</ele>
        <time>2016-08-09T08:10:23Z</time>
      </trkpt>
      <trkpt lat="49.18913" lon="-0.37005">
        <ele>14.56</ele>
        <time>2016-08-09T08:10:36Z</time>
      </trkpt>
      <trkpt lat="49.18916" lon="-0.3701">
        <ele>14.56</ele>
        <time>2016-08-09T08:10:37Z</time>
      </trkpt>
      <trkpt lat="49.18923" lon="-0.3702">
        <ele>15.52</ele>
        <time>2016-08-09T08:10:39Z</time>
      </trkpt>
      <trkpt lat="49.18946" lon="-0.37066">
        <ele>16.48</ele>
        <time>2016-08-09T08:10:47Z</time>
      </trkpt>
      <trkpt lat="49.18949" lon="-0.37072">
        <ele>16.48</ele>
        <time>2016-08-09T08:10:48Z</time>
      </trkpt>
      <trkpt lat="49.18952" lon="-0.37077">
        <ele>16.48</ele>
        <time>2016-08-09T08:10:49Z</time>
      </trkpt>
      <trkpt lat="49.18999" lon="-0.37168">
        <ele>21.77</ele>
        <time>2016-08-09T08:11:06Z</time>
      </trkpt>
      <trkpt lat="49.19018" lon="-0.37202">
        <ele>23.21</ele>
        <time>2016-08-09T08:11:13Z</time>
      </trkpt>
      <trkpt lat="49.1902" lon="-0.37207">
        <ele>23.69</ele>
        <time>2016-08-09T08:11:14Z</time>
      </trkpt>
      <trkpt lat="49.19046" lon="-0.37257">
        <ele>25.61</ele>
        <time>2016-08-09T08:11:24Z</time>
      </trkpt>
      <trkpt lat="49.19048" lon="-0.37261">
        <ele>26.09</ele>
        <time>2016-08-09T08:11:25Z</time>
      </trkpt>
      <trkpt lat="49.19058" lon="-0.37282">
        <ele>26.57</ele>
        <time>2016-08-09T08:11:29Z</time>
      </trkpt>
      <trkpt lat="49.1907" lon="-0.373">
        <ele>27.05</ele>
        <time>2016-08-09T08:11:33Z</time>
      </trkpt>
      <trkpt lat="49.19072" lon="-0.37305">
        <ele>27.05</ele>
        <time>2016-08-09T08:11:34Z</time>
      </trkpt>
      <trkpt lat="49.19109" lon="-0.37384">
        <ele>32.34</ele>
        <time>2016-08-09T08:11:50Z</time>
      </trkpt>
      <trkpt lat="49.19149" lon="-0.37458">
        <ele>36.67</ele>
        <time>2016-08-09T08:12:06Z</time>
      </trkpt>
      <trkpt lat="49.19171" lon="-0.375">
        <ele>34.74</ele>
        <time>2016-08-09T08:12:15Z</time>
      </trkpt>
      <trkpt lat="49.19175" lon="-0.37504">
        <ele>34.74</ele>
        <time>2016-08-09T08:12:16Z</time>
      </trkpt>
      <trkpt lat="49.19178" lon="-0.37507">
        <ele>34.74</ele>
        <time>2016-08-09T08:12:17Z</time>
      </trkpt>
      <trkpt lat="49.19182" lon="-0.37509">
        <ele>34.74</ele>
        <time>2016-08-09T08:12:18Z</time>
      </trkpt>
      <trkpt lat="49.19186" lon="-0.3751">
        <ele>34.74</ele>
        <time>2016-08-09T08:12:19Z</time>
      </trkpt>
      <trkpt lat="49.1919" lon="-0.37511">
        <ele>34.74</ele>
        <time>2016-08-09T08:12:20Z</time>
      </trkpt>
      <trkpt lat="49.19194" lon="-0.37511">
        <ele>34.74</ele>
        <time>2016-08-09T08:12:21Z</time>
      </trkpt>
      <trkpt lat="49.19212" lon="-0.37511">
        <ele>34.26</ele>
        <time>2016-08-09T08:12:27Z</time>
      </trkpt>
      <trkpt lat="49.19213" lon="-0.3751">
        <ele>34.26</ele>
        <time>2016-08-09T08:12:28Z</time>
      </trkpt>
      <trkpt lat="49.19214" lon="-0.3751">
        <ele>34.26</ele>
        <time>2016-08-09T08:12:29Z</time>
      </trkpt>
      <trkpt lat="49.19216" lon="-0.37508">
        <ele>33.78</ele>
        <time>2016-08-09T08:12:40Z</time>
      </trkpt>
      <trkpt lat="49.19216" lon="-0.37508">
        <ele>33.78</ele>
        <time>2016-08-09T08:12:59Z</time>
      </trkpt>
      <trkpt lat="49.19221" lon="-0.37506">
        <ele>35.23</ele>
        <time>2016-08-09T08:13:16Z</time>
      </trkpt>
      <trkpt lat="49.19226" lon="-0.37505">
        <ele>35.23</ele>
        <time>2016-08-09T08:13:17Z</time>
      </trkpt>
      <trkpt lat="49.1923" lon="-0.37507">
        <ele>35.23</ele>
        <time>2016-08-09T08:13:18Z</time>
      </trkpt>
      <trkpt lat="49.19234" lon="-0.37511">
        <ele>35.23</ele>
        <time>2016-08-09T08:13:19Z</time>
      </trkpt>
      <trkpt lat="49.19237" lon="-0.37517">
        <ele>34.74</ele>
        <time>2016-08-09T08:13:20Z</time>
      </trkpt>
      <trkpt lat="49.1924" lon="-0.37522">
        <ele>34.74</ele>
        <time>2016-08-09T08:13:21Z</time>
      </trkpt>
      <trkpt lat="49.19243" lon="-0.37528">
        <ele>35.23</ele>
        <time>2016-08-09T08:13:22Z</time>
      </trkpt>
      <trkpt lat="49.19246" lon="-0.37534">
        <ele>35.23</ele>
        <time>2016-08-09T08:13:23Z</time>
      </trkpt>
      <trkpt lat="49.19249" lon="-0.3754">
        <ele>35.71</ele>
        <time>2016-08-09T08:13:24Z</time>
      </trkpt>
      <trkpt lat="49.19253" lon="-0.37543">
        <ele>36.19</ele>
        <time>2016-08-09T08:13:25Z</time>
      </trkpt>
      <trkpt lat="49.19257" lon="-0.37546">
        <ele>36.19</ele>
        <time>2016-08-09T08:13:26Z</time>
      </trkpt>
      <trkpt lat="49.19261" lon="-0.37548">
        <ele>36.19</ele>
        <time>2016-08-09T08:13:27Z</time>
      </trkpt>
      <trkpt lat="49.1927" lon="-0.37553">
        <ele>36.19</ele>
        <time>2016-08-09T08:13:29Z</time>
      </trkpt>
      <trkpt lat="49.19278" lon="-0.3756">
        <ele>36.67</ele>
        <time>2016-08-09T08:13:31Z</time>
      </trkpt>
      <trkpt lat="49.19301" lon="-0.37574">
        <ele>38.11</ele>
        <time>2016-08-09T08:13:36Z</time>
      </trkpt>
      <trkpt lat="49.19306" lon="-0.37578">
        <ele>38.11</ele>
        <time>2016-08-09T08:13:37Z</time>
      </trkpt>
      <trkpt lat="49.19331" lon="-0.37606">
        <ele>38.11</ele>
        <time>2016-08-09T08:13:43Z</time>
      </trkpt>
      <trkpt lat="49.19339" lon="-0.37615">
        <ele>38.11</ele>
        <time>2016-08-09T08:13:45Z</time>
      </trkpt>
      <trkpt lat="49.19351" lon="-0.37627">
        <ele>38.59</ele>
        <time>2016-08-09T08:13:48Z</time>
      </trkpt>
      <trkpt lat="49.19379" lon="-0.37657">
        <ele>39.55</ele>
        <time>2016-08-09T08:13:55Z</time>
      </trkpt>
      <trkpt lat="49.19382" lon="-0.37661">
        <ele>40.03</ele>
        <time>2016-08-09T08:13:56Z</time>
      </trkpt>
      <trkpt lat="49.19386" lon="-0.37664">
        <ele>40.03</ele>
        <time>2016-08-09T08:13:57Z</time>
      </trkpt>
      <trkpt lat="49.19412" lon="-0.37687">
        <ele>40.03</ele>
        <time>2016-08-09T08:14:05Z</time>
      </trkpt>
      <trkpt lat="49.1942" lon="-0.37691">
        <ele>40.03</ele>
        <time>2016-08-09T08:14:07Z</time>
      </trkpt>
      <trkpt lat="49.19424" lon="-0.37692">
        <ele>40.03</ele>
        <time>2016-08-09T08:14:08Z</time>
      </trkpt>
      <trkpt lat="49.19429" lon="-0.37693">
        <ele>40.03</ele>
        <time>2016-08-09T08:14:09Z</time>
      </trkpt>
      <trkpt lat="49.19489" lon="-0.37728">
        <ele>36.19</ele>
        <time>2016-08-09T08:14:20Z</time>
      </trkpt>
      <trkpt lat="49.19512" lon="-0.37752">
        <ele>34.26</ele>
        <time>2016-08-09T08:14:24Z</time>
      </trkpt>
      <trkpt lat="49.19516" lon="-0.37759">
        <ele>33.78</ele>
        <time>2016-08-09T08:14:25Z</time>
      </trkpt>
      <trkpt lat="49.1952" lon="-0.37767">
        <ele>33.78</ele>
        <time>2016-08-09T08:14:26Z</time>
      </trkpt>
      <trkpt lat="49.19522" lon="-0.37775">
        <ele>33.3</ele>
        <time>2016-08-09T08:14:27Z</time>
      </trkpt>
      <trkpt lat="49.19523" lon="-0.37784">
        <ele>33.3</ele>
        <time>2016-08-09T08:14:28Z</time>
      </trkpt>
      <trkpt lat="49.19523" lon="-0.37793">
        <ele>33.3</ele>
        <time>2016-08-09T08:14:29Z</time>
      </trkpt>
      <trkpt lat="49.19524" lon="-0.37802">
        <ele>32.82</ele>
        <time>2016-08-09T08:14:30Z</time>
      </trkpt>
      <trkpt lat="49.19527" lon="-0.3781">
        <ele>32.82</ele>
        <time>2016-08-09T08:14:31Z</time>
      </trkpt>
      <trkpt lat="49.19531" lon="-0.37817">
        <ele>33.3</ele>
        <time>2016-08-09T08:14:32Z</time>
      </trkpt>
      <trkpt lat="49.19543" lon="-0.37834">
        <ele>33.78</ele>
        <time>2016-08-09T08:14:35Z</time>
      </trkpt>
      <trkpt lat="49.19546" lon="-0.37841">
        <ele>33.78</ele>
        <time>2016-08-09T08:14:36Z</time>
      </trkpt>
      <trkpt lat="49.19548" lon="-0.37848">
        <ele>34.26</ele>
        <time>2016-08-09T08:14:37Z</time>
      </trkpt>
      <trkpt lat="49.19549" lon="-0.37856">
        <ele>34.26</ele>
        <time>2016-08-09T08:14:38Z</time>
      </trkpt>
      <trkpt lat="49.19549" lon="-0.37865">
        <ele>34.74</ele>
        <time>2016-08-09T08:14:39Z</time>
      </trkpt>
      <trkpt lat="49.1955" lon="-0.37873">
        <ele>34.74</ele>
        <time>2016-08-09T08:14:40Z</time>
      </trkpt>
      <trkpt lat="49.19547" lon="-0.37941">
        <ele>36.19</ele>
        <time>2016-08-09T08:14:48Z</time>
      </trkpt>
      <trkpt lat="49.19546" lon="-0.37957">
        <ele>36.19</ele>
        <time>2016-08-09T08:14:50Z</time>
      </trkpt>
      <trkpt lat="49.19546" lon="-0.37965">
        <ele>36.67</ele>
        <time>2016-08-09T08:14:51Z</time>
      </trkpt>
      <trkpt lat="49.19548" lon="-0.37972">
        <ele>37.15</ele>
        <time>2016-08-09T08:14:52Z</time>
      </trkpt>
      <trkpt lat="49.19551" lon="-0.37977">
        <ele>37.63</ele>
        <time>2016-08-09T08:14:53Z</time>
      </trkpt>
      <trkpt lat="49.19555" lon="-0.37978">
        <ele>38.11</ele>
        <time>2016-08-09T08:14:54Z</time>
      </trkpt>
      <trkpt lat="49.19559" lon="-0.37976">
        <ele>38.11</ele>
        <time>2016-08-09T08:14:55Z</time>
      </trkpt>
      <trkpt lat="49.19561" lon="-0.37971">
        <ele>38.59</ele>
        <time>2016-08-09T08:14:56Z</time>
      </trkpt>
      <trkpt lat="49.19561" lon="-0.37966">
        <ele>38.59</ele>
        <time>2016-08-09T08:14:57Z</time>
      </trkpt>
      <trkpt lat="49.19562" lon="-0.37958">
        <ele>38.59</ele>
        <time>2016-08-09T08:14:58Z</time>
      </trkpt>
      <trkpt lat="49.19562" lon="-0.3795">
        <ele>38.59</ele>
        <time>2016-08-09T08:14:59Z</time>
      </trkpt>
      <trkpt lat="49.19564" lon="-0.37942">
        <ele>38.59</ele>
        <time>2016-08-09T08:15:00Z</time>
      </trkpt>
      <trkpt lat="49.19566" lon="-0.37934">
        <ele>38.59</ele>
        <time>2016-08-09T08:15:01Z</time>
      </trkpt>
      <trkpt lat="49.19581" lon="-0.37847">
        <ele>41.47</ele>
        <time>2016-08-09T08:15:12Z</time>
      </trkpt>
      <trkpt lat="49.19584" lon="-0.37842">
        <ele>41.95</ele>
        <time>2016-08-09T08:15:13Z</time>
      </trkpt>
      <trkpt lat="49.19589" lon="-0.3784">
        <ele>41.95</ele>
        <time>2016-08-09T08:15:14Z</time>
      </trkpt>
      <trkpt lat="49.19594" lon="-0.37841">
        <ele>42.44</ele>
        <time>2016-08-09T08:15:15Z</time>
      </trkpt>
      <trkpt lat="49.19598" lon="-0.37844">
        <ele>42.44</ele>
        <time>2016-08-09T08:15:16Z</time>
      </trkpt>
      <trkpt lat="49.19601" lon="-0.37847">
        <ele>42.44</ele>
        <time>2016-08-09T08:15:17Z</time>
      </trkpt>
      <trkpt lat="49.19605" lon="-0.3785">
        <ele>42.44</ele>
        <time>2016-08-09T08:15:18Z</time>
      </trkpt>
      <trkpt lat="49.19608" lon="-0.37853">
        <ele>42.44</ele>
        <time>2016-08-09T08:15:19Z</time>
      </trkpt>
      <trkpt lat="49.19662" lon="-0.37904">
        <ele>42.44</ele>
        <time>2016-08-09T08:15:33Z</time>
      </trkpt>
      <trkpt lat="49.19674" lon="-0.37916">
        <ele>41.95</ele>
        <time>2016-08-09T08:15:36Z</time>
      </trkpt>
      <trkpt lat="49.19678" lon="-0.37922">
        <ele>41.95</ele>
        <time>2016-08-09T08:15:37Z</time>
      </trkpt>
      <trkpt lat="49.1968" lon="-0.37929">
        <ele>41.95</ele>
        <time>2016-08-09T08:15:38Z</time>
      </trkpt>
      <trkpt lat="49.19684" lon="-0.37944">
        <ele>41.95</ele>
        <time>2016-08-09T08:15:40Z</time>
      </trkpt>
      <trkpt lat="49.19702" lon="-0.38001">
        <ele>43.88</ele>
        <time>2016-08-09T08:15:49Z</time>
      </trkpt>
      <trkpt lat="49.19723" lon="-0.38068">
        <ele>46.76</ele>
        <time>2016-08-09T08:16:00Z</time>
      </trkpt>
      <trkpt lat="49.19726" lon="-0.38074">
        <ele>47.24</ele>
        <time>2016-08-09T08:16:01Z</time>
      </trkpt>
      <trkpt lat="49.19745" lon="-0.38128">
        <ele>49.16</ele>
        <time>2016-08-09T08:16:13Z</time>
      </trkpt>
      <trkpt lat="49.19753" lon="-0.3815">
        <ele>49.65</ele>
        <time>2016-08-09T08:16:17Z</time>
      </trkpt>
      <trkpt lat="49.19764" lon="-0.38181">
        <ele>51.09</ele>
        <time>2016-08-09T08:16:22Z</time>
      </trkpt>
      <trkpt lat="49.19766" lon="-0.38187">
        <ele>51.09</ele>
        <time>2016-08-09T08:16:23Z</time>
      </trkpt>
      <trkpt lat="49.19797" lon="-0.38268">
        <ele>53.97</ele>
        <time>2016-08-09T08:16:37Z</time>
      </trkpt>
      <trkpt lat="49.19818" lon="-0.38322">
        <ele>54.45</ele>
        <time>2016-08-09T08:16:50Z</time>
      </trkpt>
      <trkpt lat="49.19829" lon="-0.38348">
        <ele>55.89</ele>
        <time>2016-08-09T08:16:57Z</time>
      </trkpt>
      <trkpt lat="49.19845" lon="-0.38383">
        <ele>57.34</ele>
        <time>2016-08-09T08:17:08Z</time>
      </trkpt>
      <trkpt lat="49.19846" lon="-0.38387">
        <ele>57.34</ele>
        <time>2016-08-09T08:17:09Z</time>
      </trkpt>
      <trkpt lat="49.19848" lon="-0.38391">
        <ele>57.34</ele>
        <time>2016-08-09T08:17:10Z</time>
      </trkpt>
      <trkpt lat="49.19854" lon="-0.38405">
        <ele>57.34</ele>
        <time>2016-08-09T08:17:13Z</time>
      </trkpt>
      <trkpt lat="49.1988" lon="-0.38459">
        <ele>58.3</ele>
        <time>2016-08-09T08:17:22Z</time>
      </trkpt>
      <trkpt lat="49.19921" lon="-0.38541">
        <ele>61.18</ele>
        <time>2016-08-09T08:17:37Z</time>
      </trkpt>
      <trkpt lat="49.19939" lon="-0.3857">
        <ele>61.66</ele>
        <time>2016-08-09T08:17:46Z</time>
      </trkpt>
      <trkpt lat="49.19941" lon="-0.38572">
        <ele>61.66</ele>
        <time>2016-08-09T08:17:47Z</time>
      </trkpt>
      <trkpt lat="49.19942" lon="-0.38575">
        <ele>61.66</ele>
        <time>2016-08-09T08:17:48Z</time>
      </trkpt>
      <trkpt lat="49.19943" lon="-0.38577">
        <ele>61.66</ele>
        <time>2016-08-09T08:17:49Z</time>
      </trkpt>
      <trkpt lat="49.19944" lon="-0.38579">
        <ele>62.14</ele>
        <time>2016-08-09T08:17:50Z</time>
      </trkpt>
      <trkpt lat="49.19945" lon="-0.3858">
        <ele>62.14</ele>
        <time>2016-08-09T08:17:51Z</time>
      </trkpt>
      <trkpt lat="49.19946" lon="-0.38581">
        <ele>62.14</ele>
        <time>2016-08-09T08:17:52Z</time>
      </trkpt>
      <trkpt lat="49.19947" lon="-0.38581">
        <ele>62.14</ele>
        <time>2016-08-09T08:18:05Z</time>
      </trkpt>
      <trkpt lat="49.19949" lon="-0.38581">
        <ele>62.62</ele>
        <time>2016-08-09T08:18:20Z</time>
      </trkpt>
      <trkpt lat="49.1995" lon="-0.3858">
        <ele>62.62</ele>
        <time>2016-08-09T08:18:21Z</time>
      </trkpt>
      <trkpt lat="49.19952" lon="-0.38581">
        <ele>62.62</ele>
        <time>2016-08-09T08:18:22Z</time>
      </trkpt>
      <trkpt lat="49.19953" lon="-0.38582">
        <ele>62.62</ele>
        <time>2016-08-09T08:18:23Z</time>
      </trkpt>
      <trkpt lat="49.19955" lon="-0.38583">
        <ele>62.62</ele>
        <time>2016-08-09T08:18:24Z</time>
      </trkpt>
      <trkpt lat="49.1996" lon="-0.38591">
        <ele>62.62</ele>
        <time>2016-08-09T08:18:31Z</time>
      </trkpt>
      <trkpt lat="49.19975" lon="-0.3862">
        <ele>62.62</ele>
        <time>2016-08-09T08:18:36Z</time>
      </trkpt>
      <trkpt lat="49.20003" lon="-0.38667">
        <ele>62.62</ele>
        <time>2016-08-09T08:18:44Z</time>
      </trkpt>
      <trkpt lat="49.20006" lon="-0.38673">
        <ele>62.62</ele>
        <time>2016-08-09T08:18:45Z</time>
      </trkpt>
      <trkpt lat="49.2005" lon="-0.38741">
        <ele>61.66</ele>
        <time>2016-08-09T08:18:58Z</time>
      </trkpt>
      <trkpt lat="49.20053" lon="-0.38746">
        <ele>61.18</ele>
        <time>2016-08-09T08:18:59Z</time>
      </trkpt>
      <trkpt lat="49.20056" lon="-0.38751">
        <ele>61.66</ele>
        <time>2016-08-09T08:19:00Z</time>
      </trkpt>
      <trkpt lat="49.20084" lon="-0.38788">
        <ele>61.66</ele>
        <time>2016-08-09T08:19:08Z</time>
      </trkpt>
      <trkpt lat="49.20088" lon="-0.38791">
        <ele>61.66</ele>
        <time>2016-08-09T08:19:09Z</time>
      </trkpt>
      <trkpt lat="49.20093" lon="-0.38793">
        <ele>61.66</ele>
        <time>2016-08-09T08:19:10Z</time>
      </trkpt>
      <trkpt lat="49.20106" lon="-0.38801">
        <ele>61.18</ele>
        <time>2016-08-09T08:19:13Z</time>
      </trkpt>
      <trkpt lat="49.2011" lon="-0.38805">
        <ele>61.18</ele>
        <time>2016-08-09T08:19:14Z</time>
      </trkpt>
      <trkpt lat="49.20112" lon="-0.38811">
        <ele>61.18</ele>
        <time>2016-08-09T08:19:15Z</time>
      </trkpt>
      <trkpt lat="49.20114" lon="-0.38818">
        <ele>61.18</ele>
        <time>2016-08-09T08:19:16Z</time>
      </trkpt>
      <trkpt lat="49.20115" lon="-0.38825">
        <ele>61.18</ele>
        <time>2016-08-09T08:19:17Z</time>
      </trkpt>
      <trkpt lat="49.20115" lon="-0.38833">
        <ele>61.18</ele>
        <time>2016-08-09T08:19:18Z</time>
      </trkpt>
      <trkpt lat="49.20117" lon="-0.38839">
        <ele>61.18</ele>
        <time>2016-08-09T08:19:19Z</time>
      </trkpt>
      <trkpt lat="49.2012" lon="-0.38845">
        <ele>61.18</ele>
        <time>2016-08-09T08:19:20Z</time>
      </trkpt>
      <trkpt lat="49.20123" lon="-0.3885">
        <ele>60.7</ele>
        <time>2016-08-09T08:19:21Z</time>
      </trkpt>
      <trkpt lat="49.20127" lon="-0.38855">
        <ele>60.7</ele>
        <time>2016-08-09T08:19:22Z</time>
      </trkpt>
      <trkpt lat="49.2013" lon="-0.38859">
        <ele>60.7</ele>
        <time>2016-08-09T08:19:23Z</time>
      </trkpt>
      <trkpt lat="49.20134" lon="-0.38864">
        <ele>60.22</ele>
        <time>2016-08-09T08:19:24Z</time>
      </trkpt>
      <trkpt lat="49.20181" lon="-0.38941">
        <ele>59.74</ele>
        <time>2016-08-09T08:19:37Z</time>
      </trkpt>
      <trkpt lat="49.20185" lon="-0.38947">
        <ele>60.22</ele>
        <time>2016-08-09T08:19:38Z</time>
      </trkpt>
      <trkpt lat="49.20245" lon="-0.39048">
        <ele>60.7</ele>
        <time>2016-08-09T08:19:54Z</time>
      </trkpt>
      <trkpt lat="49.20274" lon="-0.39098">
        <ele>61.66</ele>
        <time>2016-08-09T08:20:03Z</time>
      </trkpt>
      <trkpt lat="49.20278" lon="-0.39099">
        <ele>61.66</ele>
        <time>2016-08-09T08:20:04Z</time>
      </trkpt>
      <trkpt lat="49.20282" lon="-0.39098">
        <ele>61.66</ele>
        <time>2016-08-09T08:20:05Z</time>
      </trkpt>
      <trkpt lat="49.20286" lon="-0.39095">
        <ele>61.66</ele>
        <time>2016-08-09T08:20:06Z</time>
      </trkpt>
      <trkpt lat="49.2029" lon="-0.39093">
        <ele>61.66</ele>
        <time>2016-08-09T08:20:07Z</time>
      </trkpt>
      <trkpt lat="49.20295" lon="-0.39092">
        <ele>61.66</ele>
        <time>2016-08-09T08:20:08Z</time>
      </trkpt>
      <trkpt lat="49.20299" lon="-0.39091">
        <ele>62.14</ele>
        <time>2016-08-09T08:20:09Z</time>
      </trkpt>
      <trkpt lat="49.20303" lon="-0.39092">
        <ele>62.14</ele>
        <time>2016-08-09T08:20:10Z</time>
      </trkpt>
      <trkpt lat="49.20307" lon="-0.39093">
        <ele>62.62</ele>
        <time>2016-08-09T08:20:11Z</time>
      </trkpt>
      <trkpt lat="49.20311" lon="-0.39095">
        <ele>62.62</ele>
        <time>2016-08-09T08:20:12Z</time>
      </trkpt>
      <trkpt lat="49.20315" lon="-0.39098">
        <ele>63.1</ele>
        <time>2016-08-09T08:20:13Z</time>
      </trkpt>
      <trkpt lat="49.20319" lon="-0.39101">
        <ele>63.1</ele>
        <time>2016-08-09T08:20:14Z</time>
      </trkpt>
      <trkpt lat="49.20322" lon="-0.39106">
        <ele>63.1</ele>
        <time>2016-08-09T08:20:15Z</time>
      </trkpt>
      <trkpt lat="49.20329" lon="-0.39116">
        <ele>62.62</ele>
        <time>2016-08-09T08:20:17Z</time>
      </trkpt>
      <trkpt lat="49.20332" lon="-0.39123">
        <ele>62.62</ele>
        <time>2016-08-09T08:20:18Z</time>
      </trkpt>
      <trkpt lat="49.20333" lon="-0.39131">
        <ele>62.62</ele>
        <time>2016-08-09T08:20:19Z</time>
      </trkpt>
      <trkpt lat="49.20338" lon="-0.39155">
        <ele>63.58</ele>
        <time>2016-08-09T08:20:22Z</time>
      </trkpt>
      <trkpt lat="49.20339" lon="-0.39163">
        <ele>63.58</ele>
        <time>2016-08-09T08:20:23Z</time>
      </trkpt>
      <trkpt lat="49.20341" lon="-0.3917">
        <ele>63.58</ele>
        <time>2016-08-09T08:20:24Z</time>
      </trkpt>
      <trkpt lat="49.20345" lon="-0.39177">
        <ele>63.58</ele>
        <time>2016-08-09T08:20:25Z</time>
      </trkpt>
      <trkpt lat="49.20349" lon="-0.39182">
        <ele>63.58</ele>
        <time>2016-08-09T08:20:26Z</time>
      </trkpt>
      <trkpt lat="49.20354" lon="-0.39186">
        <ele>63.58</ele>
        <time>2016-08-09T08:20:27Z</time>
      </trkpt>
      <trkpt lat="49.20359" lon="-0.3919">
        <ele>63.1</ele>
        <time>2016-08-09T08:20:28Z</time>
      </trkpt>
      <trkpt lat="49.2043" lon="-0.39263">
        <ele>65.51</ele>
        <time>2016-08-09T08:20:43Z</time>
      </trkpt>
      <trkpt lat="49.20456" lon="-0.39294">
        <ele>65.99</ele>
        <time>2016-08-09T08:20:49Z</time>
      </trkpt>
      <trkpt lat="49.20461" lon="-0.39298">
        <ele>65.99</ele>
        <time>2016-08-09T08:20:50Z</time>
      </trkpt>
      <trkpt lat="49.20465" lon="-0.393">
        <ele>65.99</ele>
        <time>2016-08-09T08:20:51Z</time>
      </trkpt>
      <trkpt lat="49.2047" lon="-0.39301">
        <ele>65.99</ele>
        <time>2016-08-09T08:20:52Z</time>
      </trkpt>
      <trkpt lat="49.20475" lon="-0.39301">
        <ele>66.47</ele>
        <time>2016-08-09T08:20:53Z</time>
      </trkpt>
      <trkpt lat="49.20479" lon="-0.39302">
        <ele>66.47</ele>
        <time>2016-08-09T08:20:54Z</time>
      </trkpt>
      <trkpt lat="49.20482" lon="-0.39304">
        <ele>66.47</ele>
        <time>2016-08-09T08:20:55Z</time>
      </trkpt>
      <trkpt lat="49.20483" lon="-0.39307">
        <ele>66.95</ele>
        <time>2016-08-09T08:20:56Z</time>
      </trkpt>
      <trkpt lat="49.2049" lon="-0.39322">
        <ele>66.47</ele>
        <time>2016-08-09T08:21:00Z</time>
      </trkpt>
      <trkpt lat="49.2049" lon="-0.39328">
        <ele>66.47</ele>
        <time>2016-08-09T08:21:01Z</time>
      </trkpt>
      <trkpt lat="49.20491" lon="-0.39334">
        <ele>66.47</ele>
        <time>2016-08-09T08:21:02Z</time>
      </trkpt>
      <trkpt lat="49.20493" lon="-0.39342">
        <ele>66.95</ele>
        <time>2016-08-09T08:21:03Z</time>
      </trkpt>
      <trkpt lat="49.20497" lon="-0.39348">
        <ele>66.95</ele>
        <time>2016-08-09T08:21:04Z</time>
      </trkpt>
      <trkpt lat="49.205" lon="-0.39354">
        <ele>67.43</ele>
        <time>2016-08-09T08:21:05Z</time>
      </trkpt>
      <trkpt lat="49.20564" lon="-0.3946">
        <ele>68.87</ele>
        <time>2016-08-09T08:21:22Z</time>
      </trkpt>
      <trkpt lat="49.20622" lon="-0.3956">
        <ele>68.87</ele>
        <time>2016-08-09T08:21:38Z</time>
      </trkpt>
      <trkpt lat="49.20676" lon="-0.39689">
        <ele>70.79</ele>
        <time>2016-08-09T08:21:56Z</time>
      </trkpt>
      <trkpt lat="49.20734" lon="-0.39846">
        <ele>72.24</ele>
        <time>2016-08-09T08:22:16Z</time>
      </trkpt>
      <trkpt lat="49.20781" lon="-0.39949">
        <ele>72.72</ele>
        <time>2016-08-09T08:22:30Z</time>
      </trkpt>
      <trkpt lat="49.20835" lon="-0.4006">
        <ele>72.72</ele>
        <time>2016-08-09T08:22:46Z</time>
      </trkpt>
      <trkpt lat="49.20895" lon="-0.40205">
        <ele>72.72</ele>
        <time>2016-08-09T08:23:05Z</time>
      </trkpt>
      <trkpt lat="49.20928" lon="-0.40291">
        <ele>73.2</ele>
        <time>2016-08-09T08:23:16Z</time>
      </trkpt>
      <trkpt lat="49.20978" lon="-0.40411">
        <ele>73.2</ele>
        <time>2016-08-09T08:23:31Z</time>
      </trkpt>
      <trkpt lat="49.20988" lon="-0.40431">
        <ele>72.72</ele>
        <time>2016-08-09T08:23:34Z</time>
      </trkpt>
      <trkpt lat="49.20992" lon="-0.40435">
        <ele>72.72</ele>
        <time>2016-08-09T08:23:35Z</time>
      </trkpt>
      <trkpt lat="49.20995" lon="-0.40439">
        <ele>72.72</ele>
        <time>2016-08-09T08:23:36Z</time>
      </trkpt>
      <trkpt lat="49.20998" lon="-0.40444">
        <ele>72.72</ele>
        <time>2016-08-09T08:23:37Z</time>
      </trkpt>
      <trkpt lat="49.20999" lon="-0.40451">
        <ele>73.2</ele>
        <time>2016-08-09T08:23:38Z</time>
      </trkpt>
      <trkpt lat="49.20999" lon="-0.40459">
        <ele>73.2</ele>
        <time>2016-08-09T08:23:39Z</time>
      </trkpt>
      <trkpt lat="49.21" lon="-0.40466">
        <ele>73.2</ele>
        <time>2016-08-09T08:23:40Z</time>
      </trkpt>
      <trkpt lat="49.21002" lon="-0.40474">
        <ele>73.2</ele>
        <time>2016-08-09T08:23:41Z</time>
      </trkpt>
      <trkpt lat="49.21045" lon="-0.40586">
        <ele>71.27</ele>
        <time>2016-08-09T08:23:55Z</time>
      </trkpt>
      <trkpt lat="49.2107" lon="-0.40646">
        <ele>71.76</ele>
        <time>2016-08-09T08:24:03Z</time>
      </trkpt>
      <trkpt lat="49.21074" lon="-0.40652">
        <ele>71.76</ele>
        <time>2016-08-09T08:24:04Z</time>
      </trkpt>
      <trkpt lat="49.21077" lon="-0.40659">
        <ele>71.76</ele>
        <time>2016-08-09T08:24:05Z</time>
      </trkpt>
      <trkpt lat="49.21079" lon="-0.40666">
        <ele>71.76</ele>
        <time>2016-08-09T08:24:06Z</time>
      </trkpt>
      <trkpt lat="49.21081" lon="-0.40673">
        <ele>71.76</ele>
        <time>2016-08-09T08:24:07Z</time>
      </trkpt>
      <trkpt lat="49.21085" lon="-0.40679">
        <ele>71.76</ele>
        <time>2016-08-09T08:24:08Z</time>
      </trkpt>
      <trkpt lat="49.21089" lon="-0.40685">
        <ele>71.76</ele>
        <time>2016-08-09T08:24:09Z</time>
      </trkpt>
      <trkpt lat="49.21092" lon="-0.40691">
        <ele>71.76</ele>
        <time>2016-08-09T08:24:10Z</time>
      </trkpt>
      <trkpt lat="49.21095" lon="-0.40699">
        <ele>71.76</ele>
        <time>2016-08-09T08:24:11Z</time>
      </trkpt>
      <trkpt lat="49.21097" lon="-0.40707">
        <ele>71.76</ele>
        <time>2016-08-09T08:24:12Z</time>
      </trkpt>
      <trkpt lat="49.21114" lon="-0.40755">
        <ele>71.76</ele>
        <time>2016-08-09T08:24:18Z</time>
      </trkpt>
      <trkpt lat="49.21117" lon="-0.40763">
        <ele>71.27</ele>
        <time>2016-08-09T08:24:19Z</time>
      </trkpt>
      <trkpt lat="49.2112" lon="-0.4077">
        <ele>71.27</ele>
        <time>2016-08-09T08:24:20Z</time>
      </trkpt>
      <trkpt lat="49.21185" lon="-0.40887">
        <ele>71.76</ele>
        <time>2016-08-09T08:24:36Z</time>
      </trkpt>
      <trkpt lat="49.21194" lon="-0.40901">
        <ele>71.76</ele>
        <time>2016-08-09T08:24:38Z</time>
      </trkpt>
      <trkpt lat="49.21276" lon="-0.41021">
        <ele>70.79</ele>
        <time>2016-08-09T08:24:54Z</time>
      </trkpt>
      <trkpt lat="49.21357" lon="-0.41155">
        <ele>70.79</ele>
        <time>2016-08-09T08:25:10Z</time>
      </trkpt>
      <trkpt lat="49.21392" lon="-0.41216">
        <ele>69.35</ele>
        <time>2016-08-09T08:25:17Z</time>
      </trkpt>
      <trkpt lat="49.21445" lon="-0.41299">
        <ele>68.87</ele>
        <time>2016-08-09T08:25:28Z</time>
      </trkpt>
      <trkpt lat="49.21454" lon="-0.41311">
        <ele>68.87</ele>
        <time>2016-08-09T08:25:30Z</time>
      </trkpt>
      <trkpt lat="49.21462" lon="-0.41325">
        <ele>69.35</ele>
        <time>2016-08-09T08:25:32Z</time>
      </trkpt>
      <trkpt lat="49.21559" lon="-0.41432">
        <ele>67.91</ele>
        <time>2016-08-09T08:25:50Z</time>
      </trkpt>
      <trkpt lat="49.21605" lon="-0.41487">
        <ele>67.43</ele>
        <time>2016-08-09T08:25:59Z</time>
      </trkpt>
      <trkpt lat="49.21609" lon="-0.41491">
        <ele>67.43</ele>
        <time>2016-08-09T08:26:00Z</time>
      </trkpt>
      <trkpt lat="49.21614" lon="-0.41495">
        <ele>67.43</ele>
        <time>2016-08-09T08:26:01Z</time>
      </trkpt>
      <trkpt lat="49.21619" lon="-0.41497">
        <ele>67.43</ele>
        <time>2016-08-09T08:26:02Z</time>
      </trkpt>
      <trkpt lat="49.21624" lon="-0.41499">
        <ele>67.91</ele>
        <time>2016-08-09T08:26:03Z</time>
      </trkpt>
      <trkpt lat="49.21629" lon="-0.41501">
        <ele>67.91</ele>
        <time>2016-08-09T08:26:04Z</time>
      </trkpt>
      <trkpt lat="49.21633" lon="-0.41506">
        <ele>68.39</ele>
        <time>2016-08-09T08:26:05Z</time>
      </trkpt>
      <trkpt lat="49.21635" lon="-0.41512">
        <ele>68.39</ele>
        <time>2016-08-09T08:26:06Z</time>
      </trkpt>
      <trkpt lat="49.21637" lon="-0.41519">
        <ele>68.39</ele>
        <time>2016-08-09T08:26:07Z</time>
      </trkpt>
      <trkpt lat="49.21639" lon="-0.41527">
        <ele>68.39</ele>
        <time>2016-08-09T08:26:08Z</time>
      </trkpt>
      <trkpt lat="49.21644" lon="-0.41544">
        <ele>67.91</ele>
        <time>2016-08-09T08:26:10Z</time>
      </trkpt>
      <trkpt lat="49.217" lon="-0.41674">
        <ele>67.91</ele>
        <time>2016-08-09T08:26:26Z</time>
      </trkpt>
      <trkpt lat="49.21755" lon="-0.41819">
        <ele>65.03</ele>
        <time>2016-08-09T08:26:43Z</time>
      </trkpt>
      <trkpt lat="49.21765" lon="-0.41845">
        <ele>65.03</ele>
        <time>2016-08-09T08:26:46Z</time>
      </trkpt>
      <trkpt lat="49.21813" lon="-0.41976">
        <ele>63.1</ele>
        <time>2016-08-09T08:27:00Z</time>
      </trkpt>
      <trkpt lat="49.2182" lon="-0.41993">
        <ele>62.62</ele>
        <time>2016-08-09T08:27:02Z</time>
      </trkpt>
      <trkpt lat="49.21869" lon="-0.42119">
        <ele>62.14</ele>
        <time>2016-08-09T08:27:16Z</time>
      </trkpt>
      <trkpt lat="49.21904" lon="-0.42261">
        <ele>63.58</ele>
        <time>2016-08-09T08:27:30Z</time>
      </trkpt>
      <trkpt lat="49.21941" lon="-0.42395">
        <ele>62.62</ele>
        <time>2016-08-09T08:27:44Z</time>
      </trkpt>
      <trkpt lat="49.21955" lon="-0.42433">
        <ele>62.62</ele>
        <time>2016-08-09T08:27:57Z</time>
      </trkpt>
      <trkpt lat="49.21971" lon="-0.42467">
        <ele>61.66</ele>
        <time>2016-08-09T08:28:05Z</time>
      </trkpt>
      <trkpt lat="49.21975" lon="-0.42475">
        <ele>61.66</ele>
        <time>2016-08-09T08:28:06Z</time>
      </trkpt>
      <trkpt lat="49.21979" lon="-0.42484">
        <ele>61.66</ele>
        <time>2016-08-09T08:28:07Z</time>
      </trkpt>
      <trkpt lat="49.22051" lon="-0.42624">
        <ele>63.58</ele>
        <time>2016-08-09T08:28:24Z</time>
      </trkpt>
      <trkpt lat="49.22142" lon="-0.42755">
        <ele>63.58</ele>
        <time>2016-08-09T08:28:43Z</time>
      </trkpt>
      <trkpt lat="49.22226" lon="-0.42835">
        <ele>65.99</ele>
        <time>2016-08-09T08:28:59Z</time>
      </trkpt>
      <trkpt lat="49.22325" lon="-0.42937">
        <ele>64.07</ele>
        <time>2016-08-09T08:29:18Z</time>
      </trkpt>
      <trkpt lat="49.22403" lon="-0.43063">
        <ele>64.07</ele>
        <time>2016-08-09T08:29:36Z</time>
      </trkpt>
      <trkpt lat="49.22459" lon="-0.43202">
        <ele>62.14</ele>
        <time>2016-08-09T08:29:53Z</time>
      </trkpt>
      <trkpt lat="49.22514" lon="-0.43384">
        <ele>60.7</ele>
        <time>2016-08-09T08:30:12Z</time>
      </trkpt>
      <trkpt lat="49.22583" lon="-0.43521">
        <ele>58.78</ele>
        <time>2016-08-09T08:30:27Z</time>
      </trkpt>
      <trkpt lat="49.22675" lon="-0.43632">
        <ele>55.89</ele>
        <time>2016-08-09T08:30:43Z</time>
      </trkpt>
      <trkpt lat="49.22784" lon="-0.43734">
        <ele>51.09</ele>
        <time>2016-08-09T08:30:58Z</time>
      </trkpt>
      <trkpt lat="49.22905" lon="-0.43805">
        <ele>47.72</ele>
        <time>2016-08-09T08:31:12Z</time>
      </trkpt>
      <trkpt lat="49.2293" lon="-0.43825">
        <ele>45.8</ele>
        <time>2016-08-09T08:31:15Z</time>
      </trkpt>
      <trkpt lat="49.23022" lon="-0.43949">
        <ele>39.55</ele>
        <time>2016-08-09T08:31:28Z</time>
      </trkpt>
      <trkpt lat="49.23121" lon="-0.44075">
        <ele>34.26</ele>
        <time>2016-08-09T08:31:42Z</time>
      </trkpt>
      <trkpt lat="49.23253" lon="-0.44217">
        <ele>32.34</ele>
        <time>2016-08-09T08:32:00Z</time>
      </trkpt>
      <trkpt lat="49.23342" lon="-0.44349">
        <ele>29.46</ele>
        <time>2016-08-09T08:32:14Z</time>
      </trkpt>
      <trkpt lat="49.23394" lon="-0.44458">
        <ele>29.94</ele>
        <time>2016-08-09T08:32:24Z</time>
      </trkpt>
      <trkpt lat="49.23453" lon="-0.446">
        <ele>31.86</ele>
        <time>2016-08-09T08:32:38Z</time>
      </trkpt>
      <trkpt lat="49.23515" lon="-0.44734">
        <ele>34.26</ele>
        <time>2016-08-09T08:32:54Z</time>
      </trkpt>
      <trkpt lat="49.23577" lon="-0.44832">
        <ele>35.23</ele>
        <time>2016-08-09T08:33:09Z</time>
      </trkpt>
      <trkpt lat="49.2365" lon="-0.44927">
        <ele>37.63</ele>
        <time>2016-08-09T08:33:26Z</time>
      </trkpt>
      <trkpt lat="49.23733" lon="-0.44998">
        <ele>39.55</ele>
        <time>2016-08-09T08:33:44Z</time>
      </trkpt>
      <trkpt lat="49.23815" lon="-0.45048">
        <ele>39.07</ele>
        <time>2016-08-09T08:34:01Z</time>
      </trkpt>
      <trkpt lat="49.23835" lon="-0.45057">
        <ele>38.11</ele>
        <time>2016-08-09T08:34:05Z</time>
      </trkpt>
      <trkpt lat="49.23841" lon="-0.45057">
        <ele>38.11</ele>
        <time>2016-08-09T08:34:06Z</time>
      </trkpt>
      <trkpt lat="49.23847" lon="-0.45057">
        <ele>38.11</ele>
        <time>2016-08-09T08:34:07Z</time>
      </trkpt>
      <trkpt lat="49.23853" lon="-0.45057">
        <ele>37.63</ele>
        <time>2016-08-09T08:34:08Z</time>
      </trkpt>
      <trkpt lat="49.23859" lon="-0.45054">
        <ele>37.15</ele>
        <time>2016-08-09T08:34:09Z</time>
      </trkpt>
      <trkpt lat="49.23865" lon="-0.45052">
        <ele>36.67</ele>
        <time>2016-08-09T08:34:10Z</time>
      </trkpt>
      <trkpt lat="49.23883" lon="-0.45044">
        <ele>37.15</ele>
        <time>2016-08-09T08:34:13Z</time>
      </trkpt>
      <trkpt lat="49.23889" lon="-0.45042">
        <ele>37.15</ele>
        <time>2016-08-09T08:34:14Z</time>
      </trkpt>
      <trkpt lat="49.23895" lon="-0.45042">
        <ele>36.67</ele>
        <time>2016-08-09T08:34:15Z</time>
      </trkpt>
      <trkpt lat="49.23907" lon="-0.45045">
        <ele>37.15</ele>
        <time>2016-08-09T08:34:17Z</time>
      </trkpt>
      <trkpt lat="49.23913" lon="-0.45048">
        <ele>36.67</ele>
        <time>2016-08-09T08:34:18Z</time>
      </trkpt>
      <trkpt lat="49.23918" lon="-0.45053">
        <ele>36.67</ele>
        <time>2016-08-09T08:34:19Z</time>
      </trkpt>
      <trkpt lat="49.23923" lon="-0.45058">
        <ele>36.19</ele>
        <time>2016-08-09T08:34:20Z</time>
      </trkpt>
      <trkpt lat="49.23928" lon="-0.45064">
        <ele>36.19</ele>
        <time>2016-08-09T08:34:21Z</time>
      </trkpt>
      <trkpt lat="49.23932" lon="-0.45071">
        <ele>35.71</ele>
        <time>2016-08-09T08:34:22Z</time>
      </trkpt>
      <trkpt lat="49.23937" lon="-0.45077">
        <ele>35.71</ele>
        <time>2016-08-09T08:34:23Z</time>
      </trkpt>
      <trkpt lat="49.24003" lon="-0.45195">
        <ele>34.74</ele>
        <time>2016-08-09T08:34:39Z</time>
      </trkpt>
      <trkpt lat="49.24011" lon="-0.45209">
        <ele>34.74</ele>
        <time>2016-08-09T08:34:41Z</time>
      </trkpt>
      <trkpt lat="49.24038" lon="-0.45237">
        <ele>33.78</ele>
        <time>2016-08-09T08:34:46Z</time>
      </trkpt>
      <trkpt lat="49.24045" lon="-0.45241">
        <ele>33.3</ele>
        <time>2016-08-09T08:34:47Z</time>
      </trkpt>
      <trkpt lat="49.24123" lon="-0.45279">
        <ele>33.78</ele>
        <time>2016-08-09T08:34:59Z</time>
      </trkpt>
      <trkpt lat="49.24128" lon="-0.45282">
        <ele>34.26</ele>
        <time>2016-08-09T08:35:00Z</time>
      </trkpt>
      <trkpt lat="49.24141" lon="-0.45293">
        <ele>36.19</ele>
        <time>2016-08-09T08:35:03Z</time>
      </trkpt>
      <trkpt lat="49.2418" lon="-0.45362">
        <ele>39.07</ele>
        <time>2016-08-09T08:35:15Z</time>
      </trkpt>
      <trkpt lat="49.24182" lon="-0.45369">
        <ele>39.55</ele>
        <time>2016-08-09T08:35:16Z</time>
      </trkpt>
      <trkpt lat="49.24184" lon="-0.45376">
        <ele>39.55</ele>
        <time>2016-08-09T08:35:17Z</time>
      </trkpt>
      <trkpt lat="49.24189" lon="-0.45398">
        <ele>40.51</ele>
        <time>2016-08-09T08:35:20Z</time>
      </trkpt>
      <trkpt lat="49.242" lon="-0.45473">
        <ele>43.4</ele>
        <time>2016-08-09T08:35:30Z</time>
      </trkpt>
      <trkpt lat="49.24209" lon="-0.45518">
        <ele>44.84</ele>
        <time>2016-08-09T08:35:37Z</time>
      </trkpt>
      <trkpt lat="49.24211" lon="-0.45524">
        <ele>45.32</ele>
        <time>2016-08-09T08:35:38Z</time>
      </trkpt>
      <trkpt lat="49.24241" lon="-0.45605">
        <ele>47.24</ele>
        <time>2016-08-09T08:35:54Z</time>
      </trkpt>
      <trkpt lat="49.24285" lon="-0.45668">
        <ele>50.13</ele>
        <time>2016-08-09T08:36:10Z</time>
      </trkpt>
      <trkpt lat="49.24326" lon="-0.45739">
        <ele>51.57</ele>
        <time>2016-08-09T08:36:26Z</time>
      </trkpt>
      <trkpt lat="49.24368" lon="-0.45849">
        <ele>52.05</ele>
        <time>2016-08-09T08:36:44Z</time>
      </trkpt>
      <trkpt lat="49.24424" lon="-0.45994">
        <ele>51.09</ele>
        <time>2016-08-09T08:37:04Z</time>
      </trkpt>
      <trkpt lat="49.24471" lon="-0.46112">
        <ele>51.09</ele>
        <time>2016-08-09T08:37:20Z</time>
      </trkpt>
      <trkpt lat="49.24532" lon="-0.46256">
        <ele>50.13</ele>
        <time>2016-08-09T08:37:38Z</time>
      </trkpt>
      <trkpt lat="49.24585" lon="-0.46384">
        <ele>46.28</ele>
        <time>2016-08-09T08:37:52Z</time>
      </trkpt>
      <trkpt lat="49.2466" lon="-0.46565">
        <ele>43.4</ele>
        <time>2016-08-09T08:38:10Z</time>
      </trkpt>
      <trkpt lat="49.24733" lon="-0.46757">
        <ele>40.99</ele>
        <time>2016-08-09T08:38:29Z</time>
      </trkpt>
      <trkpt lat="49.24806" lon="-0.46944">
        <ele>38.59</ele>
        <time>2016-08-09T08:38:48Z</time>
      </trkpt>
      <trkpt lat="49.24892" lon="-0.471">
        <ele>35.71</ele>
        <time>2016-08-09T08:39:06Z</time>
      </trkpt>
      <trkpt lat="49.2498" lon="-0.47254">
        <ele>33.78</ele>
        <time>2016-08-09T08:39:24Z</time>
      </trkpt>
      <trkpt lat="49.2505" lon="-0.47365">
        <ele>35.71</ele>
        <time>2016-08-09T08:39:40Z</time>
      </trkpt>
      <trkpt lat="49.25118" lon="-0.47467">
        <ele>38.59</ele>
        <time>2016-08-09T08:39:56Z</time>
      </trkpt>
      <trkpt lat="49.25191" lon="-0.47575">
        <ele>40.03</ele>
        <time>2016-08-09T08:40:14Z</time>
      </trkpt>
      <trkpt lat="49.2525" lon="-0.47649">
        <ele>42.92</ele>
        <time>2016-08-09T08:40:29Z</time>
      </trkpt>
      <trkpt lat="49.25305" lon="-0.47719">
        <ele>45.32</ele>
        <time>2016-08-09T08:40:44Z</time>
      </trkpt>
      <trkpt lat="49.25361" lon="-0.47784">
        <ele>47.72</ele>
        <time>2016-08-09T08:40:59Z</time>
      </trkpt>
      <trkpt lat="49.25424" lon="-0.4784">
        <ele>51.57</ele>
        <time>2016-08-09T08:41:15Z</time>
      </trkpt>
      <trkpt lat="49.2545" lon="-0.47865">
        <ele>52.05</ele>
        <time>2016-08-09T08:41:22Z</time>
      </trkpt>
      <trkpt lat="49.25454" lon="-0.47868">
        <ele>52.53</ele>
        <time>2016-08-09T08:41:23Z</time>
      </trkpt>
      <trkpt lat="49.25474" lon="-0.47891">
        <ele>52.53</ele>
        <time>2016-08-09T08:41:29Z</time>
      </trkpt>
      <trkpt lat="49.25474" lon="-0.47895">
        <ele>52.53</ele>
        <time>2016-08-09T08:41:30Z</time>
      </trkpt>
      <trkpt lat="49.2548" lon="-0.47908">
        <ele>53.01</ele>
        <time>2016-08-09T08:41:39Z</time>
      </trkpt>
      <trkpt lat="49.25481" lon="-0.4791">
        <ele>53.01</ele>
        <time>2016-08-09T08:41:42Z</time>
      </trkpt>
      <trkpt lat="49.25485" lon="-0.47915">
        <ele>53.01</ele>
        <time>2016-08-09T08:41:47Z</time>
      </trkpt>
      <trkpt lat="49.25488" lon="-0.47915">
        <ele>53.01</ele>
        <time>2016-08-09T08:41:58Z</time>
      </trkpt>
      <trkpt lat="49.25489" lon="-0.47914">
        <ele>52.05</ele>
        <time>2016-08-09T08:42:36Z</time>
      </trkpt>
      <trkpt lat="49.2549" lon="-0.47914">
        <ele>52.05</ele>
        <time>2016-08-09T08:43:15Z</time>
      </trkpt>
      <trkpt lat="49.25488" lon="-0.47918">
        <ele>52.05</ele>
        <time>2016-08-09T08:43:31Z</time>
      </trkpt>
      <trkpt lat="49.25487" lon="-0.47919">
        <ele>52.05</ele>
        <time>2016-08-09T08:43:32Z</time>
      </trkpt>
      <trkpt lat="49.25485" lon="-0.47919">
        <ele>51.57</ele>
        <time>2016-08-09T08:43:44Z</time>
      </trkpt>
      <trkpt lat="49.25484" lon="-0.47918">
        <ele>51.09</ele>
        <time>2016-08-09T08:43:47Z</time>
      </trkpt>
      <trkpt lat="49.25483" lon="-0.47916">
        <ele>51.09</ele>
        <time>2016-08-09T08:43:48Z</time>
      </trkpt>
      <trkpt lat="49.25482" lon="-0.47915">
        <ele>50.61</ele>
        <time>2016-08-09T08:43:49Z</time>
      </trkpt>
      <trkpt lat="49.2548" lon="-0.47913">
        <ele>50.61</ele>
        <time>2016-08-09T08:43:50Z</time>
      </trkpt>
      <trkpt lat="49.25479" lon="-0.47911">
        <ele>50.61</ele>
        <time>2016-08-09T08:43:51Z</time>
      </trkpt>
      <trkpt lat="49.25477" lon="-0.47908">
        <ele>50.13</ele>
        <time>2016-08-09T08:43:52Z</time>
      </trkpt>
      <trkpt lat="49.25476" lon="-0.47904">
        <ele>50.13</ele>
        <time>2016-08-09T08:43:53Z</time>
      </trkpt>
      <trkpt lat="49.25475" lon="-0.47901">
        <ele>50.13</ele>
        <time>2016-08-09T08:43:54Z</time>
      </trkpt>
      <trkpt lat="49.25475" lon="-0.47894">
        <ele>50.13</ele>
        <time>2016-08-09T08:43:57Z</time>
      </trkpt>
      <trkpt lat="49.25475" lon="-0.47891">
        <ele>50.13</ele>
        <time>2016-08-09T08:43:58Z</time>
      </trkpt>
      <trkpt lat="49.25478" lon="-0.47889">
        <ele>50.13</ele>
        <time>2016-08-09T08:43:59Z</time>
      </trkpt>
      <trkpt lat="49.25481" lon="-0.47889">
        <ele>49.65</ele>
        <time>2016-08-09T08:44:00Z</time>
      </trkpt>
      <trkpt lat="49.25484" lon="-0.4789">
        <ele>49.65</ele>
        <time>2016-08-09T08:44:01Z</time>
      </trkpt>
      <trkpt lat="49.25487" lon="-0.47892">
        <ele>49.65</ele>
        <time>2016-08-09T08:44:02Z</time>
      </trkpt>
      <trkpt lat="49.25555" lon="-0.4792">
        <ele>51.57</ele>
        <time>2016-08-09T08:44:18Z</time>
      </trkpt>
      <trkpt lat="49.25649" lon="-0.47958">
        <ele>53.97</ele>
        <time>2016-08-09T08:44:39Z</time>
      </trkpt>
      <trkpt lat="49.25715" lon="-0.47987">
        <ele>54.93</ele>
        <time>2016-08-09T08:44:54Z</time>
      </trkpt>
      <trkpt lat="49.2572" lon="-0.47989">
        <ele>54.93</ele>
        <time>2016-08-09T08:44:55Z</time>
      </trkpt>
      <trkpt lat="49.25801" lon="-0.48024">
        <ele>55.89</ele>
        <time>2016-08-09T08:45:12Z</time>
      </trkpt>
      <trkpt lat="49.25888" lon="-0.48063">
        <ele>56.37</ele>
        <time>2016-08-09T08:45:30Z</time>
      </trkpt>
      <trkpt lat="49.25958" lon="-0.48093">
        <ele>57.82</ele>
        <time>2016-08-09T08:45:44Z</time>
      </trkpt>
      <trkpt lat="49.26002" lon="-0.48113">
        <ele>57.82</ele>
        <time>2016-08-09T08:45:53Z</time>
      </trkpt>
      <trkpt lat="49.26099" lon="-0.48154">
        <ele>59.26</ele>
        <time>2016-08-09T08:46:12Z</time>
      </trkpt>
      <trkpt lat="49.26194" lon="-0.48191">
        <ele>58.78</ele>
        <time>2016-08-09T08:46:29Z</time>
      </trkpt>
      <trkpt lat="49.26283" lon="-0.48223">
        <ele>57.34</ele>
        <time>2016-08-09T08:46:43Z</time>
      </trkpt>
      <trkpt lat="49.26379" lon="-0.48257">
        <ele>56.37</ele>
        <time>2016-08-09T08:46:57Z</time>
      </trkpt>
      <trkpt lat="49.26465" lon="-0.48324">
        <ele>53.97</ele>
        <time>2016-08-09T08:47:11Z</time>
      </trkpt>
      <trkpt lat="49.26543" lon="-0.48426">
        <ele>52.05</ele>
        <time>2016-08-09T08:47:26Z</time>
      </trkpt>
      <trkpt lat="49.26625" lon="-0.48537">
        <ele>52.05</ele>
        <time>2016-08-09T08:47:42Z</time>
      </trkpt>
      <trkpt lat="49.26692" lon="-0.48627">
        <ele>52.05</ele>
        <time>2016-08-09T08:47:55Z</time>
      </trkpt>
      <trkpt lat="49.26796" lon="-0.48772">
        <ele>51.57</ele>
        <time>2016-08-09T08:48:16Z</time>
      </trkpt>
      <trkpt lat="49.26881" lon="-0.48901">
        <ele>49.65</ele>
        <time>2016-08-09T08:48:34Z</time>
      </trkpt>
      <trkpt lat="49.26971" lon="-0.49002">
        <ele>47.72</ele>
        <time>2016-08-09T08:48:51Z</time>
      </trkpt>
      <trkpt lat="49.27079" lon="-0.49121">
        <ele>45.8</ele>
        <time>2016-08-09T08:49:11Z</time>
      </trkpt>
      <trkpt lat="49.27179" lon="-0.4923">
        <ele>43.88</ele>
        <time>2016-08-09T08:49:29Z</time>
      </trkpt>
      <trkpt lat="49.27287" lon="-0.49363">
        <ele>41.47</ele>
        <time>2016-08-09T08:49:49Z</time>
      </trkpt>
      <trkpt lat="49.27384" lon="-0.49492">
        <ele>39.07</ele>
        <time>2016-08-09T08:50:07Z</time>
      </trkpt>
      <trkpt lat="49.27432" lon="-0.49616">
        <ele>40.51</ele>
        <time>2016-08-09T08:50:21Z</time>
      </trkpt>
      <trkpt lat="49.27469" lon="-0.49747">
        <ele>40.99</ele>
        <time>2016-08-09T08:50:36Z</time>
      </trkpt>
      <trkpt lat="49.27511" lon="-0.49899">
        <ele>35.71</ele>
        <time>2016-08-09T08:50:50Z</time>
      </trkpt>
      <trkpt lat="49.27521" lon="-0.49937">
        <ele>33.78</ele>
        <time>2016-08-09T08:50:53Z</time>
      </trkpt>
      <trkpt lat="49.27523" lon="-0.49947">
        <ele>32.82</ele>
        <time>2016-08-09T08:50:54Z</time>
      </trkpt>
      <trkpt lat="49.27543" lon="-0.50042">
        <ele>28.02</ele>
        <time>2016-08-09T08:51:03Z</time>
      </trkpt>
      <trkpt lat="49.27555" lon="-0.50172">
        <ele>20.32</ele>
        <time>2016-08-09T08:51:12Z</time>
      </trkpt>
      <trkpt lat="49.27556" lon="-0.5018">
        <ele>19.36</ele>
        <time>2016-08-09T08:51:13Z</time>
      </trkpt>
      <trkpt lat="49.27557" lon="-0.50187">
        <ele>18.88</ele>
        <time>2016-08-09T08:51:14Z</time>
      </trkpt>
      <trkpt lat="49.27571" lon="-0.50306">
        <ele>14.56</ele>
        <time>2016-08-09T08:51:25Z</time>
      </trkpt>
      <trkpt lat="49.27589" lon="-0.50431">
        <ele>16.48</ele>
        <time>2016-08-09T08:51:37Z</time>
      </trkpt>
      <trkpt lat="49.27591" lon="-0.50439">
        <ele>16.96</ele>
        <time>2016-08-09T08:51:38Z</time>
      </trkpt>
      <trkpt lat="49.27599" lon="-0.50491">
        <ele>18.88</ele>
        <time>2016-08-09T08:51:45Z</time>
      </trkpt>
      <trkpt lat="49.27602" lon="-0.50512">
        <ele>20.32</ele>
        <time>2016-08-09T08:51:48Z</time>
      </trkpt>
      <trkpt lat="49.27603" lon="-0.50519">
        <ele>20.81</ele>
        <time>2016-08-09T08:51:49Z</time>
      </trkpt>
      <trkpt lat="49.27606" lon="-0.50531">
        <ele>21.29</ele>
        <time>2016-08-09T08:51:51Z</time>
      </trkpt>
      <trkpt lat="49.27608" lon="-0.50537">
        <ele>21.77</ele>
        <time>2016-08-09T08:51:52Z</time>
      </trkpt>
      <trkpt lat="49.2761" lon="-0.50542">
        <ele>22.25</ele>
        <time>2016-08-09T08:51:53Z</time>
      </trkpt>
      <trkpt lat="49.27611" lon="-0.50548">
        <ele>22.25</ele>
        <time>2016-08-09T08:51:54Z</time>
      </trkpt>
      <trkpt lat="49.27613" lon="-0.50554">
        <ele>22.25</ele>
        <time>2016-08-09T08:51:55Z</time>
      </trkpt>
      <trkpt lat="49.27645" lon="-0.50644">
        <ele>27.05</ele>
        <time>2016-08-09T08:52:12Z</time>
      </trkpt>
      <trkpt lat="49.27675" lon="-0.50721">
        <ele>29.94</ele>
        <time>2016-08-09T08:52:27Z</time>
      </trkpt>
      <trkpt lat="49.27705" lon="-0.50797">
        <ele>31.38</ele>
        <time>2016-08-09T08:52:42Z</time>
      </trkpt>
      <trkpt lat="49.27712" lon="-0.50811">
        <ele>32.34</ele>
        <time>2016-08-09T08:52:45Z</time>
      </trkpt>
      <trkpt lat="49.27714" lon="-0.50816">
        <ele>32.82</ele>
        <time>2016-08-09T08:52:46Z</time>
      </trkpt>
      <trkpt lat="49.27716" lon="-0.5082">
        <ele>32.82</ele>
        <time>2016-08-09T08:52:47Z</time>
      </trkpt>
      <trkpt lat="49.27719" lon="-0.50824">
        <ele>33.3</ele>
        <time>2016-08-09T08:52:48Z</time>
      </trkpt>
      <trkpt lat="49.27721" lon="-0.50829">
        <ele>32.82</ele>
        <time>2016-08-09T08:52:49Z</time>
      </trkpt>
      <trkpt lat="49.27762" lon="-0.50903">
        <ele>34.74</ele>
        <time>2016-08-09T08:53:05Z</time>
      </trkpt>
      <trkpt lat="49.27764" lon="-0.50908">
        <ele>35.23</ele>
        <time>2016-08-09T08:53:06Z</time>
      </trkpt>
      <trkpt lat="49.27766" lon="-0.50913">
        <ele>35.23</ele>
        <time>2016-08-09T08:53:07Z</time>
      </trkpt>
      <trkpt lat="49.27768" lon="-0.50918">
        <ele>35.71</ele>
        <time>2016-08-09T08:53:08Z</time>
      </trkpt>
      <trkpt lat="49.27791" lon="-0.50994">
        <ele>38.59</ele>
        <time>2016-08-09T08:53:22Z</time>
      </trkpt>
      <trkpt lat="49.27812" lon="-0.51076">
        <ele>41.95</ele>
        <time>2016-08-09T08:53:37Z</time>
      </trkpt>
      <trkpt lat="49.27827" lon="-0.51161">
        <ele>44.84</ele>
        <time>2016-08-09T08:53:52Z</time>
      </trkpt>
      <trkpt lat="49.27846" lon="-0.51278">
        <ele>47.72</ele>
        <time>2016-08-09T08:54:12Z</time>
      </trkpt>
      <trkpt lat="49.27856" lon="-0.51377">
        <ele>48.68</ele>
        <time>2016-08-09T08:54:28Z</time>
      </trkpt>
      <trkpt lat="49.27856" lon="-0.51383">
        <ele>48.68</ele>
        <time>2016-08-09T08:54:29Z</time>
      </trkpt>
      <trkpt lat="49.27867" lon="-0.51514">
        <ele>49.16</ele>
        <time>2016-08-09T08:54:47Z</time>
      </trkpt>
      <trkpt lat="49.27871" lon="-0.51561">
        <ele>49.16</ele>
        <time>2016-08-09T08:54:53Z</time>
      </trkpt>
      <trkpt lat="49.27889" lon="-0.51701">
        <ele>48.68</ele>
        <time>2016-08-09T08:55:10Z</time>
      </trkpt>
      <trkpt lat="49.27925" lon="-0.51852">
        <ele>46.76</ele>
        <time>2016-08-09T08:55:27Z</time>
      </trkpt>
      <trkpt lat="49.27953" lon="-0.51946">
        <ele>46.28</ele>
        <time>2016-08-09T08:55:37Z</time>
      </trkpt>
      <trkpt lat="49.28014" lon="-0.52072">
        <ele>43.4</ele>
        <time>2016-08-09T08:55:52Z</time>
      </trkpt>
      <trkpt lat="49.28074" lon="-0.52215">
        <ele>37.63</ele>
        <time>2016-08-09T08:56:05Z</time>
      </trkpt>
      <trkpt lat="49.28137" lon="-0.524">
        <ele>32.82</ele>
        <time>2016-08-09T08:56:19Z</time>
      </trkpt>
      <trkpt lat="49.28197" lon="-0.52593">
        <ele>29.46</ele>
        <time>2016-08-09T08:56:35Z</time>
      </trkpt>
      <trkpt lat="49.28221" lon="-0.52732">
        <ele>28.5</ele>
        <time>2016-08-09T08:56:47Z</time>
      </trkpt>
      <trkpt lat="49.28222" lon="-0.52744">
        <ele>28.5</ele>
        <time>2016-08-09T08:56:48Z</time>
      </trkpt>
      <trkpt lat="49.28232" lon="-0.52925">
        <ele>28.5</ele>
        <time>2016-08-09T08:57:04Z</time>
      </trkpt>
      <trkpt lat="49.28234" lon="-0.52958">
        <ele>28.5</ele>
        <time>2016-08-09T08:57:07Z</time>
      </trkpt>
      <trkpt lat="49.28252" lon="-0.53096">
        <ele>28.5</ele>
        <time>2016-08-09T08:57:21Z</time>
      </trkpt>
      <trkpt lat="49.28256" lon="-0.53113">
        <ele>28.5</ele>
        <time>2016-08-09T08:57:23Z</time>
      </trkpt>
      <trkpt lat="49.28258" lon="-0.53121">
        <ele>28.98</ele>
        <time>2016-08-09T08:57:24Z</time>
      </trkpt>
      <trkpt lat="49.28266" lon="-0.53143">
        <ele>28.5</ele>
        <time>2016-08-09T08:57:27Z</time>
      </trkpt>
      <trkpt lat="49.28311" lon="-0.53237">
        <ele>26.09</ele>
        <time>2016-08-09T08:57:42Z</time>
      </trkpt>
      <trkpt lat="49.28324" lon="-0.53263">
        <ele>25.61</ele>
        <time>2016-08-09T08:57:46Z</time>
      </trkpt>
      <trkpt lat="49.28371" lon="-0.53375">
        <ele>29.46</ele>
        <time>2016-08-09T08:58:02Z</time>
      </trkpt>
      <trkpt lat="49.28374" lon="-0.53381">
        <ele>29.46</ele>
        <time>2016-08-09T08:58:03Z</time>
      </trkpt>
      <trkpt lat="49.28378" lon="-0.53387">
        <ele>28.98</ele>
        <time>2016-08-09T08:58:04Z</time>
      </trkpt>
      <trkpt lat="49.28381" lon="-0.53393">
        <ele>28.98</ele>
        <time>2016-08-09T08:58:05Z</time>
      </trkpt>
      <trkpt lat="49.284" lon="-0.53429">
        <ele>29.94</ele>
        <time>2016-08-09T08:58:11Z</time>
      </trkpt>
      <trkpt lat="49.28417" lon="-0.53465">
        <ele>30.9</ele>
        <time>2016-08-09T08:58:17Z</time>
      </trkpt>
      <trkpt lat="49.28421" lon="-0.53469">
        <ele>30.9</ele>
        <time>2016-08-09T08:58:18Z</time>
      </trkpt>
      <trkpt lat="49.28424" lon="-0.53473">
        <ele>30.9</ele>
        <time>2016-08-09T08:58:19Z</time>
      </trkpt>
      <trkpt lat="49.28427" lon="-0.53478">
        <ele>31.38</ele>
        <time>2016-08-09T08:58:20Z</time>
      </trkpt>
      <trkpt lat="49.28429" lon="-0.53484">
        <ele>31.38</ele>
        <time>2016-08-09T08:58:21Z</time>
      </trkpt>
      <trkpt lat="49.28431" lon="-0.53491">
        <ele>31.38</ele>
        <time>2016-08-09T08:58:22Z</time>
      </trkpt>
      <trkpt lat="49.28432" lon="-0.53497">
        <ele>31.86</ele>
        <time>2016-08-09T08:58:23Z</time>
      </trkpt>
      <trkpt lat="49.28434" lon="-0.53504">
        <ele>31.86</ele>
        <time>2016-08-09T08:58:24Z</time>
      </trkpt>
      <trkpt lat="49.28437" lon="-0.53509">
        <ele>31.86</ele>
        <time>2016-08-09T08:58:25Z</time>
      </trkpt>
      <trkpt lat="49.28443" lon="-0.53521">
        <ele>31.86</ele>
        <time>2016-08-09T08:58:27Z</time>
      </trkpt>
      <trkpt lat="49.28488" lon="-0.53619">
        <ele>32.34</ele>
        <time>2016-08-09T08:58:44Z</time>
      </trkpt>
      <trkpt lat="49.28494" lon="-0.53631">
        <ele>32.34</ele>
        <time>2016-08-09T08:58:46Z</time>
      </trkpt>
      <trkpt lat="49.28517" lon="-0.53684">
        <ele>31.86</ele>
        <time>2016-08-09T08:58:54Z</time>
      </trkpt>
      <trkpt lat="49.28532" lon="-0.53713">
        <ele>31.86</ele>
        <time>2016-08-09T08:58:58Z</time>
      </trkpt>
      <trkpt lat="49.2855" lon="-0.5374">
        <ele>31.38</ele>
        <time>2016-08-09T08:59:02Z</time>
      </trkpt>
      <trkpt lat="49.28583" lon="-0.53798">
        <ele>32.34</ele>
        <time>2016-08-09T08:59:11Z</time>
      </trkpt>
      <trkpt lat="49.28588" lon="-0.53811">
        <ele>32.34</ele>
        <time>2016-08-09T08:59:13Z</time>
      </trkpt>
      <trkpt lat="49.28585" lon="-0.53819">
        <ele>31.86</ele>
        <time>2016-08-09T08:59:14Z</time>
      </trkpt>
      <trkpt lat="49.2858" lon="-0.53827">
        <ele>31.38</ele>
        <time>2016-08-09T08:59:15Z</time>
      </trkpt>
      <trkpt lat="49.28576" lon="-0.53835">
        <ele>30.9</ele>
        <time>2016-08-09T08:59:16Z</time>
      </trkpt>
      <trkpt lat="49.28569" lon="-0.53843">
        <ele>29.94</ele>
        <time>2016-08-09T08:59:17Z</time>
      </trkpt>
      <trkpt lat="49.28513" lon="-0.53938">
        <ele>28.5</ele>
        <time>2016-08-09T08:59:31Z</time>
      </trkpt>
      <trkpt lat="49.28499" lon="-0.53957">
        <ele>27.53</ele>
        <time>2016-08-09T08:59:34Z</time>
      </trkpt>
      <trkpt lat="49.28495" lon="-0.53964">
        <ele>27.05</ele>
        <time>2016-08-09T08:59:35Z</time>
      </trkpt>
      <trkpt lat="49.28492" lon="-0.53971">
        <ele>27.05</ele>
        <time>2016-08-09T08:59:36Z</time>
      </trkpt>
      <trkpt lat="49.28484" lon="-0.53985">
        <ele>26.57</ele>
        <time>2016-08-09T08:59:38Z</time>
      </trkpt>
      <trkpt lat="49.28474" lon="-0.54006">
        <ele>26.09</ele>
        <time>2016-08-09T08:59:42Z</time>
      </trkpt>
      <trkpt lat="49.28476" lon="-0.54012">
        <ele>26.09</ele>
        <time>2016-08-09T08:59:43Z</time>
      </trkpt>
      <trkpt lat="49.2848" lon="-0.54016">
        <ele>25.61</ele>
        <time>2016-08-09T08:59:44Z</time>
      </trkpt>
      <trkpt lat="49.28485" lon="-0.54016">
        <ele>25.13</ele>
        <time>2016-08-09T08:59:45Z</time>
      </trkpt>
      <trkpt lat="49.28491" lon="-0.54015">
        <ele>24.65</ele>
        <time>2016-08-09T08:59:46Z</time>
      </trkpt>
      <trkpt lat="49.28497" lon="-0.54015">
        <ele>24.17</ele>
        <time>2016-08-09T08:59:47Z</time>
      </trkpt>
      <trkpt lat="49.28503" lon="-0.54017">
        <ele>23.69</ele>
        <time>2016-08-09T08:59:48Z</time>
      </trkpt>
      <trkpt lat="49.28525" lon="-0.54023">
        <ele>21.77</ele>
        <time>2016-08-09T08:59:51Z</time>
      </trkpt>
      <trkpt lat="49.28551" lon="-0.54034">
        <ele>19.84</ele>
        <time>2016-08-09T08:59:54Z</time>
      </trkpt>
      <trkpt lat="49.28587" lon="-0.54051">
        <ele>17.44</ele>
        <time>2016-08-09T08:59:58Z</time>
      </trkpt>
      <trkpt lat="49.28597" lon="-0.54052">
        <ele>16.96</ele>
        <time>2016-08-09T08:59:59Z</time>
      </trkpt>
      <trkpt lat="49.28606" lon="-0.54051">
        <ele>16</ele>
        <time>2016-08-09T09:00:00Z</time>
      </trkpt>
      <trkpt lat="49.28616" lon="-0.54047">
        <ele>15.52</ele>
        <time>2016-08-09T09:00:01Z</time>
      </trkpt>
      <trkpt lat="49.28624" lon="-0.54041">
        <ele>14.56</ele>
        <time>2016-08-09T09:00:02Z</time>
      </trkpt>
      <trkpt lat="49.28633" lon="-0.54037">
        <ele>14.08</ele>
        <time>2016-08-09T09:00:03Z</time>
      </trkpt>
      <trkpt lat="49.28642" lon="-0.54036">
        <ele>14.08</ele>
        <time>2016-08-09T09:00:04Z</time>
      </trkpt>
      <trkpt lat="49.28652" lon="-0.54038">
        <ele>14.08</ele>
        <time>2016-08-09T09:00:05Z</time>
      </trkpt>
      <trkpt lat="49.28661" lon="-0.5404">
        <ele>13.6</ele>
        <time>2016-08-09T09:00:06Z</time>
      </trkpt>
      <trkpt lat="49.2867" lon="-0.54043">
        <ele>13.6</ele>
        <time>2016-08-09T09:00:07Z</time>
      </trkpt>
      <trkpt lat="49.28711" lon="-0.54059">
        <ele>12.63</ele>
        <time>2016-08-09T09:00:12Z</time>
      </trkpt>
      <trkpt lat="49.28792" lon="-0.5411">
        <ele>12.15</ele>
        <time>2016-08-09T09:00:25Z</time>
      </trkpt>
      <trkpt lat="49.28857" lon="-0.54157">
        <ele>10.71</ele>
        <time>2016-08-09T09:00:36Z</time>
      </trkpt>
      <trkpt lat="49.28898" lon="-0.54213">
        <ele>10.23</ele>
        <time>2016-08-09T09:00:45Z</time>
      </trkpt>
      <trkpt lat="49.28903" lon="-0.54218">
        <ele>10.23</ele>
        <time>2016-08-09T09:00:46Z</time>
      </trkpt>
      <trkpt lat="49.28909" lon="-0.54222">
        <ele>10.23</ele>
        <time>2016-08-09T09:00:47Z</time>
      </trkpt>
      <trkpt lat="49.28914" lon="-0.54225">
        <ele>10.23</ele>
        <time>2016-08-09T09:00:48Z</time>
      </trkpt>
      <trkpt lat="49.28921" lon="-0.54226">
        <ele>10.71</ele>
        <time>2016-08-09T09:00:49Z</time>
      </trkpt>
      <trkpt lat="49.28927" lon="-0.54226">
        <ele>10.71</ele>
        <time>2016-08-09T09:00:50Z</time>
      </trkpt>
      <trkpt lat="49.28933" lon="-0.54226">
        <ele>10.71</ele>
        <time>2016-08-09T09:00:51Z</time>
      </trkpt>
      <trkpt lat="49.28939" lon="-0.54224">
        <ele>10.71</ele>
        <time>2016-08-09T09:00:52Z</time>
      </trkpt>
      <trkpt lat="49.28945" lon="-0.54221">
        <ele>11.19</ele>
        <time>2016-08-09T09:00:53Z</time>
      </trkpt>
      <trkpt lat="49.2895" lon="-0.54217">
        <ele>11.19</ele>
        <time>2016-08-09T09:00:54Z</time>
      </trkpt>
      <trkpt lat="49.28955" lon="-0.54213">
        <ele>11.67</ele>
        <time>2016-08-09T09:00:55Z</time>
      </trkpt>
      <trkpt lat="49.2896" lon="-0.54209">
        <ele>11.67</ele>
        <time>2016-08-09T09:00:56Z</time>
      </trkpt>
      <trkpt lat="49.29031" lon="-0.54159">
        <ele>14.08</ele>
        <time>2016-08-09T09:01:10Z</time>
      </trkpt>
      <trkpt lat="49.29035" lon="-0.54157">
        <ele>14.08</ele>
        <time>2016-08-09T09:01:11Z</time>
      </trkpt>
      <trkpt lat="49.29068" lon="-0.54149">
        <ele>15.52</ele>
        <time>2016-08-09T09:01:20Z</time>
      </trkpt>
      <trkpt lat="49.29101" lon="-0.54154">
        <ele>16</ele>
        <time>2016-08-09T09:01:29Z</time>
      </trkpt>
      <trkpt lat="49.29105" lon="-0.54154">
        <ele>16</ele>
        <time>2016-08-09T09:01:30Z</time>
      </trkpt>
      <trkpt lat="49.29133" lon="-0.54188">
        <ele>16.48</ele>
        <time>2016-08-09T09:01:41Z</time>
      </trkpt>
      <trkpt lat="49.29136" lon="-0.54198">
        <ele>16.48</ele>
        <time>2016-08-09T09:01:44Z</time>
      </trkpt>
      <trkpt lat="49.29137" lon="-0.54202">
        <ele>16.96</ele>
        <time>2016-08-09T09:01:45Z</time>
      </trkpt>
      <trkpt lat="49.29138" lon="-0.54205">
        <ele>16.96</ele>
        <time>2016-08-09T09:01:46Z</time>
      </trkpt>
      <trkpt lat="49.29139" lon="-0.54209">
        <ele>17.44</ele>
        <time>2016-08-09T09:01:47Z</time>
      </trkpt>
      <trkpt lat="49.29141" lon="-0.54213">
        <ele>17.44</ele>
        <time>2016-08-09T09:01:48Z</time>
      </trkpt>
      <trkpt lat="49.29144" lon="-0.54219">
        <ele>18.4</ele>
        <time>2016-08-09T09:01:49Z</time>
      </trkpt>
      <trkpt lat="49.29181" lon="-0.54262">
        <ele>22.73</ele>
        <time>2016-08-09T09:02:02Z</time>
      </trkpt>
      <trkpt lat="49.29223" lon="-0.54286">
        <ele>25.61</ele>
        <time>2016-08-09T09:02:15Z</time>
      </trkpt>
      <trkpt lat="49.29275" lon="-0.54313">
        <ele>29.46</ele>
        <time>2016-08-09T09:02:31Z</time>
      </trkpt>
      <trkpt lat="49.2932" lon="-0.54329">
        <ele>32.34</ele>
        <time>2016-08-09T09:02:46Z</time>
      </trkpt>
      <trkpt lat="49.29322" lon="-0.54328">
        <ele>33.3</ele>
        <time>2016-08-09T09:02:47Z</time>
      </trkpt>
      <trkpt lat="49.29325" lon="-0.54327">
        <ele>35.23</ele>
        <time>2016-08-09T09:03:01Z</time>
      </trkpt>
      <trkpt lat="49.29326" lon="-0.54326">
        <ele>35.71</ele>
        <time>2016-08-09T09:03:20Z</time>
      </trkpt>
      <trkpt lat="49.29327" lon="-0.54327">
        <ele>35.71</ele>
        <time>2016-08-09T09:03:21Z</time>
      </trkpt>
      <trkpt lat="49.29329" lon="-0.54328">
        <ele>35.71</ele>
        <time>2016-08-09T09:03:22Z</time>
      </trkpt>
      <trkpt lat="49.29341" lon="-0.54333">
        <ele>36.19</ele>
        <time>2016-08-09T09:03:26Z</time>
      </trkpt>
      <trkpt lat="49.29345" lon="-0.54337">
        <ele>36.19</ele>
        <time>2016-08-09T09:03:27Z</time>
      </trkpt>
      <trkpt lat="49.29349" lon="-0.54342">
        <ele>36.19</ele>
        <time>2016-08-09T09:03:28Z</time>
      </trkpt>
      <trkpt lat="49.2936" lon="-0.54357">
        <ele>36.19</ele>
        <time>2016-08-09T09:03:31Z</time>
      </trkpt>
      <trkpt lat="49.29364" lon="-0.54362">
        <ele>36.19</ele>
        <time>2016-08-09T09:03:32Z</time>
      </trkpt>
      <trkpt lat="49.29385" lon="-0.5438">
        <ele>36.67</ele>
        <time>2016-08-09T09:03:37Z</time>
      </trkpt>
      <trkpt lat="49.29462" lon="-0.54424">
        <ele>37.15</ele>
        <time>2016-08-09T09:03:54Z</time>
      </trkpt>
      <trkpt lat="49.29535" lon="-0.54465">
        <ele>38.11</ele>
        <time>2016-08-09T09:04:10Z</time>
      </trkpt>
      <trkpt lat="49.29611" lon="-0.54504">
        <ele>39.07</ele>
        <time>2016-08-09T09:04:27Z</time>
      </trkpt>
      <trkpt lat="49.29677" lon="-0.54535">
        <ele>41.95</ele>
        <time>2016-08-09T09:04:42Z</time>
      </trkpt>
      <trkpt lat="49.29686" lon="-0.54539">
        <ele>42.44</ele>
        <time>2016-08-09T09:04:44Z</time>
      </trkpt>
      <trkpt lat="49.2969" lon="-0.54541">
        <ele>42.44</ele>
        <time>2016-08-09T09:04:45Z</time>
      </trkpt>
      <trkpt lat="49.29695" lon="-0.54543">
        <ele>42.44</ele>
        <time>2016-08-09T09:04:46Z</time>
      </trkpt>
      <trkpt lat="49.29759" lon="-0.5457">
        <ele>44.84</ele>
        <time>2016-08-09T09:05:02Z</time>
      </trkpt>
      <trkpt lat="49.29816" lon="-0.5459">
        <ele>46.28</ele>
        <time>2016-08-09T09:05:17Z</time>
      </trkpt>
      <trkpt lat="49.29873" lon="-0.54606">
        <ele>47.72</ele>
        <time>2016-08-09T09:05:32Z</time>
      </trkpt>
      <trkpt lat="49.29932" lon="-0.54622">
        <ele>50.13</ele>
        <time>2016-08-09T09:05:48Z</time>
      </trkpt>
      <trkpt lat="49.30001" lon="-0.5464">
        <ele>52.53</ele>
        <time>2016-08-09T09:06:06Z</time>
      </trkpt>
      <trkpt lat="49.30071" lon="-0.54659">
        <ele>53.97</ele>
        <time>2016-08-09T09:06:24Z</time>
      </trkpt>
      <trkpt lat="49.30151" lon="-0.5468">
        <ele>55.41</ele>
        <time>2016-08-09T09:06:44Z</time>
      </trkpt>
      <trkpt lat="49.30217" lon="-0.54698">
        <ele>56.37</ele>
        <time>2016-08-09T09:07:00Z</time>
      </trkpt>
      <trkpt lat="49.30272" lon="-0.54713">
        <ele>56.86</ele>
        <time>2016-08-09T09:07:13Z</time>
      </trkpt>
      <trkpt lat="49.30293" lon="-0.54719">
        <ele>57.34</ele>
        <time>2016-08-09T09:07:18Z</time>
      </trkpt>
      <trkpt lat="49.30372" lon="-0.5474">
        <ele>56.86</ele>
        <time>2016-08-09T09:07:35Z</time>
      </trkpt>
      <trkpt lat="49.30454" lon="-0.54762">
        <ele>56.86</ele>
        <time>2016-08-09T09:07:51Z</time>
      </trkpt>
      <trkpt lat="49.30568" lon="-0.54792">
        <ele>56.86</ele>
        <time>2016-08-09T09:08:13Z</time>
      </trkpt>
      <trkpt lat="49.30653" lon="-0.54783">
        <ele>56.37</ele>
        <time>2016-08-09T09:08:29Z</time>
      </trkpt>
      <trkpt lat="49.30746" lon="-0.54756">
        <ele>55.89</ele>
        <time>2016-08-09T09:08:46Z</time>
      </trkpt>
      <trkpt lat="49.3087" lon="-0.54714">
        <ele>54.93</ele>
        <time>2016-08-09T09:09:07Z</time>
      </trkpt>
      <trkpt lat="49.30907" lon="-0.54703">
        <ele>53.97</ele>
        <time>2016-08-09T09:09:13Z</time>
      </trkpt>
      <trkpt lat="49.31015" lon="-0.54684">
        <ele>53.01</ele>
        <time>2016-08-09T09:09:30Z</time>
      </trkpt>
      <trkpt lat="49.31072" lon="-0.5468">
        <ele>52.05</ele>
        <time>2016-08-09T09:09:40Z</time>
      </trkpt>
      <trkpt lat="49.31117" lon="-0.5469">
        <ele>49.65</ele>
        <time>2016-08-09T09:09:48Z</time>
      </trkpt>
      <trkpt lat="49.31123" lon="-0.54694">
        <ele>49.16</ele>
        <time>2016-08-09T09:09:49Z</time>
      </trkpt>
      <trkpt lat="49.3113" lon="-0.547">
        <ele>49.16</ele>
        <time>2016-08-09T09:09:50Z</time>
      </trkpt>
      <trkpt lat="49.31143" lon="-0.54713">
        <ele>48.68</ele>
        <time>2016-08-09T09:09:52Z</time>
      </trkpt>
      <trkpt lat="49.31149" lon="-0.54719">
        <ele>48.2</ele>
        <time>2016-08-09T09:09:53Z</time>
      </trkpt>
      <trkpt lat="49.31154" lon="-0.54726">
        <ele>48.2</ele>
        <time>2016-08-09T09:09:54Z</time>
      </trkpt>
      <trkpt lat="49.31219" lon="-0.54812">
        <ele>45.8</ele>
        <time>2016-08-09T09:10:07Z</time>
      </trkpt>
      <trkpt lat="49.31255" lon="-0.54842">
        <ele>45.32</ele>
        <time>2016-08-09T09:10:13Z</time>
      </trkpt>
      <trkpt lat="49.31274" lon="-0.54855">
        <ele>45.32</ele>
        <time>2016-08-09T09:10:16Z</time>
      </trkpt>
      <trkpt lat="49.3129" lon="-0.54862">
        <ele>45.32</ele>
        <time>2016-08-09T09:10:19Z</time>
      </trkpt>
      <trkpt lat="49.31296" lon="-0.54865">
        <ele>44.84</ele>
        <time>2016-08-09T09:10:20Z</time>
      </trkpt>
      <trkpt lat="49.31322" lon="-0.54877">
        <ele>44.84</ele>
        <time>2016-08-09T09:10:25Z</time>
      </trkpt>
      <trkpt lat="49.31364" lon="-0.54899">
        <ele>43.88</ele>
        <time>2016-08-09T09:10:34Z</time>
      </trkpt>
      <trkpt lat="49.31385" lon="-0.54909">
        <ele>43.4</ele>
        <time>2016-08-09T09:10:38Z</time>
      </trkpt>
      <trkpt lat="49.31391" lon="-0.54911">
        <ele>43.4</ele>
        <time>2016-08-09T09:10:39Z</time>
      </trkpt>
      <trkpt lat="49.31396" lon="-0.54915">
        <ele>43.4</ele>
        <time>2016-08-09T09:10:40Z</time>
      </trkpt>
      <trkpt lat="49.31401" lon="-0.54918">
        <ele>42.92</ele>
        <time>2016-08-09T09:10:41Z</time>
      </trkpt>
      <trkpt lat="49.31406" lon="-0.54921">
        <ele>42.92</ele>
        <time>2016-08-09T09:10:42Z</time>
      </trkpt>
      <trkpt lat="49.31411" lon="-0.54924">
        <ele>42.92</ele>
        <time>2016-08-09T09:10:43Z</time>
      </trkpt>
      <trkpt lat="49.31472" lon="-0.54956">
        <ele>41.47</ele>
        <time>2016-08-09T09:10:55Z</time>
      </trkpt>
      <trkpt lat="49.31476" lon="-0.54958">
        <ele>41.47</ele>
        <time>2016-08-09T09:10:56Z</time>
      </trkpt>
      <trkpt lat="49.31489" lon="-0.54963">
        <ele>41.95</ele>
        <time>2016-08-09T09:10:59Z</time>
      </trkpt>
      <trkpt lat="49.31494" lon="-0.54961">
        <ele>42.44</ele>
        <time>2016-08-09T09:11:00Z</time>
      </trkpt>
      <trkpt lat="49.31497" lon="-0.54957">
        <ele>42.44</ele>
        <time>2016-08-09T09:11:01Z</time>
      </trkpt>
      <trkpt lat="49.315" lon="-0.54951">
        <ele>42.44</ele>
        <time>2016-08-09T09:11:02Z</time>
      </trkpt>
      <trkpt lat="49.31501" lon="-0.54944">
        <ele>42.44</ele>
        <time>2016-08-09T09:11:03Z</time>
      </trkpt>
      <trkpt lat="49.31501" lon="-0.54936">
        <ele>41.95</ele>
        <time>2016-08-09T09:11:04Z</time>
      </trkpt>
      <trkpt lat="49.315" lon="-0.54928">
        <ele>42.44</ele>
        <time>2016-08-09T09:11:05Z</time>
      </trkpt>
      <trkpt lat="49.31499" lon="-0.5492">
        <ele>42.92</ele>
        <time>2016-08-09T09:11:06Z</time>
      </trkpt>
      <trkpt lat="49.31498" lon="-0.54912">
        <ele>42.92</ele>
        <time>2016-08-09T09:11:07Z</time>
      </trkpt>
      <trkpt lat="49.31491" lon="-0.54882">
        <ele>43.4</ele>
        <time>2016-08-09T09:11:11Z</time>
      </trkpt>
      <trkpt lat="49.3149" lon="-0.54874">
        <ele>43.4</ele>
        <time>2016-08-09T09:11:12Z</time>
      </trkpt>
      <trkpt lat="49.3149" lon="-0.54866">
        <ele>43.4</ele>
        <time>2016-08-09T09:11:13Z</time>
      </trkpt>
      <trkpt lat="49.31489" lon="-0.54849">
        <ele>43.4</ele>
        <time>2016-08-09T09:11:15Z</time>
      </trkpt>
      <trkpt lat="49.31489" lon="-0.54832">
        <ele>43.4</ele>
        <time>2016-08-09T09:11:17Z</time>
      </trkpt>
      <trkpt lat="49.31488" lon="-0.54824">
        <ele>43.4</ele>
        <time>2016-08-09T09:11:18Z</time>
      </trkpt>
      <trkpt lat="49.31486" lon="-0.54816">
        <ele>43.88</ele>
        <time>2016-08-09T09:11:19Z</time>
      </trkpt>
      <trkpt lat="49.31482" lon="-0.54809">
        <ele>43.88</ele>
        <time>2016-08-09T09:11:20Z</time>
      </trkpt>
      <trkpt lat="49.31478" lon="-0.54803">
        <ele>43.88</ele>
        <time>2016-08-09T09:11:21Z</time>
      </trkpt>
      <trkpt lat="49.31454" lon="-0.54755">
        <ele>45.32</ele>
        <time>2016-08-09T09:11:28Z</time>
      </trkpt>
      <trkpt lat="49.31447" lon="-0.54727">
        <ele>45.32</ele>
        <time>2016-08-09T09:11:32Z</time>
      </trkpt>
      <trkpt lat="49.31446" lon="-0.54721">
        <ele>45.32</ele>
        <time>2016-08-09T09:11:33Z</time>
      </trkpt>
      <trkpt lat="49.31445" lon="-0.54714">
        <ele>44.84</ele>
        <time>2016-08-09T09:11:34Z</time>
      </trkpt>
      <trkpt lat="49.31444" lon="-0.54707">
        <ele>44.84</ele>
        <time>2016-08-09T09:11:35Z</time>
      </trkpt>
      <trkpt lat="49.31443" lon="-0.54701">
        <ele>44.84</ele>
        <time>2016-08-09T09:11:36Z</time>
      </trkpt>
      <trkpt lat="49.3144" lon="-0.5468">
        <ele>44.36</ele>
        <time>2016-08-09T09:11:39Z</time>
      </trkpt>
      <trkpt lat="49.31439" lon="-0.54672">
        <ele>44.36</ele>
        <time>2016-08-09T09:11:40Z</time>
      </trkpt>
      <trkpt lat="49.3144" lon="-0.54665">
        <ele>44.36</ele>
        <time>2016-08-09T09:11:41Z</time>
      </trkpt>
      <trkpt lat="49.31441" lon="-0.54657">
        <ele>44.36</ele>
        <time>2016-08-09T09:11:42Z</time>
      </trkpt>
      <trkpt lat="49.31444" lon="-0.54651">
        <ele>44.84</ele>
        <time>2016-08-09T09:11:43Z</time>
      </trkpt>
      <trkpt lat="49.31447" lon="-0.54645">
        <ele>44.84</ele>
        <time>2016-08-09T09:11:44Z</time>
      </trkpt>
      <trkpt lat="49.3145" lon="-0.54639">
        <ele>45.32</ele>
        <time>2016-08-09T09:11:45Z</time>
      </trkpt>
      <trkpt lat="49.31454" lon="-0.54633">
        <ele>44.84</ele>
        <time>2016-08-09T09:11:46Z</time>
      </trkpt>
      <trkpt lat="49.31493" lon="-0.54572">
        <ele>45.32</ele>
        <time>2016-08-09T09:11:56Z</time>
      </trkpt>
      <trkpt lat="49.31497" lon="-0.54564">
        <ele>45.32</ele>
        <time>2016-08-09T09:11:57Z</time>
      </trkpt>
      <trkpt lat="49.31499" lon="-0.54555">
        <ele>45.32</ele>
        <time>2016-08-09T09:11:58Z</time>
      </trkpt>
      <trkpt lat="49.31501" lon="-0.54546">
        <ele>45.32</ele>
        <time>2016-08-09T09:11:59Z</time>
      </trkpt>
      <trkpt lat="49.31502" lon="-0.54537">
        <ele>45.8</ele>
        <time>2016-08-09T09:12:00Z</time>
      </trkpt>
      <trkpt lat="49.31503" lon="-0.54528">
        <ele>45.8</ele>
        <time>2016-08-09T09:12:01Z</time>
      </trkpt>
      <trkpt lat="49.31503" lon="-0.54519">
        <ele>45.8</ele>
        <time>2016-08-09T09:12:02Z</time>
      </trkpt>
      <trkpt lat="49.31503" lon="-0.5451">
        <ele>45.8</ele>
        <time>2016-08-09T09:12:03Z</time>
      </trkpt>
      <trkpt lat="49.31502" lon="-0.54484">
        <ele>46.28</ele>
        <time>2016-08-09T09:12:06Z</time>
      </trkpt>
      <trkpt lat="49.31501" lon="-0.54475">
        <ele>46.28</ele>
        <time>2016-08-09T09:12:07Z</time>
      </trkpt>
      <trkpt lat="49.31501" lon="-0.54467">
        <ele>46.28</ele>
        <time>2016-08-09T09:12:08Z</time>
      </trkpt>
      <trkpt lat="49.31499" lon="-0.544">
        <ele>47.24</ele>
        <time>2016-08-09T09:12:16Z</time>
      </trkpt>
      <trkpt lat="49.31499" lon="-0.54391">
        <ele>47.24</ele>
        <time>2016-08-09T09:12:17Z</time>
      </trkpt>
      <trkpt lat="49.31494" lon="-0.54282">
        <ele>48.68</ele>
        <time>2016-08-09T09:12:30Z</time>
      </trkpt>
      <trkpt lat="49.31494" lon="-0.54274">
        <ele>48.68</ele>
        <time>2016-08-09T09:12:31Z</time>
      </trkpt>
      <trkpt lat="49.31487" lon="-0.54173">
        <ele>50.13</ele>
        <time>2016-08-09T09:12:43Z</time>
      </trkpt>
      <trkpt lat="49.31485" lon="-0.54165">
        <ele>50.13</ele>
        <time>2016-08-09T09:12:44Z</time>
      </trkpt>
      <trkpt lat="49.31443" lon="-0.54046">
        <ele>50.61</ele>
        <time>2016-08-09T09:12:59Z</time>
      </trkpt>
      <trkpt lat="49.31388" lon="-0.53894">
        <ele>52.05</ele>
        <time>2016-08-09T09:13:17Z</time>
      </trkpt>
      <trkpt lat="49.31348" lon="-0.53736">
        <ele>51.57</ele>
        <time>2016-08-09T09:13:33Z</time>
      </trkpt>
      <trkpt lat="49.31317" lon="-0.53582">
        <ele>53.01</ele>
        <time>2016-08-09T09:13:49Z</time>
      </trkpt>
      <trkpt lat="49.31317" lon="-0.53572">
        <ele>53.01</ele>
        <time>2016-08-09T09:13:50Z</time>
      </trkpt>
      <trkpt lat="49.31318" lon="-0.53562">
        <ele>53.01</ele>
        <time>2016-08-09T09:13:51Z</time>
      </trkpt>
      <trkpt lat="49.31319" lon="-0.53552">
        <ele>53.01</ele>
        <time>2016-08-09T09:13:52Z</time>
      </trkpt>
      <trkpt lat="49.3132" lon="-0.53542">
        <ele>53.01</ele>
        <time>2016-08-09T09:13:53Z</time>
      </trkpt>
      <trkpt lat="49.31322" lon="-0.53532">
        <ele>53.01</ele>
        <time>2016-08-09T09:13:54Z</time>
      </trkpt>
      <trkpt lat="49.31349" lon="-0.53407">
        <ele>52.53</ele>
        <time>2016-08-09T09:14:07Z</time>
      </trkpt>
      <trkpt lat="49.3137" lon="-0.53232">
        <ele>51.57</ele>
        <time>2016-08-09T09:14:24Z</time>
      </trkpt>
      <trkpt lat="49.31383" lon="-0.53039">
        <ele>51.57</ele>
        <time>2016-08-09T09:14:43Z</time>
      </trkpt>
      <trkpt lat="49.31383" lon="-0.53029">
        <ele>51.57</ele>
        <time>2016-08-09T09:14:44Z</time>
      </trkpt>
      <trkpt lat="49.31361" lon="-0.52891">
        <ele>51.57</ele>
        <time>2016-08-09T09:14:58Z</time>
      </trkpt>
      <trkpt lat="49.31309" lon="-0.52691">
        <ele>53.01</ele>
        <time>2016-08-09T09:15:19Z</time>
      </trkpt>
      <trkpt lat="49.313" lon="-0.52664">
        <ele>53.49</ele>
        <time>2016-08-09T09:15:22Z</time>
      </trkpt>
      <trkpt lat="49.31261" lon="-0.52523">
        <ele>54.45</ele>
        <time>2016-08-09T09:15:37Z</time>
      </trkpt>
      <trkpt lat="49.31244" lon="-0.52362">
        <ele>53.49</ele>
        <time>2016-08-09T09:15:52Z</time>
      </trkpt>
      <trkpt lat="49.31222" lon="-0.52168">
        <ele>53.01</ele>
        <time>2016-08-09T09:16:10Z</time>
      </trkpt>
      <trkpt lat="49.31205" lon="-0.51998">
        <ele>53.01</ele>
        <time>2016-08-09T09:16:27Z</time>
      </trkpt>
      <trkpt lat="49.31207" lon="-0.51839">
        <ele>52.53</ele>
        <time>2016-08-09T09:16:43Z</time>
      </trkpt>
      <trkpt lat="49.31209" lon="-0.51676">
        <ele>53.01</ele>
        <time>2016-08-09T09:17:00Z</time>
      </trkpt>
      <trkpt lat="49.31209" lon="-0.51537">
        <ele>52.53</ele>
        <time>2016-08-09T09:17:14Z</time>
      </trkpt>
      <trkpt lat="49.31213" lon="-0.51435">
        <ele>51.09</ele>
        <time>2016-08-09T09:17:24Z</time>
      </trkpt>
      <trkpt lat="49.31214" lon="-0.51425">
        <ele>50.61</ele>
        <time>2016-08-09T09:17:25Z</time>
      </trkpt>
      <trkpt lat="49.31215" lon="-0.51416">
        <ele>50.61</ele>
        <time>2016-08-09T09:17:26Z</time>
      </trkpt>
      <trkpt lat="49.31243" lon="-0.51275">
        <ele>47.72</ele>
        <time>2016-08-09T09:17:39Z</time>
      </trkpt>
      <trkpt lat="49.3125" lon="-0.51252">
        <ele>46.76</ele>
        <time>2016-08-09T09:17:41Z</time>
      </trkpt>
      <trkpt lat="49.31276" lon="-0.51182">
        <ele>45.32</ele>
        <time>2016-08-09T09:17:47Z</time>
      </trkpt>
      <trkpt lat="49.31281" lon="-0.51172">
        <ele>45.32</ele>
        <time>2016-08-09T09:17:48Z</time>
      </trkpt>
      <trkpt lat="49.31292" lon="-0.51153">
        <ele>44.84</ele>
        <time>2016-08-09T09:17:50Z</time>
      </trkpt>
      <trkpt lat="49.31297" lon="-0.51144">
        <ele>43.88</ele>
        <time>2016-08-09T09:17:51Z</time>
      </trkpt>
      <trkpt lat="49.31322" lon="-0.51106">
        <ele>40.99</ele>
        <time>2016-08-09T09:17:56Z</time>
      </trkpt>
      <trkpt lat="49.31325" lon="-0.51097">
        <ele>40.99</ele>
        <time>2016-08-09T09:17:57Z</time>
      </trkpt>
      <trkpt lat="49.31329" lon="-0.51089">
        <ele>40.51</ele>
        <time>2016-08-09T09:17:58Z</time>
      </trkpt>
      <trkpt lat="49.31332" lon="-0.5108">
        <ele>40.03</ele>
        <time>2016-08-09T09:17:59Z</time>
      </trkpt>
      <trkpt lat="49.31337" lon="-0.51073">
        <ele>39.55</ele>
        <time>2016-08-09T09:18:00Z</time>
      </trkpt>
      <trkpt lat="49.31342" lon="-0.51066">
        <ele>39.07</ele>
        <time>2016-08-09T09:18:01Z</time>
      </trkpt>
      <trkpt lat="49.31397" lon="-0.50993">
        <ele>35.23</ele>
        <time>2016-08-09T09:18:12Z</time>
      </trkpt>
      <trkpt lat="49.31402" lon="-0.50987">
        <ele>34.74</ele>
        <time>2016-08-09T09:18:13Z</time>
      </trkpt>
      <trkpt lat="49.31406" lon="-0.50981">
        <ele>34.26</ele>
        <time>2016-08-09T09:18:14Z</time>
      </trkpt>
      <trkpt lat="49.31431" lon="-0.5095">
        <ele>33.3</ele>
        <time>2016-08-09T09:18:19Z</time>
      </trkpt>
      <trkpt lat="49.31459" lon="-0.50922">
        <ele>35.23</ele>
        <time>2016-08-09T09:18:24Z</time>
      </trkpt>
      <trkpt lat="49.31466" lon="-0.50917">
        <ele>35.71</ele>
        <time>2016-08-09T09:18:25Z</time>
      </trkpt>
      <trkpt lat="49.31471" lon="-0.50913">
        <ele>35.71</ele>
        <time>2016-08-09T09:18:26Z</time>
      </trkpt>
      <trkpt lat="49.31477" lon="-0.50909">
        <ele>35.71</ele>
        <time>2016-08-09T09:18:27Z</time>
      </trkpt>
      <trkpt lat="49.31482" lon="-0.50907">
        <ele>35.23</ele>
        <time>2016-08-09T09:18:28Z</time>
      </trkpt>
      <trkpt lat="49.31493" lon="-0.50902">
        <ele>35.23</ele>
        <time>2016-08-09T09:18:30Z</time>
      </trkpt>
      <trkpt lat="49.31509" lon="-0.50899">
        <ele>35.23</ele>
        <time>2016-08-09T09:18:33Z</time>
      </trkpt>
      <trkpt lat="49.31515" lon="-0.50898">
        <ele>35.23</ele>
        <time>2016-08-09T09:18:34Z</time>
      </trkpt>
      <trkpt lat="49.31521" lon="-0.50896">
        <ele>35.23</ele>
        <time>2016-08-09T09:18:35Z</time>
      </trkpt>
      <trkpt lat="49.31528" lon="-0.50895">
        <ele>34.74</ele>
        <time>2016-08-09T09:18:36Z</time>
      </trkpt>
      <trkpt lat="49.31533" lon="-0.50894">
        <ele>35.23</ele>
        <time>2016-08-09T09:18:37Z</time>
      </trkpt>
      <trkpt lat="49.31545" lon="-0.50893">
        <ele>35.71</ele>
        <time>2016-08-09T09:18:39Z</time>
      </trkpt>
      <trkpt lat="49.31551" lon="-0.50892">
        <ele>35.71</ele>
        <time>2016-08-09T09:18:40Z</time>
      </trkpt>
      <trkpt lat="49.31624" lon="-0.50886">
        <ele>39.07</ele>
        <time>2016-08-09T09:18:50Z</time>
      </trkpt>
      <trkpt lat="49.31631" lon="-0.50883">
        <ele>39.55</ele>
        <time>2016-08-09T09:18:51Z</time>
      </trkpt>
      <trkpt lat="49.31637" lon="-0.50879">
        <ele>40.03</ele>
        <time>2016-08-09T09:18:52Z</time>
      </trkpt>
      <trkpt lat="49.31643" lon="-0.50872">
        <ele>40.03</ele>
        <time>2016-08-09T09:18:53Z</time>
      </trkpt>
      <trkpt lat="49.31648" lon="-0.50865">
        <ele>40.03</ele>
        <time>2016-08-09T09:18:54Z</time>
      </trkpt>
      <trkpt lat="49.31653" lon="-0.50858">
        <ele>40.51</ele>
        <time>2016-08-09T09:18:55Z</time>
      </trkpt>
      <trkpt lat="49.31657" lon="-0.5085">
        <ele>40.99</ele>
        <time>2016-08-09T09:18:56Z</time>
      </trkpt>
      <trkpt lat="49.31718" lon="-0.50726">
        <ele>41.95</ele>
        <time>2016-08-09T09:19:11Z</time>
      </trkpt>
      <trkpt lat="49.31756" lon="-0.50592">
        <ele>42.44</ele>
        <time>2016-08-09T09:19:26Z</time>
      </trkpt>
      <trkpt lat="49.31807" lon="-0.50445">
        <ele>44.84</ele>
        <time>2016-08-09T09:19:44Z</time>
      </trkpt>
      <trkpt lat="49.31836" lon="-0.50345">
        <ele>44.84</ele>
        <time>2016-08-09T09:19:58Z</time>
      </trkpt>
      <trkpt lat="49.3187" lon="-0.5021">
        <ele>44.36</ele>
        <time>2016-08-09T09:20:15Z</time>
      </trkpt>
      <trkpt lat="49.31907" lon="-0.50068">
        <ele>42.92</ele>
        <time>2016-08-09T09:20:32Z</time>
      </trkpt>
      <trkpt lat="49.31932" lon="-0.50001">
        <ele>42.44</ele>
        <time>2016-08-09T09:20:40Z</time>
      </trkpt>
      <trkpt lat="49.31936" lon="-0.49993">
        <ele>42.44</ele>
        <time>2016-08-09T09:20:41Z</time>
      </trkpt>
      <trkpt lat="49.31999" lon="-0.49854">
        <ele>41.95</ele>
        <time>2016-08-09T09:20:58Z</time>
      </trkpt>
      <trkpt lat="49.32066" lon="-0.49722">
        <ele>40.03</ele>
        <time>2016-08-09T09:21:15Z</time>
      </trkpt>
      <trkpt lat="49.32123" lon="-0.49588">
        <ele>39.07</ele>
        <time>2016-08-09T09:21:31Z</time>
      </trkpt>
      <trkpt lat="49.32171" lon="-0.49446">
        <ele>37.63</ele>
        <time>2016-08-09T09:21:47Z</time>
      </trkpt>
      <trkpt lat="49.32233" lon="-0.49288">
        <ele>35.71</ele>
        <time>2016-08-09T09:22:05Z</time>
      </trkpt>
      <trkpt lat="49.32271" lon="-0.49165">
        <ele>33.78</ele>
        <time>2016-08-09T09:22:18Z</time>
      </trkpt>
      <trkpt lat="49.32284" lon="-0.49112">
        <ele>32.34</ele>
        <time>2016-08-09T09:22:23Z</time>
      </trkpt>
      <trkpt lat="49.32317" lon="-0.48937">
        <ele>29.94</ele>
        <time>2016-08-09T09:22:38Z</time>
      </trkpt>
      <trkpt lat="49.32319" lon="-0.48926">
        <ele>29.46</ele>
        <time>2016-08-09T09:22:39Z</time>
      </trkpt>
      <trkpt lat="49.32339" lon="-0.48782">
        <ele>28.98</ele>
        <time>2016-08-09T09:22:53Z</time>
      </trkpt>
      <trkpt lat="49.32368" lon="-0.48629">
        <ele>26.57</ele>
        <time>2016-08-09T09:23:07Z</time>
      </trkpt>
      <trkpt lat="49.32393" lon="-0.48455">
        <ele>23.69</ele>
        <time>2016-08-09T09:23:21Z</time>
      </trkpt>
      <trkpt lat="49.32397" lon="-0.48396">
        <ele>22.73</ele>
        <time>2016-08-09T09:23:26Z</time>
      </trkpt>
      <trkpt lat="49.32398" lon="-0.48386">
        <ele>22.73</ele>
        <time>2016-08-09T09:23:27Z</time>
      </trkpt>
      <trkpt lat="49.324" lon="-0.48375">
        <ele>22.25</ele>
        <time>2016-08-09T09:23:28Z</time>
      </trkpt>
      <trkpt lat="49.32401" lon="-0.48364">
        <ele>22.25</ele>
        <time>2016-08-09T09:23:29Z</time>
      </trkpt>
      <trkpt lat="49.32402" lon="-0.48354">
        <ele>22.25</ele>
        <time>2016-08-09T09:23:30Z</time>
      </trkpt>
      <trkpt lat="49.32403" lon="-0.48343">
        <ele>21.77</ele>
        <time>2016-08-09T09:23:31Z</time>
      </trkpt>
      <trkpt lat="49.32404" lon="-0.48332">
        <ele>21.77</ele>
        <time>2016-08-09T09:23:32Z</time>
      </trkpt>
      <trkpt lat="49.32408" lon="-0.483">
        <ele>21.29</ele>
        <time>2016-08-09T09:23:35Z</time>
      </trkpt>
      <trkpt lat="49.32411" lon="-0.4829">
        <ele>21.29</ele>
        <time>2016-08-09T09:23:36Z</time>
      </trkpt>
      <trkpt lat="49.32414" lon="-0.4828">
        <ele>21.29</ele>
        <time>2016-08-09T09:23:37Z</time>
      </trkpt>
      <trkpt lat="49.32417" lon="-0.4827">
        <ele>20.81</ele>
        <time>2016-08-09T09:23:38Z</time>
      </trkpt>
      <trkpt lat="49.3242" lon="-0.4826">
        <ele>20.81</ele>
        <time>2016-08-09T09:23:39Z</time>
      </trkpt>
      <trkpt lat="49.32471" lon="-0.48129">
        <ele>18.88</ele>
        <time>2016-08-09T09:23:52Z</time>
      </trkpt>
      <trkpt lat="49.32478" lon="-0.48107">
        <ele>17.92</ele>
        <time>2016-08-09T09:23:54Z</time>
      </trkpt>
      <trkpt lat="49.32504" lon="-0.48031">
        <ele>16.48</ele>
        <time>2016-08-09T09:24:01Z</time>
      </trkpt>
      <trkpt lat="49.32507" lon="-0.4802">
        <ele>16.48</ele>
        <time>2016-08-09T09:24:02Z</time>
      </trkpt>
      <trkpt lat="49.32511" lon="-0.48009">
        <ele>16.48</ele>
        <time>2016-08-09T09:24:03Z</time>
      </trkpt>
      <trkpt lat="49.32578" lon="-0.47848">
        <ele>12.63</ele>
        <time>2016-08-09T09:24:18Z</time>
      </trkpt>
      <trkpt lat="49.32627" lon="-0.47791">
        <ele>11.19</ele>
        <time>2016-08-09T09:24:25Z</time>
      </trkpt>
      <trkpt lat="49.32633" lon="-0.47782">
        <ele>11.19</ele>
        <time>2016-08-09T09:24:26Z</time>
      </trkpt>
      <trkpt lat="49.32638" lon="-0.47774">
        <ele>11.19</ele>
        <time>2016-08-09T09:24:27Z</time>
      </trkpt>
      <trkpt lat="49.32726" lon="-0.47657">
        <ele>8.31</ele>
        <time>2016-08-09T09:24:42Z</time>
      </trkpt>
      <trkpt lat="49.32788" lon="-0.4761">
        <ele>6.87</ele>
        <time>2016-08-09T09:24:52Z</time>
      </trkpt>
      <trkpt lat="49.32794" lon="-0.47606">
        <ele>6.87</ele>
        <time>2016-08-09T09:24:53Z</time>
      </trkpt>
      <trkpt lat="49.328" lon="-0.47599">
        <ele>6.39</ele>
        <time>2016-08-09T09:24:54Z</time>
      </trkpt>
      <trkpt lat="49.3284" lon="-0.47537">
        <ele>6.39</ele>
        <time>2016-08-09T09:25:02Z</time>
      </trkpt>
      <trkpt lat="49.32856" lon="-0.47489">
        <ele>5.42</ele>
        <time>2016-08-09T09:25:07Z</time>
      </trkpt>
      <trkpt lat="49.32859" lon="-0.4748">
        <ele>4.94</ele>
        <time>2016-08-09T09:25:08Z</time>
      </trkpt>
      <trkpt lat="49.32865" lon="-0.47464">
        <ele>4.94</ele>
        <time>2016-08-09T09:25:10Z</time>
      </trkpt>
      <trkpt lat="49.32869" lon="-0.47457">
        <ele>4.46</ele>
        <time>2016-08-09T09:25:11Z</time>
      </trkpt>
      <trkpt lat="49.32892" lon="-0.47428">
        <ele>3.5</ele>
        <time>2016-08-09T09:25:16Z</time>
      </trkpt>
      <trkpt lat="49.32897" lon="-0.47423">
        <ele>3.02</ele>
        <time>2016-08-09T09:25:17Z</time>
      </trkpt>
      <trkpt lat="49.32958" lon="-0.47359">
        <ele>2.54</ele>
        <time>2016-08-09T09:25:30Z</time>
      </trkpt>
      <trkpt lat="49.32962" lon="-0.47355">
        <ele>3.02</ele>
        <time>2016-08-09T09:25:31Z</time>
      </trkpt>
      <trkpt lat="49.3298" lon="-0.47338">
        <ele>3.5</ele>
        <time>2016-08-09T09:25:39Z</time>
      </trkpt>
      <trkpt lat="49.32982" lon="-0.47339">
        <ele>3.5</ele>
        <time>2016-08-09T09:25:40Z</time>
      </trkpt>
      <trkpt lat="49.32985" lon="-0.47341">
        <ele>3.98</ele>
        <time>2016-08-09T09:25:41Z</time>
      </trkpt>
      <trkpt lat="49.32989" lon="-0.47345">
        <ele>3.98</ele>
        <time>2016-08-09T09:25:42Z</time>
      </trkpt>
      <trkpt lat="49.32994" lon="-0.47346">
        <ele>3.98</ele>
        <time>2016-08-09T09:25:43Z</time>
      </trkpt>
      <trkpt lat="49.33" lon="-0.47345">
        <ele>3.98</ele>
        <time>2016-08-09T09:25:44Z</time>
      </trkpt>
      <trkpt lat="49.33005" lon="-0.47343">
        <ele>3.98</ele>
        <time>2016-08-09T09:25:45Z</time>
      </trkpt>
      <trkpt lat="49.33011" lon="-0.47339">
        <ele>3.98</ele>
        <time>2016-08-09T09:25:46Z</time>
      </trkpt>
      <trkpt lat="49.33016" lon="-0.47335">
        <ele>3.98</ele>
        <time>2016-08-09T09:25:47Z</time>
      </trkpt>
      <trkpt lat="49.33021" lon="-0.47332">
        <ele>3.5</ele>
        <time>2016-08-09T09:25:48Z</time>
      </trkpt>
      <trkpt lat="49.33026" lon="-0.47329">
        <ele>3.5</ele>
        <time>2016-08-09T09:25:49Z</time>
      </trkpt>
      <trkpt lat="49.33098" lon="-0.47288">
        <ele>3.02</ele>
        <time>2016-08-09T09:26:01Z</time>
      </trkpt>
      <trkpt lat="49.33201" lon="-0.47243">
        <ele>3.02</ele>
        <time>2016-08-09T09:26:18Z</time>
      </trkpt>
      <trkpt lat="49.3331" lon="-0.47174">
        <ele>3.5</ele>
        <time>2016-08-09T09:26:37Z</time>
      </trkpt>
      <trkpt lat="49.33402" lon="-0.47118">
        <ele>3.98</ele>
        <time>2016-08-09T09:26:54Z</time>
      </trkpt>
      <trkpt lat="49.33482" lon="-0.47067">
        <ele>4.46</ele>
        <time>2016-08-09T09:27:09Z</time>
      </trkpt>
      <trkpt lat="49.33486" lon="-0.47062">
        <ele>4.46</ele>
        <time>2016-08-09T09:27:10Z</time>
      </trkpt>
      <trkpt lat="49.33488" lon="-0.47056">
        <ele>4.46</ele>
        <time>2016-08-09T09:27:11Z</time>
      </trkpt>
      <trkpt lat="49.33489" lon="-0.47049">
        <ele>4.46</ele>
        <time>2016-08-09T09:27:12Z</time>
      </trkpt>
      <trkpt lat="49.33489" lon="-0.47041">
        <ele>3.98</ele>
        <time>2016-08-09T09:27:13Z</time>
      </trkpt>
      <trkpt lat="49.33488" lon="-0.47033">
        <ele>3.98</ele>
        <time>2016-08-09T09:27:14Z</time>
      </trkpt>
      <trkpt lat="49.33487" lon="-0.47025">
        <ele>3.98</ele>
        <time>2016-08-09T09:27:15Z</time>
      </trkpt>
      <trkpt lat="49.33481" lon="-0.46903">
        <ele>4.46</ele>
        <time>2016-08-09T09:27:29Z</time>
      </trkpt>
      <trkpt lat="49.33478" lon="-0.46763">
        <ele>5.91</ele>
        <time>2016-08-09T09:27:45Z</time>
      </trkpt>
      <trkpt lat="49.33477" lon="-0.46755">
        <ele>5.91</ele>
        <time>2016-08-09T09:27:46Z</time>
      </trkpt>
      <trkpt lat="49.33475" lon="-0.46691">
        <ele>5.42</ele>
        <time>2016-08-09T09:27:54Z</time>
      </trkpt>
      <trkpt lat="49.33476" lon="-0.46639">
        <ele>4.46</ele>
        <time>2016-08-09T09:28:01Z</time>
      </trkpt>
      <trkpt lat="49.33479" lon="-0.46633">
        <ele>4.94</ele>
        <time>2016-08-09T09:28:02Z</time>
      </trkpt>
      <trkpt lat="49.33482" lon="-0.4663">
        <ele>4.94</ele>
        <time>2016-08-09T09:28:03Z</time>
      </trkpt>
      <trkpt lat="49.33486" lon="-0.46629">
        <ele>4.94</ele>
        <time>2016-08-09T09:28:04Z</time>
      </trkpt>
      <trkpt lat="49.3349" lon="-0.46629">
        <ele>4.94</ele>
        <time>2016-08-09T09:28:05Z</time>
      </trkpt>
      <trkpt lat="49.33494" lon="-0.46627">
        <ele>4.94</ele>
        <time>2016-08-09T09:28:06Z</time>
      </trkpt>
      <trkpt lat="49.33498" lon="-0.46626">
        <ele>4.46</ele>
        <time>2016-08-09T09:28:07Z</time>
      </trkpt>
      <trkpt lat="49.33501" lon="-0.46625">
        <ele>4.46</ele>
        <time>2016-08-09T09:28:08Z</time>
      </trkpt>
      <trkpt lat="49.33536" lon="-0.46615">
        <ele>4.46</ele>
        <time>2016-08-09T09:28:20Z</time>
      </trkpt>
      <trkpt lat="49.33551" lon="-0.46613">
        <ele>5.42</ele>
        <time>2016-08-09T09:28:29Z</time>
      </trkpt>
      <trkpt lat="49.33541" lon="-0.4662">
        <ele>5.91</ele>
        <time>2016-08-09T09:28:35Z</time>
      </trkpt>
      <trkpt lat="49.33533" lon="-0.4662">
        <ele>6.39</ele>
        <time>2016-08-09T09:28:38Z</time>
      </trkpt>
      <trkpt lat="49.33531" lon="-0.46626">
        <ele>5.91</ele>
        <time>2016-08-09T09:28:46Z</time>
      </trkpt>
      <trkpt lat="49.33531" lon="-0.46626">
        <ele>6.87</ele>
        <time>2016-08-09T09:29:18Z</time>
      </trkpt>
      <trkpt lat="49.33531" lon="-0.46627">
        <ele>6.87</ele>
        <time>2016-08-09T09:29:39Z</time>
      </trkpt>
      <trkpt lat="49.33531" lon="-0.46627">
        <ele>6.87</ele>
        <time>2016-08-09T09:29:43Z</time>
      </trkpt>
      <trkpt lat="49.33528" lon="-0.46643">
        <ele>6.87</ele>
        <time>2016-08-09T09:29:52Z</time>
      </trkpt>
      <trkpt lat="49.33527" lon="-0.46644">
        <ele>6.87</ele>
        <time>2016-08-09T09:30:02Z</time>
      </trkpt>
      <trkpt lat="49.33515" lon="-0.46624">
        <ele>5.42</ele>
        <time>2016-08-09T09:30:10Z</time>
      </trkpt>
      <trkpt lat="49.33504" lon="-0.46618">
        <ele>5.42</ele>
        <time>2016-08-09T09:30:17Z</time>
      </trkpt>
      <trkpt lat="49.33504" lon="-0.4661">
        <ele>5.42</ele>
        <time>2016-08-09T09:30:19Z</time>
      </trkpt>
      <trkpt lat="49.33504" lon="-0.46566">
        <ele>4.46</ele>
        <time>2016-08-09T09:30:31Z</time>
      </trkpt>
      <trkpt lat="49.33505" lon="-0.46559">
        <ele>2.54</ele>
        <time>2016-08-09T09:30:37Z</time>
      </trkpt>
      <trkpt lat="49.33513" lon="-0.46551">
        <ele>1.58</ele>
        <time>2016-08-09T09:30:42Z</time>
      </trkpt>
      <trkpt lat="49.33528" lon="-0.46547">
        <ele>2.06</ele>
        <time>2016-08-09T09:30:46Z</time>
      </trkpt>
      <trkpt lat="49.33547" lon="-0.46544">
        <ele>2.54</ele>
        <time>2016-08-09T09:30:50Z</time>
      </trkpt>
      <trkpt lat="49.33551" lon="-0.46543">
        <ele>2.54</ele>
        <time>2016-08-09T09:30:51Z</time>
      </trkpt>
      <trkpt lat="49.33582" lon="-0.4653">
        <ele>3.5</ele>
        <time>2016-08-09T09:31:01Z</time>
      </trkpt>
      <trkpt lat="49.33583" lon="-0.4653">
        <ele>3.98</ele>
        <time>2016-08-09T09:31:04Z</time>
      </trkpt>
      <trkpt lat="49.336" lon="-0.46537">
        <ele>4.46</ele>
        <time>2016-08-09T09:31:11Z</time>
      </trkpt>
      <trkpt lat="49.33606" lon="-0.46552">
        <ele>4.94</ele>
        <time>2016-08-09T09:31:15Z</time>
      </trkpt>
      <trkpt lat="49.33617" lon="-0.46609">
        <ele>5.91</ele>
        <time>2016-08-09T09:31:28Z</time>
      </trkpt>
      <trkpt lat="49.33618" lon="-0.46612">
        <ele>5.91</ele>
        <time>2016-08-09T09:31:29Z</time>
      </trkpt>
      <trkpt lat="49.33621" lon="-0.46614">
        <ele>5.91</ele>
        <time>2016-08-09T09:31:42Z</time>
      </trkpt>
      <trkpt lat="49.3362" lon="-0.46612">
        <ele>5.91</ele>
        <time>2016-08-09T09:31:59Z</time>
      </trkpt>
      <trkpt lat="49.33617" lon="-0.46579">
        <ele>6.39</ele>
        <time>2016-08-09T09:32:08Z</time>
      </trkpt>
      <trkpt lat="49.33604" lon="-0.46545">
        <ele>5.91</ele>
        <time>2016-08-09T09:32:15Z</time>
      </trkpt>
      <trkpt lat="49.33581" lon="-0.46534">
        <ele>0.14</ele>
        <time>2016-08-09T09:32:27Z</time>
      </trkpt>
      <trkpt lat="49.33543" lon="-0.46551">
        <ele>0.62</ele>
        <time>2016-08-09T09:32:37Z</time>
      </trkpt>
      <trkpt lat="49.3349" lon="-0.46558">
        <ele>3.5</ele>
        <time>2016-08-09T09:32:51Z</time>
      </trkpt>
      <trkpt lat="49.33481" lon="-0.46563">
        <ele>3.98</ele>
        <time>2016-08-09T09:32:55Z</time>
      </trkpt>
      <trkpt lat="49.3348" lon="-0.46563">
        <ele>3.98</ele>
        <time>2016-08-09T09:32:56Z</time>
      </trkpt>
      <trkpt lat="49.33479" lon="-0.46563">
        <ele>3.98</ele>
        <time>2016-08-09T09:33:07Z</time>
      </trkpt>
      <trkpt lat="49.33474" lon="-0.46545">
        <ele>3.02</ele>
        <time>2016-08-09T09:33:11Z</time>
      </trkpt>
      <trkpt lat="49.33473" lon="-0.46538">
        <ele>3.02</ele>
        <time>2016-08-09T09:33:12Z</time>
      </trkpt>
      <trkpt lat="49.33472" lon="-0.4653">
        <ele>3.02</ele>
        <time>2016-08-09T09:33:13Z</time>
      </trkpt>
      <trkpt lat="49.3347" lon="-0.46395">
        <ele>3.5</ele>
        <time>2016-08-09T09:33:28Z</time>
      </trkpt>
      <trkpt lat="49.33467" lon="-0.46304">
        <ele>4.94</ele>
        <time>2016-08-09T09:33:38Z</time>
      </trkpt>
      <trkpt lat="49.33465" lon="-0.46295">
        <ele>5.42</ele>
        <time>2016-08-09T09:33:39Z</time>
      </trkpt>
      <trkpt lat="49.33463" lon="-0.46287">
        <ele>5.42</ele>
        <time>2016-08-09T09:33:40Z</time>
      </trkpt>
      <trkpt lat="49.3346" lon="-0.46279">
        <ele>5.91</ele>
        <time>2016-08-09T09:33:41Z</time>
      </trkpt>
      <trkpt lat="49.33457" lon="-0.46272">
        <ele>5.91</ele>
        <time>2016-08-09T09:33:42Z</time>
      </trkpt>
      <trkpt lat="49.33453" lon="-0.46265">
        <ele>6.39</ele>
        <time>2016-08-09T09:33:43Z</time>
      </trkpt>
      <trkpt lat="49.33448" lon="-0.46259">
        <ele>6.87</ele>
        <time>2016-08-09T09:33:44Z</time>
      </trkpt>
      <trkpt lat="49.33443" lon="-0.46254">
        <ele>6.87</ele>
        <time>2016-08-09T09:33:45Z</time>
      </trkpt>
      <trkpt lat="49.33433" lon="-0.46246">
        <ele>6.87</ele>
        <time>2016-08-09T09:33:47Z</time>
      </trkpt>
      <trkpt lat="49.33394" lon="-0.46229">
        <ele>8.31</ele>
        <time>2016-08-09T09:33:54Z</time>
      </trkpt>
      <trkpt lat="49.33388" lon="-0.46232">
        <ele>7.83</ele>
        <time>2016-08-09T09:33:55Z</time>
      </trkpt>
      <trkpt lat="49.33383" lon="-0.46237">
        <ele>7.83</ele>
        <time>2016-08-09T09:33:56Z</time>
      </trkpt>
      <trkpt lat="49.33379" lon="-0.46243">
        <ele>7.83</ele>
        <time>2016-08-09T09:33:57Z</time>
      </trkpt>
      <trkpt lat="49.33374" lon="-0.4625">
        <ele>7.35</ele>
        <time>2016-08-09T09:33:58Z</time>
      </trkpt>
      <trkpt lat="49.3337" lon="-0.46257">
        <ele>7.35</ele>
        <time>2016-08-09T09:33:59Z</time>
      </trkpt>
      <trkpt lat="49.33287" lon="-0.46381">
        <ele>5.91</ele>
        <time>2016-08-09T09:34:16Z</time>
      </trkpt>
      <trkpt lat="49.33282" lon="-0.46388">
        <ele>5.91</ele>
        <time>2016-08-09T09:34:17Z</time>
      </trkpt>
      <trkpt lat="49.33232" lon="-0.46464">
        <ele>4.94</ele>
        <time>2016-08-09T09:34:27Z</time>
      </trkpt>
      <trkpt lat="49.33227" lon="-0.46471">
        <ele>4.94</ele>
        <time>2016-08-09T09:34:28Z</time>
      </trkpt>
      <trkpt lat="49.33221" lon="-0.46478">
        <ele>4.94</ele>
        <time>2016-08-09T09:34:29Z</time>
      </trkpt>
      <trkpt lat="49.33215" lon="-0.46483">
        <ele>4.94</ele>
        <time>2016-08-09T09:34:30Z</time>
      </trkpt>
      <trkpt lat="49.33209" lon="-0.46488">
        <ele>4.94</ele>
        <time>2016-08-09T09:34:31Z</time>
      </trkpt>
      <trkpt lat="49.33202" lon="-0.46491">
        <ele>5.42</ele>
        <time>2016-08-09T09:34:32Z</time>
      </trkpt>
      <trkpt lat="49.33195" lon="-0.46492">
        <ele>5.42</ele>
        <time>2016-08-09T09:34:33Z</time>
      </trkpt>
      <trkpt lat="49.33188" lon="-0.46491">
        <ele>5.42</ele>
        <time>2016-08-09T09:34:34Z</time>
      </trkpt>
      <trkpt lat="49.33181" lon="-0.46486">
        <ele>5.91</ele>
        <time>2016-08-09T09:34:35Z</time>
      </trkpt>
      <trkpt lat="49.33175" lon="-0.4648">
        <ele>5.91</ele>
        <time>2016-08-09T09:34:36Z</time>
      </trkpt>
      <trkpt lat="49.3317" lon="-0.46473">
        <ele>5.91</ele>
        <time>2016-08-09T09:34:37Z</time>
      </trkpt>
      <trkpt lat="49.33165" lon="-0.46466">
        <ele>5.91</ele>
        <time>2016-08-09T09:34:38Z</time>
      </trkpt>
      <trkpt lat="49.33161" lon="-0.46458">
        <ele>5.91</ele>
        <time>2016-08-09T09:34:39Z</time>
      </trkpt>
      <trkpt lat="49.33157" lon="-0.4645">
        <ele>5.91</ele>
        <time>2016-08-09T09:34:40Z</time>
      </trkpt>
      <trkpt lat="49.33153" lon="-0.46441">
        <ele>5.91</ele>
        <time>2016-08-09T09:34:41Z</time>
      </trkpt>
      <trkpt lat="49.3315" lon="-0.46432">
        <ele>5.42</ele>
        <time>2016-08-09T09:34:42Z</time>
      </trkpt>
      <trkpt lat="49.33149" lon="-0.46422">
        <ele>5.42</ele>
        <time>2016-08-09T09:34:43Z</time>
      </trkpt>
      <trkpt lat="49.33149" lon="-0.46412">
        <ele>5.91</ele>
        <time>2016-08-09T09:34:44Z</time>
      </trkpt>
      <trkpt lat="49.3315" lon="-0.46403">
        <ele>5.42</ele>
        <time>2016-08-09T09:34:45Z</time>
      </trkpt>
      <trkpt lat="49.33152" lon="-0.46394">
        <ele>5.91</ele>
        <time>2016-08-09T09:34:46Z</time>
      </trkpt>
      <trkpt lat="49.33155" lon="-0.46386">
        <ele>6.39</ele>
        <time>2016-08-09T09:34:47Z</time>
      </trkpt>
      <trkpt lat="49.33159" lon="-0.46378">
        <ele>6.39</ele>
        <time>2016-08-09T09:34:48Z</time>
      </trkpt>
      <trkpt lat="49.33163" lon="-0.46372">
        <ele>6.39</ele>
        <time>2016-08-09T09:34:49Z</time>
      </trkpt>
      <trkpt lat="49.33185" lon="-0.4634">
        <ele>6.39</ele>
        <time>2016-08-09T09:34:54Z</time>
      </trkpt>
      <trkpt lat="49.33186" lon="-0.46332">
        <ele>6.39</ele>
        <time>2016-08-09T09:34:55Z</time>
      </trkpt>
      <trkpt lat="49.33184" lon="-0.46324">
        <ele>6.39</ele>
        <time>2016-08-09T09:34:56Z</time>
      </trkpt>
      <trkpt lat="49.3318" lon="-0.46317">
        <ele>6.39</ele>
        <time>2016-08-09T09:34:57Z</time>
      </trkpt>
      <trkpt lat="49.33175" lon="-0.4631">
        <ele>6.87</ele>
        <time>2016-08-09T09:34:58Z</time>
      </trkpt>
      <trkpt lat="49.33171" lon="-0.46303">
        <ele>6.87</ele>
        <time>2016-08-09T09:34:59Z</time>
      </trkpt>
      <trkpt lat="49.33123" lon="-0.46222">
        <ele>7.83</ele>
        <time>2016-08-09T09:35:10Z</time>
      </trkpt>
      <trkpt lat="49.33083" lon="-0.46137">
        <ele>7.35</ele>
        <time>2016-08-09T09:35:20Z</time>
      </trkpt>
      <trkpt lat="49.33062" lon="-0.46109">
        <ele>7.35</ele>
        <time>2016-08-09T09:35:24Z</time>
      </trkpt>
      <trkpt lat="49.33058" lon="-0.461">
        <ele>7.35</ele>
        <time>2016-08-09T09:35:25Z</time>
      </trkpt>
      <trkpt lat="49.33055" lon="-0.46091">
        <ele>7.35</ele>
        <time>2016-08-09T09:35:26Z</time>
      </trkpt>
      <trkpt lat="49.33035" lon="-0.45956">
        <ele>8.79</ele>
        <time>2016-08-09T09:35:40Z</time>
      </trkpt>
      <trkpt lat="49.33034" lon="-0.45946">
        <ele>8.79</ele>
        <time>2016-08-09T09:35:41Z</time>
      </trkpt>
      <trkpt lat="49.33033" lon="-0.45936">
        <ele>8.79</ele>
        <time>2016-08-09T09:35:42Z</time>
      </trkpt>
      <trkpt lat="49.33031" lon="-0.45927">
        <ele>9.27</ele>
        <time>2016-08-09T09:35:43Z</time>
      </trkpt>
      <trkpt lat="49.3303" lon="-0.45918">
        <ele>9.27</ele>
        <time>2016-08-09T09:35:44Z</time>
      </trkpt>
      <trkpt lat="49.33028" lon="-0.45908">
        <ele>9.27</ele>
        <time>2016-08-09T09:35:45Z</time>
      </trkpt>
      <trkpt lat="49.33025" lon="-0.459">
        <ele>9.27</ele>
        <time>2016-08-09T09:35:46Z</time>
      </trkpt>
      <trkpt lat="49.33023" lon="-0.45892">
        <ele>9.27</ele>
        <time>2016-08-09T09:35:47Z</time>
      </trkpt>
      <trkpt lat="49.32993" lon="-0.45818">
        <ele>10.71</ele>
        <time>2016-08-09T09:35:59Z</time>
      </trkpt>
      <trkpt lat="49.32982" lon="-0.45789">
        <ele>10.71</ele>
        <time>2016-08-09T09:36:06Z</time>
      </trkpt>
      <trkpt lat="49.32981" lon="-0.45786">
        <ele>10.71</ele>
        <time>2016-08-09T09:36:07Z</time>
      </trkpt>
      <trkpt lat="49.32979" lon="-0.45783">
        <ele>10.71</ele>
        <time>2016-08-09T09:36:08Z</time>
      </trkpt>
      <trkpt lat="49.32977" lon="-0.45782">
        <ele>10.71</ele>
        <time>2016-08-09T09:36:09Z</time>
      </trkpt>
      <trkpt lat="49.32976" lon="-0.45781">
        <ele>10.71</ele>
        <time>2016-08-09T09:36:10Z</time>
      </trkpt>
      <trkpt lat="49.32974" lon="-0.4578">
        <ele>10.71</ele>
        <time>2016-08-09T09:36:11Z</time>
      </trkpt>
      <trkpt lat="49.32971" lon="-0.45778">
        <ele>11.19</ele>
        <time>2016-08-09T09:36:12Z</time>
      </trkpt>
      <trkpt lat="49.32969" lon="-0.45778">
        <ele>11.19</ele>
        <time>2016-08-09T09:36:13Z</time>
      </trkpt>
      <trkpt lat="49.32963" lon="-0.45776">
        <ele>11.67</ele>
        <time>2016-08-09T09:36:17Z</time>
      </trkpt>
      <trkpt lat="49.32958" lon="-0.45774">
        <ele>12.63</ele>
        <time>2016-08-09T09:36:32Z</time>
      </trkpt>
      <trkpt lat="49.32957" lon="-0.45773">
        <ele>13.12</ele>
        <time>2016-08-09T09:36:50Z</time>
      </trkpt>
      <trkpt lat="49.32956" lon="-0.45771">
        <ele>13.12</ele>
        <time>2016-08-09T09:36:51Z</time>
      </trkpt>
      <trkpt lat="49.32955" lon="-0.45766">
        <ele>12.63</ele>
        <time>2016-08-09T09:36:52Z</time>
      </trkpt>
      <trkpt lat="49.32955" lon="-0.4576">
        <ele>12.15</ele>
        <time>2016-08-09T09:36:53Z</time>
      </trkpt>
      <trkpt lat="49.32955" lon="-0.45753">
        <ele>12.15</ele>
        <time>2016-08-09T09:36:54Z</time>
      </trkpt>
      <trkpt lat="49.32954" lon="-0.45745">
        <ele>11.67</ele>
        <time>2016-08-09T09:36:55Z</time>
      </trkpt>
      <trkpt lat="49.32954" lon="-0.45736">
        <ele>11.19</ele>
        <time>2016-08-09T09:36:56Z</time>
      </trkpt>
      <trkpt lat="49.32954" lon="-0.45728">
        <ele>11.19</ele>
        <time>2016-08-09T09:36:57Z</time>
      </trkpt>
      <trkpt lat="49.32954" lon="-0.4572">
        <ele>10.71</ele>
        <time>2016-08-09T09:36:58Z</time>
      </trkpt>
      <trkpt lat="49.32953" lon="-0.45711">
        <ele>10.71</ele>
        <time>2016-08-09T09:36:59Z</time>
      </trkpt>
      <trkpt lat="49.32953" lon="-0.45695">
        <ele>10.23</ele>
        <time>2016-08-09T09:37:01Z</time>
      </trkpt>
      <trkpt lat="49.32955" lon="-0.45688">
        <ele>10.23</ele>
        <time>2016-08-09T09:37:02Z</time>
      </trkpt>
      <trkpt lat="49.32959" lon="-0.45684">
        <ele>9.75</ele>
        <time>2016-08-09T09:37:03Z</time>
      </trkpt>
      <trkpt lat="49.32963" lon="-0.45682">
        <ele>9.75</ele>
        <time>2016-08-09T09:37:04Z</time>
      </trkpt>
      <trkpt lat="49.32968" lon="-0.45681">
        <ele>8.79</ele>
        <time>2016-08-09T09:37:05Z</time>
      </trkpt>
      <trkpt lat="49.32973" lon="-0.45679">
        <ele>8.79</ele>
        <time>2016-08-09T09:37:06Z</time>
      </trkpt>
      <trkpt lat="49.32976" lon="-0.45677">
        <ele>8.31</ele>
        <time>2016-08-09T09:37:07Z</time>
      </trkpt>
      <trkpt lat="49.32977" lon="-0.45674">
        <ele>8.31</ele>
        <time>2016-08-09T09:37:08Z</time>
      </trkpt>
      <trkpt lat="49.32979" lon="-0.45672">
        <ele>7.83</ele>
        <time>2016-08-09T09:37:09Z</time>
      </trkpt>
      <trkpt lat="49.3298" lon="-0.45669">
        <ele>7.83</ele>
        <time>2016-08-09T09:37:10Z</time>
      </trkpt>
      <trkpt lat="49.32981" lon="-0.45666">
        <ele>7.83</ele>
        <time>2016-08-09T09:37:11Z</time>
      </trkpt>
      <trkpt lat="49.32985" lon="-0.45654">
        <ele>7.83</ele>
        <time>2016-08-09T09:37:18Z</time>
      </trkpt>
      <trkpt lat="49.32985" lon="-0.45652">
        <ele>8.79</ele>
        <time>2016-08-09T09:37:24Z</time>
      </trkpt>
      <trkpt lat="49.32985" lon="-0.4565">
        <ele>8.79</ele>
        <time>2016-08-09T09:37:25Z</time>
      </trkpt>
      <trkpt lat="49.32986" lon="-0.45646">
        <ele>7.35</ele>
        <time>2016-08-09T09:37:26Z</time>
      </trkpt>
      <trkpt lat="49.32986" lon="-0.45642">
        <ele>6.87</ele>
        <time>2016-08-09T09:37:27Z</time>
      </trkpt>
      <trkpt lat="49.32987" lon="-0.45636">
        <ele>5.91</ele>
        <time>2016-08-09T09:37:28Z</time>
      </trkpt>
      <trkpt lat="49.32989" lon="-0.4563">
        <ele>5.91</ele>
        <time>2016-08-09T09:37:29Z</time>
      </trkpt>
      <trkpt lat="49.3299" lon="-0.45622">
        <ele>5.42</ele>
        <time>2016-08-09T09:37:30Z</time>
      </trkpt>
      <trkpt lat="49.33002" lon="-0.45561">
        <ele>3.02</ele>
        <time>2016-08-09T09:37:37Z</time>
      </trkpt>
      <trkpt lat="49.33004" lon="-0.45552">
        <ele>3.02</ele>
        <time>2016-08-09T09:37:38Z</time>
      </trkpt>
      <trkpt lat="49.33006" lon="-0.45543">
        <ele>3.02</ele>
        <time>2016-08-09T09:37:39Z</time>
      </trkpt>
      <trkpt lat="49.33007" lon="-0.45535">
        <ele>3.02</ele>
        <time>2016-08-09T09:37:40Z</time>
      </trkpt>
      <trkpt lat="49.33007" lon="-0.45525">
        <ele>3.02</ele>
        <time>2016-08-09T09:37:41Z</time>
      </trkpt>
      <trkpt lat="49.33007" lon="-0.45516">
        <ele>3.02</ele>
        <time>2016-08-09T09:37:42Z</time>
      </trkpt>
      <trkpt lat="49.33006" lon="-0.45507">
        <ele>3.02</ele>
        <time>2016-08-09T09:37:43Z</time>
      </trkpt>
      <trkpt lat="49.33005" lon="-0.45498">
        <ele>3.5</ele>
        <time>2016-08-09T09:37:44Z</time>
      </trkpt>
      <trkpt lat="49.33003" lon="-0.45488">
        <ele>3.5</ele>
        <time>2016-08-09T09:37:45Z</time>
      </trkpt>
      <trkpt lat="49.33001" lon="-0.45479">
        <ele>3.5</ele>
        <time>2016-08-09T09:37:46Z</time>
      </trkpt>
      <trkpt lat="49.33" lon="-0.45469">
        <ele>3.5</ele>
        <time>2016-08-09T09:37:47Z</time>
      </trkpt>
      <trkpt lat="49.33" lon="-0.45459">
        <ele>3.98</ele>
        <time>2016-08-09T09:37:48Z</time>
      </trkpt>
      <trkpt lat="49.32998" lon="-0.45353">
        <ele>5.91</ele>
        <time>2016-08-09T09:37:59Z</time>
      </trkpt>
      <trkpt lat="49.32997" lon="-0.45344">
        <ele>5.91</ele>
        <time>2016-08-09T09:38:00Z</time>
      </trkpt>
      <trkpt lat="49.32997" lon="-0.45325">
        <ele>5.91</ele>
        <time>2016-08-09T09:38:02Z</time>
      </trkpt>
      <trkpt lat="49.32995" lon="-0.45184">
        <ele>7.35</ele>
        <time>2016-08-09T09:38:17Z</time>
      </trkpt>
      <trkpt lat="49.33013" lon="-0.45054">
        <ele>8.79</ele>
        <time>2016-08-09T09:38:31Z</time>
      </trkpt>
      <trkpt lat="49.33032" lon="-0.44984">
        <ele>8.79</ele>
        <time>2016-08-09T09:38:39Z</time>
      </trkpt>
      <trkpt lat="49.33035" lon="-0.44955">
        <ele>7.83</ele>
        <time>2016-08-09T09:38:42Z</time>
      </trkpt>
      <trkpt lat="49.33035" lon="-0.44946">
        <ele>7.83</ele>
        <time>2016-08-09T09:38:43Z</time>
      </trkpt>
      <trkpt lat="49.33029" lon="-0.44832">
        <ele>9.27</ele>
        <time>2016-08-09T09:38:56Z</time>
      </trkpt>
      <trkpt lat="49.33025" lon="-0.44774">
        <ele>9.27</ele>
        <time>2016-08-09T09:39:08Z</time>
      </trkpt>
      <trkpt lat="49.33023" lon="-0.44755">
        <ele>8.79</ele>
        <time>2016-08-09T09:39:15Z</time>
      </trkpt>
      <trkpt lat="49.33022" lon="-0.44753">
        <ele>8.79</ele>
        <time>2016-08-09T09:39:16Z</time>
      </trkpt>
      <trkpt lat="49.33021" lon="-0.44747">
        <ele>9.27</ele>
        <time>2016-08-09T09:39:18Z</time>
      </trkpt>
      <trkpt lat="49.33021" lon="-0.44741">
        <ele>9.27</ele>
        <time>2016-08-09T09:39:19Z</time>
      </trkpt>
      <trkpt lat="49.33021" lon="-0.44733">
        <ele>9.27</ele>
        <time>2016-08-09T09:39:20Z</time>
      </trkpt>
      <trkpt lat="49.33021" lon="-0.44725">
        <ele>9.75</ele>
        <time>2016-08-09T09:39:21Z</time>
      </trkpt>
      <trkpt lat="49.33021" lon="-0.44715">
        <ele>9.27</ele>
        <time>2016-08-09T09:39:22Z</time>
      </trkpt>
      <trkpt lat="49.3302" lon="-0.44705">
        <ele>9.27</ele>
        <time>2016-08-09T09:39:23Z</time>
      </trkpt>
      <trkpt lat="49.3302" lon="-0.44695">
        <ele>9.27</ele>
        <time>2016-08-09T09:39:24Z</time>
      </trkpt>
      <trkpt lat="49.33019" lon="-0.44685">
        <ele>8.79</ele>
        <time>2016-08-09T09:39:25Z</time>
      </trkpt>
      <trkpt lat="49.33009" lon="-0.44534">
        <ele>9.27</ele>
        <time>2016-08-09T09:39:40Z</time>
      </trkpt>
      <trkpt lat="49.32999" lon="-0.44385">
        <ele>10.71</ele>
        <time>2016-08-09T09:39:55Z</time>
      </trkpt>
      <trkpt lat="49.32999" lon="-0.44375">
        <ele>10.71</ele>
        <time>2016-08-09T09:39:56Z</time>
      </trkpt>
      <trkpt lat="49.32998" lon="-0.44365">
        <ele>10.71</ele>
        <time>2016-08-09T09:39:57Z</time>
      </trkpt>
      <trkpt lat="49.32996" lon="-0.44356">
        <ele>10.23</ele>
        <time>2016-08-09T09:39:58Z</time>
      </trkpt>
      <trkpt lat="49.32996" lon="-0.44347">
        <ele>10.71</ele>
        <time>2016-08-09T09:39:59Z</time>
      </trkpt>
      <trkpt lat="49.32995" lon="-0.44337">
        <ele>10.71</ele>
        <time>2016-08-09T09:40:00Z</time>
      </trkpt>
      <trkpt lat="49.32986" lon="-0.44192">
        <ele>9.75</ele>
        <time>2016-08-09T09:40:14Z</time>
      </trkpt>
      <trkpt lat="49.32975" lon="-0.44021">
        <ele>10.71</ele>
        <time>2016-08-09T09:40:31Z</time>
      </trkpt>
      <trkpt lat="49.32965" lon="-0.4385">
        <ele>10.71</ele>
        <time>2016-08-09T09:40:48Z</time>
      </trkpt>
      <trkpt lat="49.32953" lon="-0.43675">
        <ele>9.27</ele>
        <time>2016-08-09T09:41:05Z</time>
      </trkpt>
      <trkpt lat="49.32942" lon="-0.43507">
        <ele>9.27</ele>
        <time>2016-08-09T09:41:21Z</time>
      </trkpt>
      <trkpt lat="49.32942" lon="-0.43394">
        <ele>9.75</ele>
        <time>2016-08-09T09:41:33Z</time>
      </trkpt>
      <trkpt lat="49.3294" lon="-0.43369">
        <ele>9.27</ele>
        <time>2016-08-09T09:41:41Z</time>
      </trkpt>
      <trkpt lat="49.3294" lon="-0.43367">
        <ele>9.27</ele>
        <time>2016-08-09T09:41:42Z</time>
      </trkpt>
      <trkpt lat="49.32942" lon="-0.43364">
        <ele>9.27</ele>
        <time>2016-08-09T09:41:43Z</time>
      </trkpt>
      <trkpt lat="49.32944" lon="-0.43362">
        <ele>9.27</ele>
        <time>2016-08-09T09:41:44Z</time>
      </trkpt>
      <trkpt lat="49.32947" lon="-0.43362">
        <ele>9.27</ele>
        <time>2016-08-09T09:41:45Z</time>
      </trkpt>
      <trkpt lat="49.3295" lon="-0.43362">
        <ele>8.79</ele>
        <time>2016-08-09T09:41:46Z</time>
      </trkpt>
      <trkpt lat="49.32953" lon="-0.4336">
        <ele>8.79</ele>
        <time>2016-08-09T09:41:48Z</time>
      </trkpt>
      <trkpt lat="49.32958" lon="-0.43354">
        <ele>8.31</ele>
        <time>2016-08-09T09:41:50Z</time>
      </trkpt>
      <trkpt lat="49.3296" lon="-0.43348">
        <ele>8.31</ele>
        <time>2016-08-09T09:41:51Z</time>
      </trkpt>
      <trkpt lat="49.32962" lon="-0.43342">
        <ele>8.31</ele>
        <time>2016-08-09T09:41:52Z</time>
      </trkpt>
      <trkpt lat="49.32966" lon="-0.43327">
        <ele>7.83</ele>
        <time>2016-08-09T09:41:54Z</time>
      </trkpt>
      <trkpt lat="49.32969" lon="-0.43319">
        <ele>7.83</ele>
        <time>2016-08-09T09:41:55Z</time>
      </trkpt>
      <trkpt lat="49.32987" lon="-0.43281">
        <ele>7.35</ele>
        <time>2016-08-09T09:42:00Z</time>
      </trkpt>
      <trkpt lat="49.33067" lon="-0.43198">
        <ele>5.91</ele>
        <time>2016-08-09T09:42:15Z</time>
      </trkpt>
      <trkpt lat="49.33158" lon="-0.43098">
        <ele>3.5</ele>
        <time>2016-08-09T09:42:32Z</time>
      </trkpt>
      <trkpt lat="49.332" lon="-0.42977">
        <ele>3.98</ele>
        <time>2016-08-09T09:42:45Z</time>
      </trkpt>
      <trkpt lat="49.33249" lon="-0.42839">
        <ele>4.94</ele>
        <time>2016-08-09T09:43:00Z</time>
      </trkpt>
      <trkpt lat="49.33319" lon="-0.42758">
        <ele>3.98</ele>
        <time>2016-08-09T09:43:13Z</time>
      </trkpt>
      <trkpt lat="49.33415" lon="-0.42671">
        <ele>3.98</ele>
        <time>2016-08-09T09:43:30Z</time>
      </trkpt>
      <trkpt lat="49.3346" lon="-0.4262">
        <ele>4.46</ele>
        <time>2016-08-09T09:43:39Z</time>
      </trkpt>
      <trkpt lat="49.33463" lon="-0.42612">
        <ele>4.46</ele>
        <time>2016-08-09T09:43:40Z</time>
      </trkpt>
      <trkpt lat="49.33481" lon="-0.42563">
        <ele>4.46</ele>
        <time>2016-08-09T09:43:46Z</time>
      </trkpt>
      <trkpt lat="49.33487" lon="-0.42535">
        <ele>4.46</ele>
        <time>2016-08-09T09:43:49Z</time>
      </trkpt>
      <trkpt lat="49.33485" lon="-0.42404">
        <ele>5.42</ele>
        <time>2016-08-09T09:44:02Z</time>
      </trkpt>
      <trkpt lat="49.33478" lon="-0.42251">
        <ele>4.94</ele>
        <time>2016-08-09T09:44:16Z</time>
      </trkpt>
      <trkpt lat="49.33472" lon="-0.42077">
        <ele>5.42</ele>
        <time>2016-08-09T09:44:33Z</time>
      </trkpt>
      <trkpt lat="49.33467" lon="-0.41912">
        <ele>4.94</ele>
        <time>2016-08-09T09:44:49Z</time>
      </trkpt>
      <trkpt lat="49.33468" lon="-0.41839">
        <ele>6.39</ele>
        <time>2016-08-09T09:44:59Z</time>
      </trkpt>
      <trkpt lat="49.33467" lon="-0.41826">
        <ele>8.79</ele>
        <time>2016-08-09T09:45:14Z</time>
      </trkpt>
      <trkpt lat="49.33467" lon="-0.41826">
        <ele>7.83</ele>
        <time>2016-08-09T09:45:31Z</time>
      </trkpt>
      <trkpt lat="49.33467" lon="-0.41824">
        <ele>7.83</ele>
        <time>2016-08-09T09:45:32Z</time>
      </trkpt>
      <trkpt lat="49.33467" lon="-0.4182">
        <ele>7.83</ele>
        <time>2016-08-09T09:45:33Z</time>
      </trkpt>
      <trkpt lat="49.33467" lon="-0.41816">
        <ele>7.83</ele>
        <time>2016-08-09T09:45:34Z</time>
      </trkpt>
      <trkpt lat="49.33467" lon="-0.41812">
        <ele>7.83</ele>
        <time>2016-08-09T09:45:35Z</time>
      </trkpt>
      <trkpt lat="49.33467" lon="-0.41776">
        <ele>6.87</ele>
        <time>2016-08-09T09:45:40Z</time>
      </trkpt>
      <trkpt lat="49.33467" lon="-0.41766">
        <ele>7.35</ele>
        <time>2016-08-09T09:45:41Z</time>
      </trkpt>
      <trkpt lat="49.33467" lon="-0.41592">
        <ele>5.42</ele>
        <time>2016-08-09T09:45:57Z</time>
      </trkpt>
      <trkpt lat="49.33459" lon="-0.41414">
        <ele>6.39</ele>
        <time>2016-08-09T09:46:14Z</time>
      </trkpt>
      <trkpt lat="49.33451" lon="-0.41271">
        <ele>4.94</ele>
        <time>2016-08-09T09:46:28Z</time>
      </trkpt>
      <trkpt lat="49.33442" lon="-0.41104">
        <ele>4.46</ele>
        <time>2016-08-09T09:46:44Z</time>
      </trkpt>
      <trkpt lat="49.33414" lon="-0.40934">
        <ele>5.42</ele>
        <time>2016-08-09T09:47:00Z</time>
      </trkpt>
      <trkpt lat="49.33365" lon="-0.40783">
        <ele>6.39</ele>
        <time>2016-08-09T09:47:14Z</time>
      </trkpt>
      <trkpt lat="49.33361" lon="-0.40775">
        <ele>6.39</ele>
        <time>2016-08-09T09:47:15Z</time>
      </trkpt>
      <trkpt lat="49.33338" lon="-0.40726">
        <ele>6.87</ele>
        <time>2016-08-09T09:47:21Z</time>
      </trkpt>
      <trkpt lat="49.33338" lon="-0.40716">
        <ele>6.39</ele>
        <time>2016-08-09T09:47:22Z</time>
      </trkpt>
      <trkpt lat="49.33339" lon="-0.40706">
        <ele>6.39</ele>
        <time>2016-08-09T09:47:23Z</time>
      </trkpt>
      <trkpt lat="49.33342" lon="-0.40683">
        <ele>5.91</ele>
        <time>2016-08-09T09:47:25Z</time>
      </trkpt>
      <trkpt lat="49.33342" lon="-0.40671">
        <ele>5.91</ele>
        <time>2016-08-09T09:47:26Z</time>
      </trkpt>
      <trkpt lat="49.33342" lon="-0.40659">
        <ele>5.91</ele>
        <time>2016-08-09T09:47:27Z</time>
      </trkpt>
      <trkpt lat="49.33331" lon="-0.40484">
        <ele>5.42</ele>
        <time>2016-08-09T09:47:43Z</time>
      </trkpt>
      <trkpt lat="49.33318" lon="-0.40344">
        <ele>7.83</ele>
        <time>2016-08-09T09:47:57Z</time>
      </trkpt>
      <trkpt lat="49.33309" lon="-0.40195">
        <ele>10.23</ele>
        <time>2016-08-09T09:48:13Z</time>
      </trkpt>
      <trkpt lat="49.33296" lon="-0.40044">
        <ele>10.71</ele>
        <time>2016-08-09T09:48:30Z</time>
      </trkpt>
      <trkpt lat="49.3329" lon="-0.39977">
        <ele>10.23</ele>
        <time>2016-08-09T09:48:37Z</time>
      </trkpt>
      <trkpt lat="49.33273" lon="-0.39825">
        <ele>9.27</ele>
        <time>2016-08-09T09:48:52Z</time>
      </trkpt>
      <trkpt lat="49.3327" lon="-0.39758">
        <ele>10.23</ele>
        <time>2016-08-09T09:48:58Z</time>
      </trkpt>
      <trkpt lat="49.3326" lon="-0.39674">
        <ele>10.71</ele>
        <time>2016-08-09T09:49:06Z</time>
      </trkpt>
      <trkpt lat="49.33243" lon="-0.39506">
        <ele>8.79</ele>
        <time>2016-08-09T09:49:22Z</time>
      </trkpt>
      <trkpt lat="49.33227" lon="-0.39423">
        <ele>7.83</ele>
        <time>2016-08-09T09:49:30Z</time>
      </trkpt>
      <trkpt lat="49.33222" lon="-0.39417">
        <ele>7.35</ele>
        <time>2016-08-09T09:49:31Z</time>
      </trkpt>
      <trkpt lat="49.33216" lon="-0.39415">
        <ele>6.87</ele>
        <time>2016-08-09T09:49:32Z</time>
      </trkpt>
      <trkpt lat="49.3321" lon="-0.39416">
        <ele>6.39</ele>
        <time>2016-08-09T09:49:33Z</time>
      </trkpt>
      <trkpt lat="49.33204" lon="-0.39419">
        <ele>6.39</ele>
        <time>2016-08-09T09:49:34Z</time>
      </trkpt>
      <trkpt lat="49.33198" lon="-0.39423">
        <ele>6.39</ele>
        <time>2016-08-09T09:49:35Z</time>
      </trkpt>
      <trkpt lat="49.3316" lon="-0.39447">
        <ele>5.42</ele>
        <time>2016-08-09T09:49:41Z</time>
      </trkpt>
      <trkpt lat="49.33154" lon="-0.39452">
        <ele>4.94</ele>
        <time>2016-08-09T09:49:42Z</time>
      </trkpt>
      <trkpt lat="49.33113" lon="-0.39491">
        <ele>7.35</ele>
        <time>2016-08-09T09:49:49Z</time>
      </trkpt>
      <trkpt lat="49.33095" lon="-0.39509">
        <ele>7.83</ele>
        <time>2016-08-09T09:49:52Z</time>
      </trkpt>
      <trkpt lat="49.33089" lon="-0.39514">
        <ele>7.83</ele>
        <time>2016-08-09T09:49:53Z</time>
      </trkpt>
      <trkpt lat="49.33067" lon="-0.39529">
        <ele>8.31</ele>
        <time>2016-08-09T09:49:57Z</time>
      </trkpt>
      <trkpt lat="49.33064" lon="-0.39529">
        <ele>8.79</ele>
        <time>2016-08-09T09:49:58Z</time>
      </trkpt>
      <trkpt lat="49.33061" lon="-0.39526">
        <ele>8.79</ele>
        <time>2016-08-09T09:49:59Z</time>
      </trkpt>
      <trkpt lat="49.33058" lon="-0.39522">
        <ele>8.79</ele>
        <time>2016-08-09T09:50:00Z</time>
      </trkpt>
      <trkpt lat="49.33055" lon="-0.39515">
        <ele>9.27</ele>
        <time>2016-08-09T09:50:01Z</time>
      </trkpt>
      <trkpt lat="49.33053" lon="-0.39508">
        <ele>9.27</ele>
        <time>2016-08-09T09:50:02Z</time>
      </trkpt>
      <trkpt lat="49.3305" lon="-0.395">
        <ele>9.27</ele>
        <time>2016-08-09T09:50:03Z</time>
      </trkpt>
      <trkpt lat="49.33019" lon="-0.39406">
        <ele>10.71</ele>
        <time>2016-08-09T09:50:14Z</time>
      </trkpt>
      <trkpt lat="49.32982" lon="-0.393">
        <ele>13.6</ele>
        <time>2016-08-09T09:50:26Z</time>
      </trkpt>
      <trkpt lat="49.32978" lon="-0.39291">
        <ele>13.6</ele>
        <time>2016-08-09T09:50:27Z</time>
      </trkpt>
      <trkpt lat="49.32949" lon="-0.3922">
        <ele>15.04</ele>
        <time>2016-08-09T09:50:35Z</time>
      </trkpt>
      <trkpt lat="49.32927" lon="-0.39162">
        <ele>15.52</ele>
        <time>2016-08-09T09:50:42Z</time>
      </trkpt>
      <trkpt lat="49.32925" lon="-0.39157">
        <ele>15.52</ele>
        <time>2016-08-09T09:50:43Z</time>
      </trkpt>
      <trkpt lat="49.32924" lon="-0.39151">
        <ele>15.52</ele>
        <time>2016-08-09T09:50:44Z</time>
      </trkpt>
      <trkpt lat="49.32922" lon="-0.39145">
        <ele>15.52</ele>
        <time>2016-08-09T09:50:45Z</time>
      </trkpt>
      <trkpt lat="49.3292" lon="-0.39139">
        <ele>15.52</ele>
        <time>2016-08-09T09:50:46Z</time>
      </trkpt>
      <trkpt lat="49.32917" lon="-0.39132">
        <ele>15.52</ele>
        <time>2016-08-09T09:50:47Z</time>
      </trkpt>
      <trkpt lat="49.32909" lon="-0.39109">
        <ele>15.04</ele>
        <time>2016-08-09T09:50:50Z</time>
      </trkpt>
      <trkpt lat="49.32905" lon="-0.39101">
        <ele>15.04</ele>
        <time>2016-08-09T09:50:51Z</time>
      </trkpt>
      <trkpt lat="49.32898" lon="-0.39086">
        <ele>14.56</ele>
        <time>2016-08-09T09:50:53Z</time>
      </trkpt>
      <trkpt lat="49.32856" lon="-0.38978">
        <ele>13.6</ele>
        <time>2016-08-09T09:51:06Z</time>
      </trkpt>
      <trkpt lat="49.32852" lon="-0.38972">
        <ele>14.08</ele>
        <time>2016-08-09T09:51:07Z</time>
      </trkpt>
      <trkpt lat="49.32848" lon="-0.38965">
        <ele>14.08</ele>
        <time>2016-08-09T09:51:08Z</time>
      </trkpt>
      <trkpt lat="49.32844" lon="-0.38959">
        <ele>14.08</ele>
        <time>2016-08-09T09:51:09Z</time>
      </trkpt>
      <trkpt lat="49.32841" lon="-0.38953">
        <ele>14.08</ele>
        <time>2016-08-09T09:51:10Z</time>
      </trkpt>
      <trkpt lat="49.32838" lon="-0.38947">
        <ele>14.56</ele>
        <time>2016-08-09T09:51:11Z</time>
      </trkpt>
      <trkpt lat="49.32836" lon="-0.3894">
        <ele>14.56</ele>
        <time>2016-08-09T09:51:12Z</time>
      </trkpt>
      <trkpt lat="49.32825" lon="-0.3891">
        <ele>16</ele>
        <time>2016-08-09T09:51:16Z</time>
      </trkpt>
      <trkpt lat="49.32823" lon="-0.38901">
        <ele>16.48</ele>
        <time>2016-08-09T09:51:17Z</time>
      </trkpt>
      <trkpt lat="49.32792" lon="-0.38764">
        <ele>14.08</ele>
        <time>2016-08-09T09:51:32Z</time>
      </trkpt>
      <trkpt lat="49.32772" lon="-0.38677">
        <ele>12.63</ele>
        <time>2016-08-09T09:51:44Z</time>
      </trkpt>
      <trkpt lat="49.32769" lon="-0.38658">
        <ele>12.63</ele>
        <time>2016-08-09T09:51:48Z</time>
      </trkpt>
      <trkpt lat="49.32767" lon="-0.38652">
        <ele>12.63</ele>
        <time>2016-08-09T09:51:49Z</time>
      </trkpt>
      <trkpt lat="49.32765" lon="-0.38644">
        <ele>12.63</ele>
        <time>2016-08-09T09:51:50Z</time>
      </trkpt>
      <trkpt lat="49.32756" lon="-0.38612">
        <ele>12.63</ele>
        <time>2016-08-09T09:51:54Z</time>
      </trkpt>
      <trkpt lat="49.32754" lon="-0.38603">
        <ele>12.63</ele>
        <time>2016-08-09T09:51:55Z</time>
      </trkpt>
      <trkpt lat="49.32751" lon="-0.38594">
        <ele>12.63</ele>
        <time>2016-08-09T09:51:56Z</time>
      </trkpt>
      <trkpt lat="49.32736" lon="-0.38553">
        <ele>10.71</ele>
        <time>2016-08-09T09:52:02Z</time>
      </trkpt>
      <trkpt lat="49.32734" lon="-0.38545">
        <ele>10.23</ele>
        <time>2016-08-09T09:52:03Z</time>
      </trkpt>
      <trkpt lat="49.32729" lon="-0.38526">
        <ele>8.79</ele>
        <time>2016-08-09T09:52:08Z</time>
      </trkpt>
      <trkpt lat="49.32728" lon="-0.38524">
        <ele>8.79</ele>
        <time>2016-08-09T09:52:09Z</time>
      </trkpt>
      <trkpt lat="49.32728" lon="-0.38522">
        <ele>8.79</ele>
        <time>2016-08-09T09:52:10Z</time>
      </trkpt>
      <trkpt lat="49.32727" lon="-0.3852">
        <ele>8.79</ele>
        <time>2016-08-09T09:52:11Z</time>
      </trkpt>
      <trkpt lat="49.32726" lon="-0.38517">
        <ele>8.79</ele>
        <time>2016-08-09T09:52:12Z</time>
      </trkpt>
      <trkpt lat="49.32721" lon="-0.38497">
        <ele>8.31</ele>
        <time>2016-08-09T09:52:16Z</time>
      </trkpt>
      <trkpt lat="49.32719" lon="-0.38489">
        <ele>7.83</ele>
        <time>2016-08-09T09:52:17Z</time>
      </trkpt>
      <trkpt lat="49.32716" lon="-0.38475">
        <ele>7.83</ele>
        <time>2016-08-09T09:52:19Z</time>
      </trkpt>
      <trkpt lat="49.32714" lon="-0.38469">
        <ele>7.83</ele>
        <time>2016-08-09T09:52:20Z</time>
      </trkpt>
      <trkpt lat="49.32707" lon="-0.38428">
        <ele>7.35</ele>
        <time>2016-08-09T09:52:26Z</time>
      </trkpt>
      <trkpt lat="49.32705" lon="-0.38421">
        <ele>7.35</ele>
        <time>2016-08-09T09:52:27Z</time>
      </trkpt>
      <trkpt lat="49.32704" lon="-0.38414">
        <ele>7.35</ele>
        <time>2016-08-09T09:52:28Z</time>
      </trkpt>
      <trkpt lat="49.32703" lon="-0.38408">
        <ele>6.87</ele>
        <time>2016-08-09T09:52:29Z</time>
      </trkpt>
      <trkpt lat="49.32702" lon="-0.38401">
        <ele>7.35</ele>
        <time>2016-08-09T09:52:30Z</time>
      </trkpt>
      <trkpt lat="49.32697" lon="-0.38377">
        <ele>7.83</ele>
        <time>2016-08-09T09:52:34Z</time>
      </trkpt>
      <trkpt lat="49.32696" lon="-0.38375">
        <ele>8.31</ele>
        <time>2016-08-09T09:52:35Z</time>
      </trkpt>
      <trkpt lat="49.32688" lon="-0.38369">
        <ele>8.31</ele>
        <time>2016-08-09T09:52:40Z</time>
      </trkpt>
      <trkpt lat="49.32687" lon="-0.38365">
        <ele>8.31</ele>
        <time>2016-08-09T09:52:41Z</time>
      </trkpt>
      <trkpt lat="49.32686" lon="-0.3836">
        <ele>7.83</ele>
        <time>2016-08-09T09:52:42Z</time>
      </trkpt>
      <trkpt lat="49.32684" lon="-0.38337">
        <ele>7.83</ele>
        <time>2016-08-09T09:52:45Z</time>
      </trkpt>
      <trkpt lat="49.32682" lon="-0.38328">
        <ele>7.83</ele>
        <time>2016-08-09T09:52:46Z</time>
      </trkpt>
      <trkpt lat="49.32681" lon="-0.3832">
        <ele>7.83</ele>
        <time>2016-08-09T09:52:47Z</time>
      </trkpt>
      <trkpt lat="49.32674" lon="-0.38284">
        <ele>8.31</ele>
        <time>2016-08-09T09:52:54Z</time>
      </trkpt>
      <trkpt lat="49.32675" lon="-0.38281">
        <ele>8.31</ele>
        <time>2016-08-09T09:52:55Z</time>
      </trkpt>
      <trkpt lat="49.32679" lon="-0.38275">
        <ele>8.31</ele>
        <time>2016-08-09T09:52:57Z</time>
      </trkpt>
      <trkpt lat="49.3268" lon="-0.38271">
        <ele>8.31</ele>
        <time>2016-08-09T09:52:58Z</time>
      </trkpt>
      <trkpt lat="49.3268" lon="-0.38266">
        <ele>8.79</ele>
        <time>2016-08-09T09:52:59Z</time>
      </trkpt>
      <trkpt lat="49.32679" lon="-0.38246">
        <ele>8.31</ele>
        <time>2016-08-09T09:53:02Z</time>
      </trkpt>
      <trkpt lat="49.3268" lon="-0.38238">
        <ele>8.31</ele>
        <time>2016-08-09T09:53:03Z</time>
      </trkpt>
      <trkpt lat="49.32681" lon="-0.3823">
        <ele>8.31</ele>
        <time>2016-08-09T09:53:04Z</time>
      </trkpt>
      <trkpt lat="49.3269" lon="-0.38166">
        <ele>8.31</ele>
        <time>2016-08-09T09:53:13Z</time>
      </trkpt>
      <trkpt lat="49.32691" lon="-0.38152">
        <ele>8.79</ele>
        <time>2016-08-09T09:53:15Z</time>
      </trkpt>
      <trkpt lat="49.32692" lon="-0.38145">
        <ele>8.79</ele>
        <time>2016-08-09T09:53:16Z</time>
      </trkpt>
      <trkpt lat="49.32698" lon="-0.381">
        <ele>9.27</ele>
        <time>2016-08-09T09:53:22Z</time>
      </trkpt>
      <trkpt lat="49.32697" lon="-0.38093">
        <ele>9.27</ele>
        <time>2016-08-09T09:53:23Z</time>
      </trkpt>
      <trkpt lat="49.32696" lon="-0.38078">
        <ele>9.75</ele>
        <time>2016-08-09T09:53:25Z</time>
      </trkpt>
      <trkpt lat="49.32695" lon="-0.38071">
        <ele>9.75</ele>
        <time>2016-08-09T09:53:26Z</time>
      </trkpt>
      <trkpt lat="49.32692" lon="-0.38057">
        <ele>9.75</ele>
        <time>2016-08-09T09:53:28Z</time>
      </trkpt>
      <trkpt lat="49.32691" lon="-0.38043">
        <ele>9.75</ele>
        <time>2016-08-09T09:53:30Z</time>
      </trkpt>
      <trkpt lat="49.3269" lon="-0.38036">
        <ele>9.75</ele>
        <time>2016-08-09T09:53:31Z</time>
      </trkpt>
      <trkpt lat="49.32688" lon="-0.38029">
        <ele>10.23</ele>
        <time>2016-08-09T09:53:32Z</time>
      </trkpt>
      <trkpt lat="49.32686" lon="-0.38022">
        <ele>10.23</ele>
        <time>2016-08-09T09:53:33Z</time>
      </trkpt>
      <trkpt lat="49.32685" lon="-0.38014">
        <ele>10.23</ele>
        <time>2016-08-09T09:53:34Z</time>
      </trkpt>
      <trkpt lat="49.32684" lon="-0.38007">
        <ele>10.23</ele>
        <time>2016-08-09T09:53:35Z</time>
      </trkpt>
      <trkpt lat="49.32683" lon="-0.3799">
        <ele>10.71</ele>
        <time>2016-08-09T09:53:38Z</time>
      </trkpt>
      <trkpt lat="49.32684" lon="-0.37987">
        <ele>10.71</ele>
        <time>2016-08-09T09:53:39Z</time>
      </trkpt>
      <trkpt lat="49.32687" lon="-0.37985">
        <ele>10.71</ele>
        <time>2016-08-09T09:53:40Z</time>
      </trkpt>
      <trkpt lat="49.32691" lon="-0.37981">
        <ele>10.71</ele>
        <time>2016-08-09T09:53:41Z</time>
      </trkpt>
      <trkpt lat="49.32696" lon="-0.37978">
        <ele>10.23</ele>
        <time>2016-08-09T09:53:42Z</time>
      </trkpt>
      <trkpt lat="49.32701" lon="-0.37975">
        <ele>10.23</ele>
        <time>2016-08-09T09:53:43Z</time>
      </trkpt>
      <trkpt lat="49.32711" lon="-0.37968">
        <ele>10.23</ele>
        <time>2016-08-09T09:53:45Z</time>
      </trkpt>
      <trkpt lat="49.32742" lon="-0.37941">
        <ele>10.71</ele>
        <time>2016-08-09T09:53:52Z</time>
      </trkpt>
      <trkpt lat="49.32788" lon="-0.37907">
        <ele>8.79</ele>
        <time>2016-08-09T09:54:05Z</time>
      </trkpt>
      <trkpt lat="49.32789" lon="-0.37907">
        <ele>8.79</ele>
        <time>2016-08-09T09:54:11Z</time>
      </trkpt>
      <trkpt lat="49.32789" lon="-0.37904">
        <ele>8.79</ele>
        <time>2016-08-09T09:54:12Z</time>
      </trkpt>
      <trkpt lat="49.32789" lon="-0.379">
        <ele>8.79</ele>
        <time>2016-08-09T09:54:13Z</time>
      </trkpt>
      <trkpt lat="49.32788" lon="-0.37896">
        <ele>8.79</ele>
        <time>2016-08-09T09:54:14Z</time>
      </trkpt>
      <trkpt lat="49.32787" lon="-0.37891">
        <ele>8.79</ele>
        <time>2016-08-09T09:54:15Z</time>
      </trkpt>
      <trkpt lat="49.32785" lon="-0.37886">
        <ele>8.79</ele>
        <time>2016-08-09T09:54:16Z</time>
      </trkpt>
      <trkpt lat="49.3276" lon="-0.37782">
        <ele>9.27</ele>
        <time>2016-08-09T09:54:29Z</time>
      </trkpt>
      <trkpt lat="49.32742" lon="-0.37706">
        <ele>9.75</ele>
        <time>2016-08-09T09:54:37Z</time>
      </trkpt>
      <trkpt lat="49.32687" lon="-0.37557">
        <ele>10.23</ele>
        <time>2016-08-09T09:54:54Z</time>
      </trkpt>
      <trkpt lat="49.32615" lon="-0.37431">
        <ele>9.27</ele>
        <time>2016-08-09T09:55:09Z</time>
      </trkpt>
      <trkpt lat="49.32593" lon="-0.37386">
        <ele>9.75</ele>
        <time>2016-08-09T09:55:14Z</time>
      </trkpt>
      <trkpt lat="49.3259" lon="-0.37376">
        <ele>9.75</ele>
        <time>2016-08-09T09:55:15Z</time>
      </trkpt>
      <trkpt lat="49.32587" lon="-0.37366">
        <ele>10.23</ele>
        <time>2016-08-09T09:55:16Z</time>
      </trkpt>
      <trkpt lat="49.32569" lon="-0.37234">
        <ele>8.79</ele>
        <time>2016-08-09T09:55:28Z</time>
      </trkpt>
      <trkpt lat="49.32554" lon="-0.37122">
        <ele>8.31</ele>
        <time>2016-08-09T09:55:38Z</time>
      </trkpt>
      <trkpt lat="49.32541" lon="-0.37059">
        <ele>10.71</ele>
        <time>2016-08-09T09:55:45Z</time>
      </trkpt>
      <trkpt lat="49.32539" lon="-0.3705">
        <ele>11.19</ele>
        <time>2016-08-09T09:55:46Z</time>
      </trkpt>
      <trkpt lat="49.32511" lon="-0.36926">
        <ele>11.19</ele>
        <time>2016-08-09T09:56:01Z</time>
      </trkpt>
      <trkpt lat="49.3248" lon="-0.36816">
        <ele>12.63</ele>
        <time>2016-08-09T09:56:14Z</time>
      </trkpt>
      <trkpt lat="49.32478" lon="-0.36807">
        <ele>12.63</ele>
        <time>2016-08-09T09:56:15Z</time>
      </trkpt>
      <trkpt lat="49.32437" lon="-0.36649">
        <ele>14.56</ele>
        <time>2016-08-09T09:56:32Z</time>
      </trkpt>
      <trkpt lat="49.32397" lon="-0.36524">
        <ele>15.04</ele>
        <time>2016-08-09T09:56:46Z</time>
      </trkpt>
      <trkpt lat="49.32365" lon="-0.36385">
        <ele>16</ele>
        <time>2016-08-09T09:57:00Z</time>
      </trkpt>
      <trkpt lat="49.32331" lon="-0.36244">
        <ele>13.12</ele>
        <time>2016-08-09T09:57:14Z</time>
      </trkpt>
      <trkpt lat="49.32297" lon="-0.36156">
        <ele>12.63</ele>
        <time>2016-08-09T09:57:23Z</time>
      </trkpt>
      <trkpt lat="49.3226" lon="-0.36082">
        <ele>11.19</ele>
        <time>2016-08-09T09:57:31Z</time>
      </trkpt>
      <trkpt lat="49.32217" lon="-0.35997">
        <ele>9.27</ele>
        <time>2016-08-09T09:57:42Z</time>
      </trkpt>
      <trkpt lat="49.32213" lon="-0.35987">
        <ele>9.27</ele>
        <time>2016-08-09T09:57:44Z</time>
      </trkpt>
      <trkpt lat="49.32208" lon="-0.35976">
        <ele>9.27</ele>
        <time>2016-08-09T09:57:46Z</time>
      </trkpt>
      <trkpt lat="49.32164" lon="-0.3587">
        <ele>8.79</ele>
        <time>2016-08-09T09:57:59Z</time>
      </trkpt>
      <trkpt lat="49.3216" lon="-0.35862">
        <ele>8.79</ele>
        <time>2016-08-09T09:58:00Z</time>
      </trkpt>
      <trkpt lat="49.32102" lon="-0.35726">
        <ele>11.19</ele>
        <time>2016-08-09T09:58:16Z</time>
      </trkpt>
      <trkpt lat="49.32043" lon="-0.35584">
        <ele>14.08</ele>
        <time>2016-08-09T09:58:33Z</time>
      </trkpt>
      <trkpt lat="49.3203" lon="-0.3555">
        <ele>15.04</ele>
        <time>2016-08-09T09:58:37Z</time>
      </trkpt>
      <trkpt lat="49.32026" lon="-0.35542">
        <ele>15.52</ele>
        <time>2016-08-09T09:58:38Z</time>
      </trkpt>
      <trkpt lat="49.31974" lon="-0.35409">
        <ele>15.04</ele>
        <time>2016-08-09T09:58:53Z</time>
      </trkpt>
      <trkpt lat="49.3197" lon="-0.354">
        <ele>15.04</ele>
        <time>2016-08-09T09:58:54Z</time>
      </trkpt>
      <trkpt lat="49.31966" lon="-0.35391">
        <ele>15.04</ele>
        <time>2016-08-09T09:58:55Z</time>
      </trkpt>
      <trkpt lat="49.31962" lon="-0.35383">
        <ele>15.52</ele>
        <time>2016-08-09T09:58:56Z</time>
      </trkpt>
      <trkpt lat="49.31958" lon="-0.35374">
        <ele>15.04</ele>
        <time>2016-08-09T09:58:57Z</time>
      </trkpt>
      <trkpt lat="49.31954" lon="-0.35366">
        <ele>15.52</ele>
        <time>2016-08-09T09:58:58Z</time>
      </trkpt>
      <trkpt lat="49.319" lon="-0.35237">
        <ele>14.56</ele>
        <time>2016-08-09T09:59:11Z</time>
      </trkpt>
      <trkpt lat="49.31882" lon="-0.35196">
        <ele>13.6</ele>
        <time>2016-08-09T09:59:15Z</time>
      </trkpt>
      <trkpt lat="49.31835" lon="-0.3508">
        <ele>13.6</ele>
        <time>2016-08-09T09:59:26Z</time>
      </trkpt>
      <trkpt lat="49.31831" lon="-0.3507">
        <ele>13.6</ele>
        <time>2016-08-09T09:59:27Z</time>
      </trkpt>
      <trkpt lat="49.31826" lon="-0.3506">
        <ele>14.08</ele>
        <time>2016-08-09T09:59:28Z</time>
      </trkpt>
      <trkpt lat="49.3182" lon="-0.35052">
        <ele>14.08</ele>
        <time>2016-08-09T09:59:29Z</time>
      </trkpt>
      <trkpt lat="49.31814" lon="-0.35045">
        <ele>14.08</ele>
        <time>2016-08-09T09:59:30Z</time>
      </trkpt>
      <trkpt lat="49.31739" lon="-0.34974">
        <ele>14.56</ele>
        <time>2016-08-09T09:59:42Z</time>
      </trkpt>
      <trkpt lat="49.31717" lon="-0.34955">
        <ele>14.08</ele>
        <time>2016-08-09T09:59:46Z</time>
      </trkpt>
      <trkpt lat="49.3171" lon="-0.34952">
        <ele>14.08</ele>
        <time>2016-08-09T09:59:47Z</time>
      </trkpt>
      <trkpt lat="49.31704" lon="-0.34952">
        <ele>14.56</ele>
        <time>2016-08-09T09:59:48Z</time>
      </trkpt>
      <trkpt lat="49.31699" lon="-0.34956">
        <ele>14.56</ele>
        <time>2016-08-09T09:59:49Z</time>
      </trkpt>
      <trkpt lat="49.31693" lon="-0.34958">
        <ele>14.56</ele>
        <time>2016-08-09T09:59:50Z</time>
      </trkpt>
      <trkpt lat="49.31688" lon="-0.34956">
        <ele>15.04</ele>
        <time>2016-08-09T09:59:51Z</time>
      </trkpt>
      <trkpt lat="49.31685" lon="-0.3495">
        <ele>15.04</ele>
        <time>2016-08-09T09:59:52Z</time>
      </trkpt>
      <trkpt lat="49.31684" lon="-0.34943">
        <ele>15.04</ele>
        <time>2016-08-09T09:59:53Z</time>
      </trkpt>
      <trkpt lat="49.31685" lon="-0.34935">
        <ele>15.04</ele>
        <time>2016-08-09T09:59:54Z</time>
      </trkpt>
      <trkpt lat="49.31685" lon="-0.34931">
        <ele>14.56</ele>
        <time>2016-08-09T09:59:55Z</time>
      </trkpt>
      <trkpt lat="49.31686" lon="-0.34927">
        <ele>14.08</ele>
        <time>2016-08-09T09:59:56Z</time>
      </trkpt>
      <trkpt lat="49.31685" lon="-0.34917">
        <ele>14.08</ele>
        <time>2016-08-09T09:59:58Z</time>
      </trkpt>
      <trkpt lat="49.31682" lon="-0.34911">
        <ele>14.56</ele>
        <time>2016-08-09T09:59:59Z</time>
      </trkpt>
      <trkpt lat="49.31678" lon="-0.34905">
        <ele>14.56</ele>
        <time>2016-08-09T10:00:00Z</time>
      </trkpt>
      <trkpt lat="49.31674" lon="-0.34898">
        <ele>14.56</ele>
        <time>2016-08-09T10:00:01Z</time>
      </trkpt>
      <trkpt lat="49.3167" lon="-0.3489">
        <ele>14.56</ele>
        <time>2016-08-09T10:00:02Z</time>
      </trkpt>
      <trkpt lat="49.31615" lon="-0.34768">
        <ele>15.04</ele>
        <time>2016-08-09T10:00:17Z</time>
      </trkpt>
      <trkpt lat="49.31554" lon="-0.34631">
        <ele>14.56</ele>
        <time>2016-08-09T10:00:33Z</time>
      </trkpt>
      <trkpt lat="49.31492" lon="-0.34493">
        <ele>14.56</ele>
        <time>2016-08-09T10:00:49Z</time>
      </trkpt>
      <trkpt lat="49.31425" lon="-0.34343">
        <ele>13.6</ele>
        <time>2016-08-09T10:01:05Z</time>
      </trkpt>
      <trkpt lat="49.31362" lon="-0.34188">
        <ele>13.12</ele>
        <time>2016-08-09T10:01:20Z</time>
      </trkpt>
      <trkpt lat="49.31296" lon="-0.34028">
        <ele>12.63</ele>
        <time>2016-08-09T10:01:36Z</time>
      </trkpt>
      <trkpt lat="49.3123" lon="-0.33871">
        <ele>15.04</ele>
        <time>2016-08-09T10:01:52Z</time>
      </trkpt>
      <trkpt lat="49.3116" lon="-0.33701">
        <ele>16</ele>
        <time>2016-08-09T10:02:09Z</time>
      </trkpt>
      <trkpt lat="49.31095" lon="-0.33541">
        <ele>16.48</ele>
        <time>2016-08-09T10:02:25Z</time>
      </trkpt>
      <trkpt lat="49.31019" lon="-0.33357">
        <ele>15.52</ele>
        <time>2016-08-09T10:02:44Z</time>
      </trkpt>
      <trkpt lat="49.30955" lon="-0.33201">
        <ele>15.04</ele>
        <time>2016-08-09T10:03:00Z</time>
      </trkpt>
      <trkpt lat="49.30858" lon="-0.32976">
        <ele>13.6</ele>
        <time>2016-08-09T10:03:23Z</time>
      </trkpt>
      <trkpt lat="49.30775" lon="-0.32809">
        <ele>13.12</ele>
        <time>2016-08-09T10:03:41Z</time>
      </trkpt>
      <trkpt lat="49.30702" lon="-0.32665">
        <ele>13.12</ele>
        <time>2016-08-09T10:03:57Z</time>
      </trkpt>
      <trkpt lat="49.3063" lon="-0.32522">
        <ele>12.15</ele>
        <time>2016-08-09T10:04:12Z</time>
      </trkpt>
      <trkpt lat="49.30624" lon="-0.32514">
        <ele>11.67</ele>
        <time>2016-08-09T10:04:13Z</time>
      </trkpt>
      <trkpt lat="49.30585" lon="-0.32454">
        <ele>10.71</ele>
        <time>2016-08-09T10:04:20Z</time>
      </trkpt>
      <trkpt lat="49.30577" lon="-0.32434">
        <ele>10.71</ele>
        <time>2016-08-09T10:04:22Z</time>
      </trkpt>
      <trkpt lat="49.30572" lon="-0.32426">
        <ele>10.23</ele>
        <time>2016-08-09T10:04:23Z</time>
      </trkpt>
      <trkpt lat="49.30566" lon="-0.32419">
        <ele>10.23</ele>
        <time>2016-08-09T10:04:24Z</time>
      </trkpt>
      <trkpt lat="49.30561" lon="-0.32411">
        <ele>10.23</ele>
        <time>2016-08-09T10:04:25Z</time>
      </trkpt>
      <trkpt lat="49.30559" lon="-0.32402">
        <ele>10.23</ele>
        <time>2016-08-09T10:04:26Z</time>
      </trkpt>
      <trkpt lat="49.30557" lon="-0.32391">
        <ele>10.71</ele>
        <time>2016-08-09T10:04:27Z</time>
      </trkpt>
      <trkpt lat="49.30556" lon="-0.32381">
        <ele>10.71</ele>
        <time>2016-08-09T10:04:28Z</time>
      </trkpt>
      <trkpt lat="49.30554" lon="-0.32371">
        <ele>10.71</ele>
        <time>2016-08-09T10:04:29Z</time>
      </trkpt>
      <trkpt lat="49.30549" lon="-0.32363">
        <ele>10.71</ele>
        <time>2016-08-09T10:04:30Z</time>
      </trkpt>
      <trkpt lat="49.30545" lon="-0.32354">
        <ele>10.71</ele>
        <time>2016-08-09T10:04:31Z</time>
      </trkpt>
      <trkpt lat="49.30479" lon="-0.32253">
        <ele>12.15</ele>
        <time>2016-08-09T10:04:45Z</time>
      </trkpt>
      <trkpt lat="49.30382" lon="-0.32113">
        <ele>11.67</ele>
        <time>2016-08-09T10:05:05Z</time>
      </trkpt>
      <trkpt lat="49.30312" lon="-0.32013">
        <ele>12.15</ele>
        <time>2016-08-09T10:05:19Z</time>
      </trkpt>
      <trkpt lat="49.30239" lon="-0.3191">
        <ele>10.71</ele>
        <time>2016-08-09T10:05:33Z</time>
      </trkpt>
      <trkpt lat="49.30178" lon="-0.3183">
        <ele>8.31</ele>
        <time>2016-08-09T10:05:45Z</time>
      </trkpt>
      <trkpt lat="49.30174" lon="-0.31822">
        <ele>8.31</ele>
        <time>2016-08-09T10:05:46Z</time>
      </trkpt>
      <trkpt lat="49.30106" lon="-0.31716">
        <ele>7.35</ele>
        <time>2016-08-09T10:05:59Z</time>
      </trkpt>
      <trkpt lat="49.30082" lon="-0.31682">
        <ele>5.91</ele>
        <time>2016-08-09T10:06:04Z</time>
      </trkpt>
      <trkpt lat="49.30071" lon="-0.31669">
        <ele>5.91</ele>
        <time>2016-08-09T10:06:06Z</time>
      </trkpt>
      <trkpt lat="49.29997" lon="-0.31562">
        <ele>5.42</ele>
        <time>2016-08-09T10:06:20Z</time>
      </trkpt>
      <trkpt lat="49.29943" lon="-0.31487">
        <ele>4.94</ele>
        <time>2016-08-09T10:06:30Z</time>
      </trkpt>
      <trkpt lat="49.29928" lon="-0.31461">
        <ele>4.46</ele>
        <time>2016-08-09T10:06:34Z</time>
      </trkpt>
      <trkpt lat="49.29926" lon="-0.31455">
        <ele>4.46</ele>
        <time>2016-08-09T10:06:35Z</time>
      </trkpt>
      <trkpt lat="49.29915" lon="-0.31428">
        <ele>5.42</ele>
        <time>2016-08-09T10:06:40Z</time>
      </trkpt>
      <trkpt lat="49.29912" lon="-0.31421">
        <ele>5.42</ele>
        <time>2016-08-09T10:06:41Z</time>
      </trkpt>
      <trkpt lat="49.2991" lon="-0.31413">
        <ele>5.91</ele>
        <time>2016-08-09T10:06:42Z</time>
      </trkpt>
      <trkpt lat="49.29908" lon="-0.31404">
        <ele>5.91</ele>
        <time>2016-08-09T10:06:43Z</time>
      </trkpt>
      <trkpt lat="49.29906" lon="-0.31396">
        <ele>5.91</ele>
        <time>2016-08-09T10:06:44Z</time>
      </trkpt>
      <trkpt lat="49.29896" lon="-0.31333">
        <ele>8.31</ele>
        <time>2016-08-09T10:06:54Z</time>
      </trkpt>
      <trkpt lat="49.29895" lon="-0.31326">
        <ele>8.79</ele>
        <time>2016-08-09T10:06:55Z</time>
      </trkpt>
      <trkpt lat="49.29894" lon="-0.31318">
        <ele>8.79</ele>
        <time>2016-08-09T10:06:56Z</time>
      </trkpt>
      <trkpt lat="49.29893" lon="-0.3131">
        <ele>8.79</ele>
        <time>2016-08-09T10:06:57Z</time>
      </trkpt>
      <trkpt lat="49.29891" lon="-0.31295">
        <ele>9.27</ele>
        <time>2016-08-09T10:06:59Z</time>
      </trkpt>
      <trkpt lat="49.29885" lon="-0.31269">
        <ele>9.75</ele>
        <time>2016-08-09T10:07:02Z</time>
      </trkpt>
      <trkpt lat="49.29884" lon="-0.31259">
        <ele>9.75</ele>
        <time>2016-08-09T10:07:03Z</time>
      </trkpt>
      <trkpt lat="49.29863" lon="-0.31108">
        <ele>8.79</ele>
        <time>2016-08-09T10:07:17Z</time>
      </trkpt>
      <trkpt lat="49.29861" lon="-0.31097">
        <ele>8.79</ele>
        <time>2016-08-09T10:07:18Z</time>
      </trkpt>
      <trkpt lat="49.29831" lon="-0.30885">
        <ele>7.35</ele>
        <time>2016-08-09T10:07:36Z</time>
      </trkpt>
      <trkpt lat="49.29805" lon="-0.30706">
        <ele>4.94</ele>
        <time>2016-08-09T10:07:51Z</time>
      </trkpt>
      <trkpt lat="49.29778" lon="-0.30547">
        <ele>4.46</ele>
        <time>2016-08-09T10:08:05Z</time>
      </trkpt>
      <trkpt lat="49.29734" lon="-0.30415">
        <ele>5.91</ele>
        <time>2016-08-09T10:08:19Z</time>
      </trkpt>
      <trkpt lat="49.29688" lon="-0.30288">
        <ele>5.42</ele>
        <time>2016-08-09T10:08:34Z</time>
      </trkpt>
      <trkpt lat="49.29646" lon="-0.30115">
        <ele>4.94</ele>
        <time>2016-08-09T10:08:50Z</time>
      </trkpt>
      <trkpt lat="49.29626" lon="-0.29947">
        <ele>6.87</ele>
        <time>2016-08-09T10:09:05Z</time>
      </trkpt>
      <trkpt lat="49.29589" lon="-0.29785">
        <ele>5.91</ele>
        <time>2016-08-09T10:09:20Z</time>
      </trkpt>
      <trkpt lat="49.29535" lon="-0.2961">
        <ele>5.42</ele>
        <time>2016-08-09T10:09:38Z</time>
      </trkpt>
      <trkpt lat="49.29488" lon="-0.29458">
        <ele>5.42</ele>
        <time>2016-08-09T10:09:55Z</time>
      </trkpt>
      <trkpt lat="49.29426" lon="-0.29261">
        <ele>5.42</ele>
        <time>2016-08-09T10:10:15Z</time>
      </trkpt>
      <trkpt lat="49.29376" lon="-0.29093">
        <ele>4.46</ele>
        <time>2016-08-09T10:10:31Z</time>
      </trkpt>
      <trkpt lat="49.29327" lon="-0.28936">
        <ele>5.42</ele>
        <time>2016-08-09T10:10:46Z</time>
      </trkpt>
      <trkpt lat="49.29264" lon="-0.28735">
        <ele>4.94</ele>
        <time>2016-08-09T10:11:05Z</time>
      </trkpt>
      <trkpt lat="49.29211" lon="-0.28563">
        <ele>5.42</ele>
        <time>2016-08-09T10:11:21Z</time>
      </trkpt>
      <trkpt lat="49.29154" lon="-0.28378">
        <ele>5.91</ele>
        <time>2016-08-09T10:11:39Z</time>
      </trkpt>
      <trkpt lat="49.29133" lon="-0.28309">
        <ele>6.39</ele>
        <time>2016-08-09T10:11:49Z</time>
      </trkpt>
      <trkpt lat="49.29129" lon="-0.28304">
        <ele>6.39</ele>
        <time>2016-08-09T10:11:55Z</time>
      </trkpt>
      <trkpt lat="49.2912" lon="-0.2827">
        <ele>5.91</ele>
        <time>2016-08-09T10:12:02Z</time>
      </trkpt>
      <trkpt lat="49.29115" lon="-0.28254">
        <ele>5.91</ele>
        <time>2016-08-09T10:12:04Z</time>
      </trkpt>
      <trkpt lat="49.29063" lon="-0.28085">
        <ele>6.39</ele>
        <time>2016-08-09T10:12:22Z</time>
      </trkpt>
      <trkpt lat="49.29013" lon="-0.27925">
        <ele>5.91</ele>
        <time>2016-08-09T10:12:39Z</time>
      </trkpt>
      <trkpt lat="49.28957" lon="-0.27741">
        <ele>5.91</ele>
        <time>2016-08-09T10:12:58Z</time>
      </trkpt>
      <trkpt lat="49.28901" lon="-0.2756">
        <ele>5.91</ele>
        <time>2016-08-09T10:13:15Z</time>
      </trkpt>
      <trkpt lat="49.28845" lon="-0.27379">
        <ele>5.42</ele>
        <time>2016-08-09T10:13:32Z</time>
      </trkpt>
      <trkpt lat="49.28795" lon="-0.27218">
        <ele>6.39</ele>
        <time>2016-08-09T10:13:47Z</time>
      </trkpt>
      <trkpt lat="49.28747" lon="-0.27063">
        <ele>6.87</ele>
        <time>2016-08-09T10:14:02Z</time>
      </trkpt>
      <trkpt lat="49.28698" lon="-0.26896">
        <ele>5.91</ele>
        <time>2016-08-09T10:14:18Z</time>
      </trkpt>
      <trkpt lat="49.28654" lon="-0.26761">
        <ele>5.42</ele>
        <time>2016-08-09T10:14:31Z</time>
      </trkpt>
      <trkpt lat="49.28622" lon="-0.2667">
        <ele>5.42</ele>
        <time>2016-08-09T10:14:40Z</time>
      </trkpt>
      <trkpt lat="49.28617" lon="-0.26664">
        <ele>5.91</ele>
        <time>2016-08-09T10:14:41Z</time>
      </trkpt>
      <trkpt lat="49.28611" lon="-0.26662">
        <ele>5.91</ele>
        <time>2016-08-09T10:14:42Z</time>
      </trkpt>
      <trkpt lat="49.28605" lon="-0.26664">
        <ele>6.39</ele>
        <time>2016-08-09T10:14:43Z</time>
      </trkpt>
      <trkpt lat="49.28599" lon="-0.26669">
        <ele>6.87</ele>
        <time>2016-08-09T10:14:44Z</time>
      </trkpt>
      <trkpt lat="49.28594" lon="-0.26674">
        <ele>6.87</ele>
        <time>2016-08-09T10:14:45Z</time>
      </trkpt>
      <trkpt lat="49.28582" lon="-0.26684">
        <ele>7.35</ele>
        <time>2016-08-09T10:14:47Z</time>
      </trkpt>
      <trkpt lat="49.28576" lon="-0.26689">
        <ele>7.35</ele>
        <time>2016-08-09T10:14:48Z</time>
      </trkpt>
      <trkpt lat="49.28512" lon="-0.26743">
        <ele>8.31</ele>
        <time>2016-08-09T10:15:00Z</time>
      </trkpt>
      <trkpt lat="49.28508" lon="-0.2675">
        <ele>8.79</ele>
        <time>2016-08-09T10:15:01Z</time>
      </trkpt>
      <trkpt lat="49.28507" lon="-0.26758">
        <ele>8.31</ele>
        <time>2016-08-09T10:15:02Z</time>
      </trkpt>
      <trkpt lat="49.28508" lon="-0.26766">
        <ele>8.31</ele>
        <time>2016-08-09T10:15:03Z</time>
      </trkpt>
      <trkpt lat="49.28511" lon="-0.26774">
        <ele>8.31</ele>
        <time>2016-08-09T10:15:04Z</time>
      </trkpt>
      <trkpt lat="49.28514" lon="-0.26781">
        <ele>8.31</ele>
        <time>2016-08-09T10:15:05Z</time>
      </trkpt>
      <trkpt lat="49.28517" lon="-0.26789">
        <ele>8.31</ele>
        <time>2016-08-09T10:15:06Z</time>
      </trkpt>
      <trkpt lat="49.28519" lon="-0.26797">
        <ele>7.83</ele>
        <time>2016-08-09T10:15:07Z</time>
      </trkpt>
      <trkpt lat="49.28522" lon="-0.26805">
        <ele>7.35</ele>
        <time>2016-08-09T10:15:08Z</time>
      </trkpt>
      <trkpt lat="49.28548" lon="-0.26888">
        <ele>7.35</ele>
        <time>2016-08-09T10:15:20Z</time>
      </trkpt>
      <trkpt lat="49.28548" lon="-0.26896">
        <ele>7.35</ele>
        <time>2016-08-09T10:15:21Z</time>
      </trkpt>
      <trkpt lat="49.28548" lon="-0.26903">
        <ele>7.35</ele>
        <time>2016-08-09T10:15:22Z</time>
      </trkpt>
      <trkpt lat="49.28547" lon="-0.2691">
        <ele>7.35</ele>
        <time>2016-08-09T10:15:23Z</time>
      </trkpt>
      <trkpt lat="49.28545" lon="-0.26917">
        <ele>7.35</ele>
        <time>2016-08-09T10:15:24Z</time>
      </trkpt>
      <trkpt lat="49.28537" lon="-0.26948">
        <ele>6.87</ele>
        <time>2016-08-09T10:15:29Z</time>
      </trkpt>
      <trkpt lat="49.28532" lon="-0.26959">
        <ele>6.87</ele>
        <time>2016-08-09T10:15:31Z</time>
      </trkpt>
      <trkpt lat="49.28531" lon="-0.26965">
        <ele>6.87</ele>
        <time>2016-08-09T10:15:32Z</time>
      </trkpt>
      <trkpt lat="49.28531" lon="-0.26972">
        <ele>6.87</ele>
        <time>2016-08-09T10:15:33Z</time>
      </trkpt>
      <trkpt lat="49.28533" lon="-0.26977">
        <ele>6.87</ele>
        <time>2016-08-09T10:15:34Z</time>
      </trkpt>
      <trkpt lat="49.28536" lon="-0.26981">
        <ele>6.87</ele>
        <time>2016-08-09T10:15:35Z</time>
      </trkpt>
      <trkpt lat="49.28539" lon="-0.26986">
        <ele>6.87</ele>
        <time>2016-08-09T10:15:42Z</time>
      </trkpt>
      <trkpt lat="49.28539" lon="-0.26986">
        <ele>7.35</ele>
        <time>2016-08-09T10:15:44Z</time>
      </trkpt>
      <trkpt lat="49.2854" lon="-0.26987">
        <ele>7.35</ele>
        <time>2016-08-09T10:15:45Z</time>
      </trkpt>
      <trkpt lat="49.28541" lon="-0.2699">
        <ele>7.35</ele>
        <time>2016-08-09T10:15:46Z</time>
      </trkpt>
      <trkpt lat="49.28541" lon="-0.26992">
        <ele>6.87</ele>
        <time>2016-08-09T10:15:47Z</time>
      </trkpt>
      <trkpt lat="49.28541" lon="-0.26994">
        <ele>6.87</ele>
        <time>2016-08-09T10:15:48Z</time>
      </trkpt>
      <trkpt lat="49.28542" lon="-0.26996">
        <ele>6.39</ele>
        <time>2016-08-09T10:15:49Z</time>
      </trkpt>
      <trkpt lat="49.28542" lon="-0.26999">
        <ele>5.42</ele>
        <time>2016-08-09T10:15:50Z</time>
      </trkpt>
      <trkpt lat="49.28542" lon="-0.27002">
        <ele>5.42</ele>
        <time>2016-08-09T10:15:51Z</time>
      </trkpt>
      <trkpt lat="49.28542" lon="-0.27007">
        <ele>5.42</ele>
        <time>2016-08-09T10:15:52Z</time>
      </trkpt>
      <trkpt lat="49.28542" lon="-0.27012">
        <ele>5.42</ele>
        <time>2016-08-09T10:15:53Z</time>
      </trkpt>
      <trkpt lat="49.28542" lon="-0.27019">
        <ele>5.91</ele>
        <time>2016-08-09T10:15:54Z</time>
      </trkpt>
      <trkpt lat="49.28541" lon="-0.27025">
        <ele>5.91</ele>
        <time>2016-08-09T10:15:55Z</time>
      </trkpt>
      <trkpt lat="49.28539" lon="-0.27039">
        <ele>5.91</ele>
        <time>2016-08-09T10:15:57Z</time>
      </trkpt>
      <trkpt lat="49.2854" lon="-0.27046">
        <ele>5.91</ele>
        <time>2016-08-09T10:15:58Z</time>
      </trkpt>
      <trkpt lat="49.28544" lon="-0.2706">
        <ele>6.39</ele>
        <time>2016-08-09T10:16:00Z</time>
      </trkpt>
      <trkpt lat="49.28546" lon="-0.27067">
        <ele>6.39</ele>
        <time>2016-08-09T10:16:01Z</time>
      </trkpt>
      <trkpt lat="49.28548" lon="-0.27074">
        <ele>6.39</ele>
        <time>2016-08-09T10:16:02Z</time>
      </trkpt>
      <trkpt lat="49.2855" lon="-0.2708">
        <ele>6.39</ele>
        <time>2016-08-09T10:16:03Z</time>
      </trkpt>
      <trkpt lat="49.28552" lon="-0.27085">
        <ele>6.39</ele>
        <time>2016-08-09T10:16:04Z</time>
      </trkpt>
      <trkpt lat="49.28556" lon="-0.27097">
        <ele>5.91</ele>
        <time>2016-08-09T10:16:06Z</time>
      </trkpt>
      <trkpt lat="49.28573" lon="-0.27151">
        <ele>4.94</ele>
        <time>2016-08-09T10:16:16Z</time>
      </trkpt>
      <trkpt lat="49.28576" lon="-0.27153">
        <ele>4.94</ele>
        <time>2016-08-09T10:16:17Z</time>
      </trkpt>
      <trkpt lat="49.28578" lon="-0.27152">
        <ele>4.94</ele>
        <time>2016-08-09T10:16:18Z</time>
      </trkpt>
      <trkpt lat="49.28581" lon="-0.27151">
        <ele>5.42</ele>
        <time>2016-08-09T10:16:19Z</time>
      </trkpt>
      <trkpt lat="49.28583" lon="-0.27149">
        <ele>5.42</ele>
        <time>2016-08-09T10:16:20Z</time>
      </trkpt>
      <trkpt lat="49.2859" lon="-0.27143">
        <ele>5.42</ele>
        <time>2016-08-09T10:16:24Z</time>
      </trkpt>
      <trkpt lat="49.28592" lon="-0.27134">
        <ele>5.91</ele>
        <time>2016-08-09T10:16:31Z</time>
      </trkpt>
    </trkseg>
  </trk>
</gpx>